<?xml version="1.0" encoding="UTF-8" standalone="no" ?>
<gpx xmlns="http://www.topografix.com/GPX/1/1" xmlns:xsi="http://www.w3.org/2001/XMLSchema-instance" xsi:schemaLocation="http://www.topografix.com/GPX/1/1 http://www.topografix.com/GPX/1/1/gpx.xsd" version="1.1" creator="VisuGPX - https://www.visugpx.com">
  <metadata>
    <name>rando 14/05/2015</name>
    <desc><![CDATA[Forêt de Dreux]]></desc>
  </metadata>
  <trk>
    <name><![CDATA[2015-05-14 14:40:55]]></name>
    <trkseg>
      <trkpt lat="48.8262" lon="1.38407">
        <ele>135.68</ele>
        <time>2015-05-14T06:55:43Z</time>
      </trkpt>
      <trkpt lat="48.8262" lon="1.38406">
        <ele>135.68</ele>
        <time>2015-05-14T06:55:44Z</time>
      </trkpt>
      <trkpt lat="48.82619" lon="1.38406">
        <ele>135.68</ele>
        <time>2015-05-14T06:55:45Z</time>
      </trkpt>
      <trkpt lat="48.82614" lon="1.38397">
        <ele>134.24</ele>
        <time>2015-05-14T06:55:56Z</time>
      </trkpt>
      <trkpt lat="48.82615" lon="1.38396">
        <ele>137.61</ele>
        <time>2015-05-14T06:55:57Z</time>
      </trkpt>
      <trkpt lat="48.82612" lon="1.38394">
        <ele>134.72</ele>
        <time>2015-05-14T06:56:05Z</time>
      </trkpt>
      <trkpt lat="48.82611" lon="1.38393">
        <ele>136.16</ele>
        <time>2015-05-14T06:56:12Z</time>
      </trkpt>
      <trkpt lat="48.82611" lon="1.38391">
        <ele>136.16</ele>
        <time>2015-05-14T06:56:17Z</time>
      </trkpt>
      <trkpt lat="48.8262" lon="1.38379">
        <ele>136.16</ele>
        <time>2015-05-14T06:56:26Z</time>
      </trkpt>
      <trkpt lat="48.82637" lon="1.38373">
        <ele>136.16</ele>
        <time>2015-05-14T06:56:38Z</time>
      </trkpt>
      <trkpt lat="48.82653" lon="1.38367">
        <ele>136.16</ele>
        <time>2015-05-14T06:56:49Z</time>
      </trkpt>
      <trkpt lat="48.82677" lon="1.38361">
        <ele>136.16</ele>
        <time>2015-05-14T06:57:03Z</time>
      </trkpt>
      <trkpt lat="48.82687" lon="1.3835">
        <ele>136.16</ele>
        <time>2015-05-14T06:57:13Z</time>
      </trkpt>
      <trkpt lat="48.82703" lon="1.38342">
        <ele>136.16</ele>
        <time>2015-05-14T06:57:25Z</time>
      </trkpt>
      <trkpt lat="48.82715" lon="1.38338">
        <ele>136.16</ele>
        <time>2015-05-14T06:57:33Z</time>
      </trkpt>
      <trkpt lat="48.82733" lon="1.38333">
        <ele>132.8</ele>
        <time>2015-05-14T06:57:43Z</time>
      </trkpt>
      <trkpt lat="48.82735" lon="1.38333">
        <ele>138.57</ele>
        <time>2015-05-14T06:57:44Z</time>
      </trkpt>
      <trkpt lat="48.82737" lon="1.38332">
        <ele>132.8</ele>
        <time>2015-05-14T06:57:45Z</time>
      </trkpt>
      <trkpt lat="48.82739" lon="1.38332">
        <ele>138.09</ele>
        <time>2015-05-14T06:57:46Z</time>
      </trkpt>
      <trkpt lat="48.82743" lon="1.38329">
        <ele>134.72</ele>
        <time>2015-05-14T06:57:49Z</time>
      </trkpt>
      <trkpt lat="48.82767" lon="1.38322">
        <ele>135.68</ele>
        <time>2015-05-14T06:58:05Z</time>
      </trkpt>
      <trkpt lat="48.82782" lon="1.38318">
        <ele>135.68</ele>
        <time>2015-05-14T06:58:16Z</time>
      </trkpt>
      <trkpt lat="48.82804" lon="1.38312">
        <ele>135.68</ele>
        <time>2015-05-14T06:58:30Z</time>
      </trkpt>
      <trkpt lat="48.82821" lon="1.38308">
        <ele>135.68</ele>
        <time>2015-05-14T06:58:42Z</time>
      </trkpt>
      <trkpt lat="48.82835" lon="1.38303">
        <ele>135.68</ele>
        <time>2015-05-14T06:58:53Z</time>
      </trkpt>
      <trkpt lat="48.82853" lon="1.38295">
        <ele>135.68</ele>
        <time>2015-05-14T06:59:05Z</time>
      </trkpt>
      <trkpt lat="48.82869" lon="1.38285">
        <ele>134.72</ele>
        <time>2015-05-14T06:59:16Z</time>
      </trkpt>
      <trkpt lat="48.82888" lon="1.38276">
        <ele>134.72</ele>
        <time>2015-05-14T06:59:29Z</time>
      </trkpt>
      <trkpt lat="48.82897" lon="1.38276">
        <ele>135.68</ele>
        <time>2015-05-14T06:59:35Z</time>
      </trkpt>
      <trkpt lat="48.82913" lon="1.38284">
        <ele>135.68</ele>
        <time>2015-05-14T06:59:46Z</time>
      </trkpt>
      <trkpt lat="48.8293" lon="1.38301">
        <ele>136.16</ele>
        <time>2015-05-14T06:59:59Z</time>
      </trkpt>
      <trkpt lat="48.82949" lon="1.38311">
        <ele>134.72</ele>
        <time>2015-05-14T07:00:11Z</time>
      </trkpt>
      <trkpt lat="48.82962" lon="1.38312">
        <ele>134.72</ele>
        <time>2015-05-14T07:00:20Z</time>
      </trkpt>
      <trkpt lat="48.82982" lon="1.38302">
        <ele>134.72</ele>
        <time>2015-05-14T07:00:33Z</time>
      </trkpt>
      <trkpt lat="48.82999" lon="1.38289">
        <ele>134.72</ele>
        <time>2015-05-14T07:00:46Z</time>
      </trkpt>
      <trkpt lat="48.83018" lon="1.38275">
        <ele>134.72</ele>
        <time>2015-05-14T07:00:59Z</time>
      </trkpt>
      <trkpt lat="48.8303" lon="1.38268">
        <ele>134.24</ele>
        <time>2015-05-14T07:01:08Z</time>
      </trkpt>
      <trkpt lat="48.83047" lon="1.38259">
        <ele>134.24</ele>
        <time>2015-05-14T07:01:20Z</time>
      </trkpt>
      <trkpt lat="48.83062" lon="1.38245">
        <ele>133.28</ele>
        <time>2015-05-14T07:01:31Z</time>
      </trkpt>
      <trkpt lat="48.83072" lon="1.38229">
        <ele>132.32</ele>
        <time>2015-05-14T07:01:41Z</time>
      </trkpt>
      <trkpt lat="48.83074" lon="1.38224">
        <ele>131.84</ele>
        <time>2015-05-14T07:01:44Z</time>
      </trkpt>
      <trkpt lat="48.83071" lon="1.38211">
        <ele>131.84</ele>
        <time>2015-05-14T07:01:49Z</time>
      </trkpt>
      <trkpt lat="48.83059" lon="1.3819">
        <ele>131.84</ele>
        <time>2015-05-14T07:02:01Z</time>
      </trkpt>
      <trkpt lat="48.83048" lon="1.3817">
        <ele>131.84</ele>
        <time>2015-05-14T07:02:11Z</time>
      </trkpt>
      <trkpt lat="48.83035" lon="1.38147">
        <ele>131.84</ele>
        <time>2015-05-14T07:02:24Z</time>
      </trkpt>
      <trkpt lat="48.83024" lon="1.38123">
        <ele>131.84</ele>
        <time>2015-05-14T07:02:37Z</time>
      </trkpt>
      <trkpt lat="48.83016" lon="1.38103">
        <ele>131.36</ele>
        <time>2015-05-14T07:02:47Z</time>
      </trkpt>
      <trkpt lat="48.8301" lon="1.38095">
        <ele>131.36</ele>
        <time>2015-05-14T07:02:52Z</time>
      </trkpt>
      <trkpt lat="48.82999" lon="1.38067">
        <ele>130.4</ele>
        <time>2015-05-14T07:03:06Z</time>
      </trkpt>
      <trkpt lat="48.82998" lon="1.38046">
        <ele>129.92</ele>
        <time>2015-05-14T07:03:16Z</time>
      </trkpt>
      <trkpt lat="48.82995" lon="1.38022">
        <ele>129.43</ele>
        <time>2015-05-14T07:03:28Z</time>
      </trkpt>
      <trkpt lat="48.82997" lon="1.38008">
        <ele>129.43</ele>
        <time>2015-05-14T07:03:36Z</time>
      </trkpt>
      <trkpt lat="48.82998" lon="1.37997">
        <ele>128.95</ele>
        <time>2015-05-14T07:03:42Z</time>
      </trkpt>
      <trkpt lat="48.82999" lon="1.37989">
        <ele>128.47</ele>
        <time>2015-05-14T07:03:46Z</time>
      </trkpt>
      <trkpt lat="48.83" lon="1.3798">
        <ele>128.47</ele>
        <time>2015-05-14T07:03:50Z</time>
      </trkpt>
      <trkpt lat="48.83002" lon="1.37964">
        <ele>129.43</ele>
        <time>2015-05-14T07:03:57Z</time>
      </trkpt>
      <trkpt lat="48.83006" lon="1.37946">
        <ele>129.43</ele>
        <time>2015-05-14T07:04:06Z</time>
      </trkpt>
      <trkpt lat="48.83012" lon="1.37923">
        <ele>129.92</ele>
        <time>2015-05-14T07:04:16Z</time>
      </trkpt>
      <trkpt lat="48.83016" lon="1.37903">
        <ele>129.92</ele>
        <time>2015-05-14T07:04:24Z</time>
      </trkpt>
      <trkpt lat="48.83015" lon="1.37882">
        <ele>130.4</ele>
        <time>2015-05-14T07:04:33Z</time>
      </trkpt>
      <trkpt lat="48.83011" lon="1.3786">
        <ele>130.4</ele>
        <time>2015-05-14T07:04:42Z</time>
      </trkpt>
      <trkpt lat="48.83007" lon="1.37839">
        <ele>130.88</ele>
        <time>2015-05-14T07:04:51Z</time>
      </trkpt>
      <trkpt lat="48.83002" lon="1.37811">
        <ele>131.36</ele>
        <time>2015-05-14T07:05:03Z</time>
      </trkpt>
      <trkpt lat="48.83001" lon="1.37791">
        <ele>131.36</ele>
        <time>2015-05-14T07:05:12Z</time>
      </trkpt>
      <trkpt lat="48.82998" lon="1.3777">
        <ele>131.84</ele>
        <time>2015-05-14T07:05:22Z</time>
      </trkpt>
      <trkpt lat="48.82994" lon="1.37746">
        <ele>131.84</ele>
        <time>2015-05-14T07:05:33Z</time>
      </trkpt>
      <trkpt lat="48.82991" lon="1.37727">
        <ele>131.84</ele>
        <time>2015-05-14T07:05:42Z</time>
      </trkpt>
      <trkpt lat="48.82987" lon="1.37706">
        <ele>131.84</ele>
        <time>2015-05-14T07:05:52Z</time>
      </trkpt>
      <trkpt lat="48.82984" lon="1.37684">
        <ele>131.84</ele>
        <time>2015-05-14T07:06:02Z</time>
      </trkpt>
      <trkpt lat="48.8298" lon="1.37662">
        <ele>132.8</ele>
        <time>2015-05-14T07:06:12Z</time>
      </trkpt>
      <trkpt lat="48.82977" lon="1.37638">
        <ele>132.8</ele>
        <time>2015-05-14T07:06:23Z</time>
      </trkpt>
      <trkpt lat="48.82975" lon="1.37618">
        <ele>132.8</ele>
        <time>2015-05-14T07:06:32Z</time>
      </trkpt>
      <trkpt lat="48.8297" lon="1.37594">
        <ele>133.28</ele>
        <time>2015-05-14T07:06:43Z</time>
      </trkpt>
      <trkpt lat="48.82966" lon="1.37568">
        <ele>133.28</ele>
        <time>2015-05-14T07:06:55Z</time>
      </trkpt>
      <trkpt lat="48.82964" lon="1.37549">
        <ele>133.76</ele>
        <time>2015-05-14T07:07:04Z</time>
      </trkpt>
      <trkpt lat="48.8296" lon="1.37528">
        <ele>133.76</ele>
        <time>2015-05-14T07:07:14Z</time>
      </trkpt>
      <trkpt lat="48.82956" lon="1.37506">
        <ele>133.76</ele>
        <time>2015-05-14T07:07:24Z</time>
      </trkpt>
      <trkpt lat="48.82954" lon="1.37484">
        <ele>133.76</ele>
        <time>2015-05-14T07:07:34Z</time>
      </trkpt>
      <trkpt lat="48.82951" lon="1.37465">
        <ele>133.76</ele>
        <time>2015-05-14T07:07:42Z</time>
      </trkpt>
      <trkpt lat="48.82947" lon="1.37443">
        <ele>133.76</ele>
        <time>2015-05-14T07:07:52Z</time>
      </trkpt>
      <trkpt lat="48.82944" lon="1.37423">
        <ele>133.76</ele>
        <time>2015-05-14T07:08:01Z</time>
      </trkpt>
      <trkpt lat="48.82942" lon="1.37406">
        <ele>133.76</ele>
        <time>2015-05-14T07:08:09Z</time>
      </trkpt>
      <trkpt lat="48.8294" lon="1.37385">
        <ele>134.24</ele>
        <time>2015-05-14T07:08:20Z</time>
      </trkpt>
      <trkpt lat="48.82938" lon="1.37365">
        <ele>134.24</ele>
        <time>2015-05-14T07:08:29Z</time>
      </trkpt>
      <trkpt lat="48.82938" lon="1.37362">
        <ele>134.24</ele>
        <time>2015-05-14T07:08:30Z</time>
      </trkpt>
      <trkpt lat="48.82939" lon="1.37345">
        <ele>134.24</ele>
        <time>2015-05-14T07:08:39Z</time>
      </trkpt>
      <trkpt lat="48.82937" lon="1.37326">
        <ele>134.24</ele>
        <time>2015-05-14T07:08:48Z</time>
      </trkpt>
      <trkpt lat="48.82934" lon="1.37307">
        <ele>134.24</ele>
        <time>2015-05-14T07:08:57Z</time>
      </trkpt>
      <trkpt lat="48.82931" lon="1.37288">
        <ele>134.24</ele>
        <time>2015-05-14T07:09:05Z</time>
      </trkpt>
      <trkpt lat="48.8293" lon="1.37284">
        <ele>134.24</ele>
        <time>2015-05-14T07:09:07Z</time>
      </trkpt>
      <trkpt lat="48.82927" lon="1.37263">
        <ele>134.24</ele>
        <time>2015-05-14T07:09:17Z</time>
      </trkpt>
      <trkpt lat="48.82923" lon="1.37244">
        <ele>134.24</ele>
        <time>2015-05-14T07:09:25Z</time>
      </trkpt>
      <trkpt lat="48.82921" lon="1.37223">
        <ele>134.24</ele>
        <time>2015-05-14T07:09:34Z</time>
      </trkpt>
      <trkpt lat="48.82921" lon="1.37218">
        <ele>134.24</ele>
        <time>2015-05-14T07:09:36Z</time>
      </trkpt>
      <trkpt lat="48.8292" lon="1.372">
        <ele>133.76</ele>
        <time>2015-05-14T07:09:43Z</time>
      </trkpt>
      <trkpt lat="48.82916" lon="1.37179">
        <ele>133.76</ele>
        <time>2015-05-14T07:09:52Z</time>
      </trkpt>
      <trkpt lat="48.82911" lon="1.37161">
        <ele>133.76</ele>
        <time>2015-05-14T07:10:01Z</time>
      </trkpt>
      <trkpt lat="48.82908" lon="1.37144">
        <ele>133.76</ele>
        <time>2015-05-14T07:10:09Z</time>
      </trkpt>
      <trkpt lat="48.82904" lon="1.37121">
        <ele>133.76</ele>
        <time>2015-05-14T07:10:20Z</time>
      </trkpt>
      <trkpt lat="48.829" lon="1.37101">
        <ele>133.76</ele>
        <time>2015-05-14T07:10:29Z</time>
      </trkpt>
      <trkpt lat="48.829" lon="1.37097">
        <ele>133.76</ele>
        <time>2015-05-14T07:10:31Z</time>
      </trkpt>
      <trkpt lat="48.82899" lon="1.37088">
        <ele>133.76</ele>
        <time>2015-05-14T07:10:35Z</time>
      </trkpt>
      <trkpt lat="48.82898" lon="1.37084">
        <ele>132.32</ele>
        <time>2015-05-14T07:10:37Z</time>
      </trkpt>
      <trkpt lat="48.82896" lon="1.3707">
        <ele>132.32</ele>
        <time>2015-05-14T07:10:44Z</time>
      </trkpt>
      <trkpt lat="48.82897" lon="1.37062">
        <ele>132.32</ele>
        <time>2015-05-14T07:10:48Z</time>
      </trkpt>
      <trkpt lat="48.82897" lon="1.37058">
        <ele>132.32</ele>
        <time>2015-05-14T07:10:50Z</time>
      </trkpt>
      <trkpt lat="48.82897" lon="1.37038">
        <ele>132.32</ele>
        <time>2015-05-14T07:10:59Z</time>
      </trkpt>
      <trkpt lat="48.82891" lon="1.37013">
        <ele>131.84</ele>
        <time>2015-05-14T07:11:10Z</time>
      </trkpt>
      <trkpt lat="48.82886" lon="1.36986">
        <ele>131.84</ele>
        <time>2015-05-14T07:11:22Z</time>
      </trkpt>
      <trkpt lat="48.82885" lon="1.36967">
        <ele>131.84</ele>
        <time>2015-05-14T07:11:31Z</time>
      </trkpt>
      <trkpt lat="48.8288" lon="1.36966">
        <ele>131.36</ele>
        <time>2015-05-14T07:11:37Z</time>
      </trkpt>
      <trkpt lat="48.82876" lon="1.36967">
        <ele>131.36</ele>
        <time>2015-05-14T07:11:52Z</time>
      </trkpt>
      <trkpt lat="48.82876" lon="1.36965">
        <ele>132.8</ele>
        <time>2015-05-14T07:12:01Z</time>
      </trkpt>
      <trkpt lat="48.82874" lon="1.36945">
        <ele>132.8</ele>
        <time>2015-05-14T07:12:10Z</time>
      </trkpt>
      <trkpt lat="48.82873" lon="1.36941">
        <ele>132.8</ele>
        <time>2015-05-14T07:12:12Z</time>
      </trkpt>
      <trkpt lat="48.82871" lon="1.36933">
        <ele>132.8</ele>
        <time>2015-05-14T07:12:20Z</time>
      </trkpt>
      <trkpt lat="48.82869" lon="1.36924">
        <ele>132.8</ele>
        <time>2015-05-14T07:12:32Z</time>
      </trkpt>
      <trkpt lat="48.82871" lon="1.3692">
        <ele>132.8</ele>
        <time>2015-05-14T07:12:39Z</time>
      </trkpt>
      <trkpt lat="48.82871" lon="1.36919">
        <ele>132.8</ele>
        <time>2015-05-14T07:12:40Z</time>
      </trkpt>
      <trkpt lat="48.82871" lon="1.36897">
        <ele>132.8</ele>
        <time>2015-05-14T07:12:51Z</time>
      </trkpt>
      <trkpt lat="48.82868" lon="1.36879">
        <ele>132.8</ele>
        <time>2015-05-14T07:13:00Z</time>
      </trkpt>
      <trkpt lat="48.82867" lon="1.36862">
        <ele>132.8</ele>
        <time>2015-05-14T07:13:08Z</time>
      </trkpt>
      <trkpt lat="48.82863" lon="1.36842">
        <ele>132.8</ele>
        <time>2015-05-14T07:13:18Z</time>
      </trkpt>
      <trkpt lat="48.8286" lon="1.36821">
        <ele>132.8</ele>
        <time>2015-05-14T07:13:28Z</time>
      </trkpt>
      <trkpt lat="48.8286" lon="1.36808">
        <ele>132.8</ele>
        <time>2015-05-14T07:13:33Z</time>
      </trkpt>
      <trkpt lat="48.82856" lon="1.3678">
        <ele>132.8</ele>
        <time>2015-05-14T07:13:45Z</time>
      </trkpt>
      <trkpt lat="48.82853" lon="1.36759">
        <ele>132.8</ele>
        <time>2015-05-14T07:13:54Z</time>
      </trkpt>
      <trkpt lat="48.82849" lon="1.36737">
        <ele>132.8</ele>
        <time>2015-05-14T07:14:04Z</time>
      </trkpt>
      <trkpt lat="48.82846" lon="1.36714">
        <ele>132.8</ele>
        <time>2015-05-14T07:14:13Z</time>
      </trkpt>
      <trkpt lat="48.82841" lon="1.36688">
        <ele>132.8</ele>
        <time>2015-05-14T07:14:24Z</time>
      </trkpt>
      <trkpt lat="48.82836" lon="1.36667">
        <ele>132.8</ele>
        <time>2015-05-14T07:14:34Z</time>
      </trkpt>
      <trkpt lat="48.82832" lon="1.36651">
        <ele>132.8</ele>
        <time>2015-05-14T07:14:42Z</time>
      </trkpt>
      <trkpt lat="48.8283" lon="1.36634">
        <ele>132.8</ele>
        <time>2015-05-14T07:14:50Z</time>
      </trkpt>
      <trkpt lat="48.82828" lon="1.36615">
        <ele>132.8</ele>
        <time>2015-05-14T07:14:58Z</time>
      </trkpt>
      <trkpt lat="48.82828" lon="1.36606">
        <ele>132.8</ele>
        <time>2015-05-14T07:15:02Z</time>
      </trkpt>
      <trkpt lat="48.82826" lon="1.36583">
        <ele>132.8</ele>
        <time>2015-05-14T07:15:12Z</time>
      </trkpt>
      <trkpt lat="48.82822" lon="1.36564">
        <ele>132.8</ele>
        <time>2015-05-14T07:15:20Z</time>
      </trkpt>
      <trkpt lat="48.82819" lon="1.36547">
        <ele>132.8</ele>
        <time>2015-05-14T07:15:29Z</time>
      </trkpt>
      <trkpt lat="48.82819" lon="1.36534">
        <ele>132.8</ele>
        <time>2015-05-14T07:15:34Z</time>
      </trkpt>
      <trkpt lat="48.82816" lon="1.36512">
        <ele>132.8</ele>
        <time>2015-05-14T07:15:44Z</time>
      </trkpt>
      <trkpt lat="48.82816" lon="1.36509">
        <ele>132.8</ele>
        <time>2015-05-14T07:15:45Z</time>
      </trkpt>
      <trkpt lat="48.82815" lon="1.36494">
        <ele>132.8</ele>
        <time>2015-05-14T07:15:52Z</time>
      </trkpt>
      <trkpt lat="48.82809" lon="1.36468">
        <ele>133.28</ele>
        <time>2015-05-14T07:16:04Z</time>
      </trkpt>
      <trkpt lat="48.82809" lon="1.36448">
        <ele>133.28</ele>
        <time>2015-05-14T07:16:14Z</time>
      </trkpt>
      <trkpt lat="48.82805" lon="1.36421">
        <ele>133.76</ele>
        <time>2015-05-14T07:16:25Z</time>
      </trkpt>
      <trkpt lat="48.828" lon="1.36395">
        <ele>133.76</ele>
        <time>2015-05-14T07:16:36Z</time>
      </trkpt>
      <trkpt lat="48.82798" lon="1.36372">
        <ele>133.76</ele>
        <time>2015-05-14T07:16:46Z</time>
      </trkpt>
      <trkpt lat="48.82794" lon="1.3635">
        <ele>133.76</ele>
        <time>2015-05-14T07:16:56Z</time>
      </trkpt>
      <trkpt lat="48.82794" lon="1.36343">
        <ele>133.76</ele>
        <time>2015-05-14T07:16:59Z</time>
      </trkpt>
      <trkpt lat="48.8279" lon="1.36314">
        <ele>133.76</ele>
        <time>2015-05-14T07:17:12Z</time>
      </trkpt>
      <trkpt lat="48.82786" lon="1.3629">
        <ele>133.76</ele>
        <time>2015-05-14T07:17:22Z</time>
      </trkpt>
      <trkpt lat="48.82783" lon="1.36271">
        <ele>132.8</ele>
        <time>2015-05-14T07:17:31Z</time>
      </trkpt>
      <trkpt lat="48.82778" lon="1.36251">
        <ele>132.8</ele>
        <time>2015-05-14T07:17:41Z</time>
      </trkpt>
      <trkpt lat="48.82774" lon="1.36237">
        <ele>132.8</ele>
        <time>2015-05-14T07:17:48Z</time>
      </trkpt>
      <trkpt lat="48.82768" lon="1.36239">
        <ele>132.32</ele>
        <time>2015-05-14T07:17:54Z</time>
      </trkpt>
      <trkpt lat="48.82756" lon="1.36235">
        <ele>132.32</ele>
        <time>2015-05-14T07:18:05Z</time>
      </trkpt>
      <trkpt lat="48.82747" lon="1.3623">
        <ele>131.36</ele>
        <time>2015-05-14T07:18:14Z</time>
      </trkpt>
      <trkpt lat="48.82735" lon="1.36229">
        <ele>132.32</ele>
        <time>2015-05-14T07:18:24Z</time>
      </trkpt>
      <trkpt lat="48.82723" lon="1.36228">
        <ele>133.76</ele>
        <time>2015-05-14T07:18:34Z</time>
      </trkpt>
      <trkpt lat="48.82711" lon="1.36226">
        <ele>133.28</ele>
        <time>2015-05-14T07:18:43Z</time>
      </trkpt>
      <trkpt lat="48.82697" lon="1.36225">
        <ele>133.28</ele>
        <time>2015-05-14T07:18:53Z</time>
      </trkpt>
      <trkpt lat="48.82684" lon="1.36222">
        <ele>133.28</ele>
        <time>2015-05-14T07:19:03Z</time>
      </trkpt>
      <trkpt lat="48.8267" lon="1.36221">
        <ele>133.28</ele>
        <time>2015-05-14T07:19:12Z</time>
      </trkpt>
      <trkpt lat="48.8266" lon="1.3622">
        <ele>133.28</ele>
        <time>2015-05-14T07:19:20Z</time>
      </trkpt>
      <trkpt lat="48.82645" lon="1.3622">
        <ele>133.28</ele>
        <time>2015-05-14T07:19:29Z</time>
      </trkpt>
      <trkpt lat="48.82631" lon="1.36218">
        <ele>133.28</ele>
        <time>2015-05-14T07:19:38Z</time>
      </trkpt>
      <trkpt lat="48.82617" lon="1.3622">
        <ele>133.28</ele>
        <time>2015-05-14T07:19:49Z</time>
      </trkpt>
      <trkpt lat="48.82606" lon="1.36221">
        <ele>133.28</ele>
        <time>2015-05-14T07:19:58Z</time>
      </trkpt>
      <trkpt lat="48.82595" lon="1.36217">
        <ele>132.8</ele>
        <time>2015-05-14T07:20:07Z</time>
      </trkpt>
      <trkpt lat="48.82582" lon="1.36213">
        <ele>131.36</ele>
        <time>2015-05-14T07:20:16Z</time>
      </trkpt>
      <trkpt lat="48.8258" lon="1.36213">
        <ele>131.36</ele>
        <time>2015-05-14T07:20:17Z</time>
      </trkpt>
      <trkpt lat="48.82574" lon="1.36212">
        <ele>131.36</ele>
        <time>2015-05-14T07:20:20Z</time>
      </trkpt>
      <trkpt lat="48.8256" lon="1.36211">
        <ele>130.88</ele>
        <time>2015-05-14T07:20:29Z</time>
      </trkpt>
      <trkpt lat="48.82551" lon="1.36215">
        <ele>130.88</ele>
        <time>2015-05-14T07:20:38Z</time>
      </trkpt>
      <trkpt lat="48.82541" lon="1.36219">
        <ele>130.88</ele>
        <time>2015-05-14T07:20:46Z</time>
      </trkpt>
      <trkpt lat="48.82537" lon="1.36221">
        <ele>132.8</ele>
        <time>2015-05-14T07:20:50Z</time>
      </trkpt>
      <trkpt lat="48.82534" lon="1.36222">
        <ele>128.47</ele>
        <time>2015-05-14T07:20:52Z</time>
      </trkpt>
      <trkpt lat="48.82532" lon="1.36221">
        <ele>134.72</ele>
        <time>2015-05-14T07:20:53Z</time>
      </trkpt>
      <trkpt lat="48.82531" lon="1.3622">
        <ele>131.36</ele>
        <time>2015-05-14T07:20:54Z</time>
      </trkpt>
      <trkpt lat="48.82517" lon="1.36216">
        <ele>131.36</ele>
        <time>2015-05-14T07:21:03Z</time>
      </trkpt>
      <trkpt lat="48.825" lon="1.36216">
        <ele>131.36</ele>
        <time>2015-05-14T07:21:14Z</time>
      </trkpt>
      <trkpt lat="48.82487" lon="1.36215">
        <ele>131.36</ele>
        <time>2015-05-14T07:21:22Z</time>
      </trkpt>
      <trkpt lat="48.82484" lon="1.36213">
        <ele>131.36</ele>
        <time>2015-05-14T07:21:29Z</time>
      </trkpt>
      <trkpt lat="48.82489" lon="1.36219">
        <ele>132.32</ele>
        <time>2015-05-14T07:21:38Z</time>
      </trkpt>
      <trkpt lat="48.82491" lon="1.36231">
        <ele>132.32</ele>
        <time>2015-05-14T07:21:46Z</time>
      </trkpt>
      <trkpt lat="48.82491" lon="1.36238">
        <ele>132.32</ele>
        <time>2015-05-14T07:21:50Z</time>
      </trkpt>
      <trkpt lat="48.82489" lon="1.36264">
        <ele>132.32</ele>
        <time>2015-05-14T07:22:01Z</time>
      </trkpt>
      <trkpt lat="48.82491" lon="1.36284">
        <ele>132.32</ele>
        <time>2015-05-14T07:22:10Z</time>
      </trkpt>
      <trkpt lat="48.82489" lon="1.36306">
        <ele>131.84</ele>
        <time>2015-05-14T07:22:20Z</time>
      </trkpt>
      <trkpt lat="48.82488" lon="1.36324">
        <ele>131.84</ele>
        <time>2015-05-14T07:22:28Z</time>
      </trkpt>
      <trkpt lat="48.82487" lon="1.36329">
        <ele>131.84</ele>
        <time>2015-05-14T07:22:35Z</time>
      </trkpt>
      <trkpt lat="48.82484" lon="1.36333">
        <ele>131.84</ele>
        <time>2015-05-14T07:22:45Z</time>
      </trkpt>
      <trkpt lat="48.82483" lon="1.36343">
        <ele>131.84</ele>
        <time>2015-05-14T07:22:53Z</time>
      </trkpt>
      <trkpt lat="48.82486" lon="1.36365">
        <ele>131.84</ele>
        <time>2015-05-14T07:23:03Z</time>
      </trkpt>
      <trkpt lat="48.82485" lon="1.36381">
        <ele>131.84</ele>
        <time>2015-05-14T07:23:12Z</time>
      </trkpt>
      <trkpt lat="48.82485" lon="1.36386">
        <ele>131.84</ele>
        <time>2015-05-14T07:23:27Z</time>
      </trkpt>
      <trkpt lat="48.82485" lon="1.364">
        <ele>131.84</ele>
        <time>2015-05-14T07:23:35Z</time>
      </trkpt>
      <trkpt lat="48.82485" lon="1.36407">
        <ele>130.88</ele>
        <time>2015-05-14T07:23:39Z</time>
      </trkpt>
      <trkpt lat="48.82487" lon="1.36415">
        <ele>130.4</ele>
        <time>2015-05-14T07:23:44Z</time>
      </trkpt>
      <trkpt lat="48.82489" lon="1.36445">
        <ele>130.88</ele>
        <time>2015-05-14T07:23:56Z</time>
      </trkpt>
      <trkpt lat="48.8249" lon="1.36472">
        <ele>130.88</ele>
        <time>2015-05-14T07:24:07Z</time>
      </trkpt>
      <trkpt lat="48.82489" lon="1.36497">
        <ele>130.88</ele>
        <time>2015-05-14T07:24:17Z</time>
      </trkpt>
      <trkpt lat="48.8249" lon="1.36515">
        <ele>130.88</ele>
        <time>2015-05-14T07:24:26Z</time>
      </trkpt>
      <trkpt lat="48.8249" lon="1.36516">
        <ele>130.88</ele>
        <time>2015-05-14T07:24:27Z</time>
      </trkpt>
      <trkpt lat="48.82491" lon="1.36536">
        <ele>130.88</ele>
        <time>2015-05-14T07:24:37Z</time>
      </trkpt>
      <trkpt lat="48.8249" lon="1.36556">
        <ele>130.88</ele>
        <time>2015-05-14T07:24:45Z</time>
      </trkpt>
      <trkpt lat="48.82491" lon="1.3658">
        <ele>130.4</ele>
        <time>2015-05-14T07:24:55Z</time>
      </trkpt>
      <trkpt lat="48.8249" lon="1.36603">
        <ele>129.92</ele>
        <time>2015-05-14T07:25:05Z</time>
      </trkpt>
      <trkpt lat="48.8249" lon="1.36625">
        <ele>129.92</ele>
        <time>2015-05-14T07:25:14Z</time>
      </trkpt>
      <trkpt lat="48.8249" lon="1.36653">
        <ele>129.92</ele>
        <time>2015-05-14T07:25:24Z</time>
      </trkpt>
      <trkpt lat="48.82488" lon="1.36676">
        <ele>129.92</ele>
        <time>2015-05-14T07:25:34Z</time>
      </trkpt>
      <trkpt lat="48.82485" lon="1.36698">
        <ele>129.92</ele>
        <time>2015-05-14T07:25:44Z</time>
      </trkpt>
      <trkpt lat="48.82486" lon="1.36715">
        <ele>129.92</ele>
        <time>2015-05-14T07:25:53Z</time>
      </trkpt>
      <trkpt lat="48.82485" lon="1.36737">
        <ele>129.43</ele>
        <time>2015-05-14T07:26:02Z</time>
      </trkpt>
      <trkpt lat="48.82485" lon="1.36759">
        <ele>129.43</ele>
        <time>2015-05-14T07:26:11Z</time>
      </trkpt>
      <trkpt lat="48.82486" lon="1.36781">
        <ele>129.43</ele>
        <time>2015-05-14T07:26:20Z</time>
      </trkpt>
      <trkpt lat="48.82488" lon="1.36806">
        <ele>128.95</ele>
        <time>2015-05-14T07:26:30Z</time>
      </trkpt>
      <trkpt lat="48.82489" lon="1.36828">
        <ele>128.95</ele>
        <time>2015-05-14T07:26:41Z</time>
      </trkpt>
      <trkpt lat="48.82488" lon="1.36847">
        <ele>128.47</ele>
        <time>2015-05-14T07:26:50Z</time>
      </trkpt>
      <trkpt lat="48.82487" lon="1.36867">
        <ele>128.47</ele>
        <time>2015-05-14T07:26:58Z</time>
      </trkpt>
      <trkpt lat="48.82487" lon="1.36889">
        <ele>128.47</ele>
        <time>2015-05-14T07:27:08Z</time>
      </trkpt>
      <trkpt lat="48.82487" lon="1.36913">
        <ele>129.43</ele>
        <time>2015-05-14T07:27:19Z</time>
      </trkpt>
      <trkpt lat="48.82487" lon="1.36914">
        <ele>129.43</ele>
        <time>2015-05-14T07:27:20Z</time>
      </trkpt>
      <trkpt lat="48.82486" lon="1.36938">
        <ele>129.43</ele>
        <time>2015-05-14T07:27:30Z</time>
      </trkpt>
      <trkpt lat="48.82487" lon="1.36958">
        <ele>129.43</ele>
        <time>2015-05-14T07:27:40Z</time>
      </trkpt>
      <trkpt lat="48.82488" lon="1.36976">
        <ele>129.43</ele>
        <time>2015-05-14T07:27:49Z</time>
      </trkpt>
      <trkpt lat="48.82486" lon="1.36996">
        <ele>129.43</ele>
        <time>2015-05-14T07:27:58Z</time>
      </trkpt>
      <trkpt lat="48.8248" lon="1.37005">
        <ele>129.43</ele>
        <time>2015-05-14T07:28:06Z</time>
      </trkpt>
      <trkpt lat="48.82472" lon="1.37007">
        <ele>127.99</ele>
        <time>2015-05-14T07:28:14Z</time>
      </trkpt>
      <trkpt lat="48.82468" lon="1.37007">
        <ele>127.99</ele>
        <time>2015-05-14T07:28:18Z</time>
      </trkpt>
      <trkpt lat="48.82448" lon="1.37004">
        <ele>127.03</ele>
        <time>2015-05-14T07:28:29Z</time>
      </trkpt>
      <trkpt lat="48.82435" lon="1.37005">
        <ele>126.55</ele>
        <time>2015-05-14T07:28:39Z</time>
      </trkpt>
      <trkpt lat="48.82423" lon="1.37006">
        <ele>126.55</ele>
        <time>2015-05-14T07:28:48Z</time>
      </trkpt>
      <trkpt lat="48.82409" lon="1.37008">
        <ele>126.07</ele>
        <time>2015-05-14T07:28:58Z</time>
      </trkpt>
      <trkpt lat="48.82394" lon="1.3701">
        <ele>126.07</ele>
        <time>2015-05-14T07:29:09Z</time>
      </trkpt>
      <trkpt lat="48.82383" lon="1.37009">
        <ele>125.59</ele>
        <time>2015-05-14T07:29:17Z</time>
      </trkpt>
      <trkpt lat="48.82367" lon="1.37009">
        <ele>125.11</ele>
        <time>2015-05-14T07:29:28Z</time>
      </trkpt>
      <trkpt lat="48.82356" lon="1.3701">
        <ele>124.63</ele>
        <time>2015-05-14T07:29:38Z</time>
      </trkpt>
      <trkpt lat="48.82344" lon="1.37013">
        <ele>123.67</ele>
        <time>2015-05-14T07:29:47Z</time>
      </trkpt>
      <trkpt lat="48.82333" lon="1.37014">
        <ele>124.63</ele>
        <time>2015-05-14T07:29:55Z</time>
      </trkpt>
      <trkpt lat="48.82321" lon="1.37017">
        <ele>126.07</ele>
        <time>2015-05-14T07:30:04Z</time>
      </trkpt>
      <trkpt lat="48.82318" lon="1.37017">
        <ele>126.07</ele>
        <time>2015-05-14T07:30:06Z</time>
      </trkpt>
      <trkpt lat="48.82304" lon="1.37017">
        <ele>126.55</ele>
        <time>2015-05-14T07:30:17Z</time>
      </trkpt>
      <trkpt lat="48.82302" lon="1.37017">
        <ele>126.07</ele>
        <time>2015-05-14T07:30:18Z</time>
      </trkpt>
      <trkpt lat="48.82283" lon="1.37018">
        <ele>127.03</ele>
        <time>2015-05-14T07:30:28Z</time>
      </trkpt>
      <trkpt lat="48.82265" lon="1.37017">
        <ele>127.03</ele>
        <time>2015-05-14T07:30:37Z</time>
      </trkpt>
      <trkpt lat="48.82252" lon="1.37018">
        <ele>127.03</ele>
        <time>2015-05-14T07:30:47Z</time>
      </trkpt>
      <trkpt lat="48.82241" lon="1.37022">
        <ele>127.03</ele>
        <time>2015-05-14T07:30:57Z</time>
      </trkpt>
      <trkpt lat="48.82228" lon="1.37022">
        <ele>127.03</ele>
        <time>2015-05-14T07:31:05Z</time>
      </trkpt>
      <trkpt lat="48.82215" lon="1.37026">
        <ele>127.03</ele>
        <time>2015-05-14T07:31:15Z</time>
      </trkpt>
      <trkpt lat="48.822" lon="1.37026">
        <ele>127.51</ele>
        <time>2015-05-14T07:31:26Z</time>
      </trkpt>
      <trkpt lat="48.82198" lon="1.37027">
        <ele>127.51</ele>
        <time>2015-05-14T07:31:27Z</time>
      </trkpt>
      <trkpt lat="48.8218" lon="1.37029">
        <ele>127.51</ele>
        <time>2015-05-14T07:31:39Z</time>
      </trkpt>
      <trkpt lat="48.82159" lon="1.37029">
        <ele>127.51</ele>
        <time>2015-05-14T07:31:50Z</time>
      </trkpt>
      <trkpt lat="48.82146" lon="1.37029">
        <ele>127.51</ele>
        <time>2015-05-14T07:31:59Z</time>
      </trkpt>
      <trkpt lat="48.82131" lon="1.37031">
        <ele>127.51</ele>
        <time>2015-05-14T07:32:09Z</time>
      </trkpt>
      <trkpt lat="48.82117" lon="1.37034">
        <ele>127.51</ele>
        <time>2015-05-14T07:32:19Z</time>
      </trkpt>
      <trkpt lat="48.82104" lon="1.37037">
        <ele>127.51</ele>
        <time>2015-05-14T07:32:29Z</time>
      </trkpt>
      <trkpt lat="48.82091" lon="1.3704">
        <ele>127.99</ele>
        <time>2015-05-14T07:32:37Z</time>
      </trkpt>
      <trkpt lat="48.82081" lon="1.37041">
        <ele>127.99</ele>
        <time>2015-05-14T07:32:44Z</time>
      </trkpt>
      <trkpt lat="48.82071" lon="1.37042">
        <ele>127.99</ele>
        <time>2015-05-14T07:32:52Z</time>
      </trkpt>
      <trkpt lat="48.82057" lon="1.37041">
        <ele>127.99</ele>
        <time>2015-05-14T07:33:01Z</time>
      </trkpt>
      <trkpt lat="48.82043" lon="1.37044">
        <ele>127.99</ele>
        <time>2015-05-14T07:33:10Z</time>
      </trkpt>
      <trkpt lat="48.82031" lon="1.37047">
        <ele>127.99</ele>
        <time>2015-05-14T07:33:19Z</time>
      </trkpt>
      <trkpt lat="48.82016" lon="1.37049">
        <ele>127.99</ele>
        <time>2015-05-14T07:33:31Z</time>
      </trkpt>
      <trkpt lat="48.82001" lon="1.37049">
        <ele>128.47</ele>
        <time>2015-05-14T07:33:41Z</time>
      </trkpt>
      <trkpt lat="48.81988" lon="1.37051">
        <ele>128.47</ele>
        <time>2015-05-14T07:33:49Z</time>
      </trkpt>
      <trkpt lat="48.81977" lon="1.37051">
        <ele>128.95</ele>
        <time>2015-05-14T07:33:57Z</time>
      </trkpt>
      <trkpt lat="48.81963" lon="1.37052">
        <ele>129.43</ele>
        <time>2015-05-14T07:34:09Z</time>
      </trkpt>
      <trkpt lat="48.81944" lon="1.37053">
        <ele>129.43</ele>
        <time>2015-05-14T07:34:21Z</time>
      </trkpt>
      <trkpt lat="48.81933" lon="1.37054">
        <ele>129.43</ele>
        <time>2015-05-14T07:34:29Z</time>
      </trkpt>
      <trkpt lat="48.81917" lon="1.37055">
        <ele>129.43</ele>
        <time>2015-05-14T07:34:39Z</time>
      </trkpt>
      <trkpt lat="48.81909" lon="1.37058">
        <ele>129.43</ele>
        <time>2015-05-14T07:34:48Z</time>
      </trkpt>
      <trkpt lat="48.81903" lon="1.3706">
        <ele>129.43</ele>
        <time>2015-05-14T07:35:03Z</time>
      </trkpt>
      <trkpt lat="48.81893" lon="1.37056">
        <ele>129.92</ele>
        <time>2015-05-14T07:35:11Z</time>
      </trkpt>
      <trkpt lat="48.81891" lon="1.37051">
        <ele>128.47</ele>
        <time>2015-05-14T07:35:15Z</time>
      </trkpt>
      <trkpt lat="48.81891" lon="1.37046">
        <ele>128.47</ele>
        <time>2015-05-14T07:35:18Z</time>
      </trkpt>
      <trkpt lat="48.81888" lon="1.37027">
        <ele>128.47</ele>
        <time>2015-05-14T07:35:28Z</time>
      </trkpt>
      <trkpt lat="48.81889" lon="1.3701">
        <ele>128.47</ele>
        <time>2015-05-14T07:35:37Z</time>
      </trkpt>
      <trkpt lat="48.8189" lon="1.37006">
        <ele>128.47</ele>
        <time>2015-05-14T07:35:39Z</time>
      </trkpt>
      <trkpt lat="48.81891" lon="1.36999">
        <ele>128.47</ele>
        <time>2015-05-14T07:35:42Z</time>
      </trkpt>
      <trkpt lat="48.81896" lon="1.3699">
        <ele>128.47</ele>
        <time>2015-05-14T07:35:51Z</time>
      </trkpt>
      <trkpt lat="48.81898" lon="1.3698">
        <ele>128.47</ele>
        <time>2015-05-14T07:36:00Z</time>
      </trkpt>
      <trkpt lat="48.81896" lon="1.36971">
        <ele>128.47</ele>
        <time>2015-05-14T07:36:05Z</time>
      </trkpt>
      <trkpt lat="48.81898" lon="1.36954">
        <ele>129.92</ele>
        <time>2015-05-14T07:36:14Z</time>
      </trkpt>
      <trkpt lat="48.81899" lon="1.36932">
        <ele>127.99</ele>
        <time>2015-05-14T07:36:24Z</time>
      </trkpt>
      <trkpt lat="48.819" lon="1.36913">
        <ele>129.43</ele>
        <time>2015-05-14T07:36:32Z</time>
      </trkpt>
      <trkpt lat="48.81901" lon="1.36899">
        <ele>129.43</ele>
        <time>2015-05-14T07:36:39Z</time>
      </trkpt>
      <trkpt lat="48.81901" lon="1.36884">
        <ele>129.92</ele>
        <time>2015-05-14T07:36:47Z</time>
      </trkpt>
      <trkpt lat="48.81897" lon="1.36863">
        <ele>129.92</ele>
        <time>2015-05-14T07:36:58Z</time>
      </trkpt>
      <trkpt lat="48.81897" lon="1.36861">
        <ele>129.92</ele>
        <time>2015-05-14T07:36:59Z</time>
      </trkpt>
      <trkpt lat="48.81895" lon="1.36837">
        <ele>129.92</ele>
        <time>2015-05-14T07:37:10Z</time>
      </trkpt>
      <trkpt lat="48.81895" lon="1.3682">
        <ele>129.92</ele>
        <time>2015-05-14T07:37:18Z</time>
      </trkpt>
      <trkpt lat="48.81895" lon="1.36799">
        <ele>130.4</ele>
        <time>2015-05-14T07:37:28Z</time>
      </trkpt>
      <trkpt lat="48.81898" lon="1.36774">
        <ele>130.4</ele>
        <time>2015-05-14T07:37:38Z</time>
      </trkpt>
      <trkpt lat="48.81902" lon="1.36753">
        <ele>130.4</ele>
        <time>2015-05-14T07:37:47Z</time>
      </trkpt>
      <trkpt lat="48.81905" lon="1.3673">
        <ele>130.4</ele>
        <time>2015-05-14T07:37:57Z</time>
      </trkpt>
      <trkpt lat="48.81906" lon="1.3671">
        <ele>130.4</ele>
        <time>2015-05-14T07:38:06Z</time>
      </trkpt>
      <trkpt lat="48.81907" lon="1.36693">
        <ele>130.4</ele>
        <time>2015-05-14T07:38:13Z</time>
      </trkpt>
      <trkpt lat="48.81909" lon="1.36673">
        <ele>130.4</ele>
        <time>2015-05-14T07:38:22Z</time>
      </trkpt>
      <trkpt lat="48.81909" lon="1.36661">
        <ele>130.4</ele>
        <time>2015-05-14T07:38:27Z</time>
      </trkpt>
      <trkpt lat="48.8191" lon="1.36643">
        <ele>130.4</ele>
        <time>2015-05-14T07:38:36Z</time>
      </trkpt>
      <trkpt lat="48.81908" lon="1.36626">
        <ele>130.4</ele>
        <time>2015-05-14T07:38:44Z</time>
      </trkpt>
      <trkpt lat="48.81912" lon="1.36602">
        <ele>130.4</ele>
        <time>2015-05-14T07:38:55Z</time>
      </trkpt>
      <trkpt lat="48.81913" lon="1.36583">
        <ele>130.4</ele>
        <time>2015-05-14T07:39:04Z</time>
      </trkpt>
      <trkpt lat="48.81913" lon="1.36568">
        <ele>130.4</ele>
        <time>2015-05-14T07:39:11Z</time>
      </trkpt>
      <trkpt lat="48.81911" lon="1.36546">
        <ele>129.43</ele>
        <time>2015-05-14T07:39:21Z</time>
      </trkpt>
      <trkpt lat="48.81913" lon="1.36527">
        <ele>128.95</ele>
        <time>2015-05-14T07:39:30Z</time>
      </trkpt>
      <trkpt lat="48.81914" lon="1.36512">
        <ele>127.03</ele>
        <time>2015-05-14T07:39:37Z</time>
      </trkpt>
      <trkpt lat="48.81915" lon="1.36491">
        <ele>125.11</ele>
        <time>2015-05-14T07:39:46Z</time>
      </trkpt>
      <trkpt lat="48.81916" lon="1.36479">
        <ele>123.19</ele>
        <time>2015-05-14T07:39:53Z</time>
      </trkpt>
      <trkpt lat="48.81917" lon="1.36471">
        <ele>121.74</ele>
        <time>2015-05-14T07:39:57Z</time>
      </trkpt>
      <trkpt lat="48.81918" lon="1.36459">
        <ele>119.34</ele>
        <time>2015-05-14T07:40:05Z</time>
      </trkpt>
      <trkpt lat="48.81918" lon="1.36445">
        <ele>115.98</ele>
        <time>2015-05-14T07:40:13Z</time>
      </trkpt>
      <trkpt lat="48.81919" lon="1.36443">
        <ele>115.98</ele>
        <time>2015-05-14T07:40:14Z</time>
      </trkpt>
      <trkpt lat="48.8192" lon="1.36425">
        <ele>113.57</ele>
        <time>2015-05-14T07:40:23Z</time>
      </trkpt>
      <trkpt lat="48.81921" lon="1.36415">
        <ele>110.21</ele>
        <time>2015-05-14T07:40:29Z</time>
      </trkpt>
      <trkpt lat="48.81921" lon="1.36409">
        <ele>110.69</ele>
        <time>2015-05-14T07:40:33Z</time>
      </trkpt>
      <trkpt lat="48.81919" lon="1.36398">
        <ele>109.73</ele>
        <time>2015-05-14T07:40:38Z</time>
      </trkpt>
      <trkpt lat="48.81919" lon="1.36378">
        <ele>108.29</ele>
        <time>2015-05-14T07:40:46Z</time>
      </trkpt>
      <trkpt lat="48.81921" lon="1.36363">
        <ele>106.84</ele>
        <time>2015-05-14T07:40:53Z</time>
      </trkpt>
      <trkpt lat="48.81921" lon="1.36356">
        <ele>105.88</ele>
        <time>2015-05-14T07:40:56Z</time>
      </trkpt>
      <trkpt lat="48.8192" lon="1.36346">
        <ele>104.44</ele>
        <time>2015-05-14T07:41:02Z</time>
      </trkpt>
      <trkpt lat="48.81926" lon="1.36322">
        <ele>103</ele>
        <time>2015-05-14T07:41:11Z</time>
      </trkpt>
      <trkpt lat="48.81926" lon="1.36316">
        <ele>101.56</ele>
        <time>2015-05-14T07:41:13Z</time>
      </trkpt>
      <trkpt lat="48.81926" lon="1.36313">
        <ele>101.56</ele>
        <time>2015-05-14T07:41:14Z</time>
      </trkpt>
      <trkpt lat="48.8192" lon="1.36299">
        <ele>100.6</ele>
        <time>2015-05-14T07:41:23Z</time>
      </trkpt>
      <trkpt lat="48.81916" lon="1.36296">
        <ele>102.04</ele>
        <time>2015-05-14T07:41:26Z</time>
      </trkpt>
      <trkpt lat="48.81907" lon="1.36288">
        <ele>103</ele>
        <time>2015-05-14T07:41:36Z</time>
      </trkpt>
      <trkpt lat="48.81898" lon="1.36275">
        <ele>103.48</ele>
        <time>2015-05-14T07:41:45Z</time>
      </trkpt>
      <trkpt lat="48.81889" lon="1.36258">
        <ele>103.48</ele>
        <time>2015-05-14T07:41:54Z</time>
      </trkpt>
      <trkpt lat="48.81886" lon="1.36246">
        <ele>105.4</ele>
        <time>2015-05-14T07:42:02Z</time>
      </trkpt>
      <trkpt lat="48.81881" lon="1.36237">
        <ele>105.88</ele>
        <time>2015-05-14T07:42:10Z</time>
      </trkpt>
      <trkpt lat="48.81877" lon="1.36233">
        <ele>107.32</ele>
        <time>2015-05-14T07:42:15Z</time>
      </trkpt>
      <trkpt lat="48.81865" lon="1.36224">
        <ele>109.25</ele>
        <time>2015-05-14T07:42:25Z</time>
      </trkpt>
      <trkpt lat="48.81859" lon="1.36221">
        <ele>110.69</ele>
        <time>2015-05-14T07:42:28Z</time>
      </trkpt>
      <trkpt lat="48.81849" lon="1.36215">
        <ele>113.09</ele>
        <time>2015-05-14T07:42:36Z</time>
      </trkpt>
      <trkpt lat="48.81843" lon="1.36209">
        <ele>115.98</ele>
        <time>2015-05-14T07:42:46Z</time>
      </trkpt>
      <trkpt lat="48.81842" lon="1.36209">
        <ele>115.98</ele>
        <time>2015-05-14T07:42:47Z</time>
      </trkpt>
      <trkpt lat="48.81835" lon="1.36203">
        <ele>116.46</ele>
        <time>2015-05-14T07:42:55Z</time>
      </trkpt>
      <trkpt lat="48.81828" lon="1.36197">
        <ele>118.38</ele>
        <time>2015-05-14T07:43:04Z</time>
      </trkpt>
      <trkpt lat="48.81825" lon="1.36196">
        <ele>119.34</ele>
        <time>2015-05-14T07:43:06Z</time>
      </trkpt>
      <trkpt lat="48.81815" lon="1.36194">
        <ele>119.34</ele>
        <time>2015-05-14T07:43:14Z</time>
      </trkpt>
      <trkpt lat="48.81811" lon="1.36195">
        <ele>120.78</ele>
        <time>2015-05-14T07:43:17Z</time>
      </trkpt>
      <trkpt lat="48.818" lon="1.36201">
        <ele>120.3</ele>
        <time>2015-05-14T07:43:26Z</time>
      </trkpt>
      <trkpt lat="48.81795" lon="1.36203">
        <ele>123.19</ele>
        <time>2015-05-14T07:43:29Z</time>
      </trkpt>
      <trkpt lat="48.81786" lon="1.36205">
        <ele>123.67</ele>
        <time>2015-05-14T07:43:37Z</time>
      </trkpt>
      <trkpt lat="48.81774" lon="1.36208">
        <ele>122.22</ele>
        <time>2015-05-14T07:43:47Z</time>
      </trkpt>
      <trkpt lat="48.81772" lon="1.36209">
        <ele>122.22</ele>
        <time>2015-05-14T07:43:48Z</time>
      </trkpt>
      <trkpt lat="48.8177" lon="1.3621">
        <ele>124.15</ele>
        <time>2015-05-14T07:43:50Z</time>
      </trkpt>
      <trkpt lat="48.81765" lon="1.36211">
        <ele>122.71</ele>
        <time>2015-05-14T07:43:54Z</time>
      </trkpt>
      <trkpt lat="48.8175" lon="1.36215">
        <ele>122.71</ele>
        <time>2015-05-14T07:44:05Z</time>
      </trkpt>
      <trkpt lat="48.8174" lon="1.36216">
        <ele>122.71</ele>
        <time>2015-05-14T07:44:12Z</time>
      </trkpt>
      <trkpt lat="48.81732" lon="1.3622">
        <ele>122.71</ele>
        <time>2015-05-14T07:44:19Z</time>
      </trkpt>
      <trkpt lat="48.8172" lon="1.36224">
        <ele>122.22</ele>
        <time>2015-05-14T07:44:28Z</time>
      </trkpt>
      <trkpt lat="48.81706" lon="1.36225">
        <ele>122.22</ele>
        <time>2015-05-14T07:44:38Z</time>
      </trkpt>
      <trkpt lat="48.81694" lon="1.3623">
        <ele>122.22</ele>
        <time>2015-05-14T07:44:47Z</time>
      </trkpt>
      <trkpt lat="48.81692" lon="1.3623">
        <ele>122.22</ele>
        <time>2015-05-14T07:44:49Z</time>
      </trkpt>
      <trkpt lat="48.81688" lon="1.36229">
        <ele>122.22</ele>
        <time>2015-05-14T07:44:51Z</time>
      </trkpt>
      <trkpt lat="48.8167" lon="1.36227">
        <ele>123.19</ele>
        <time>2015-05-14T07:45:01Z</time>
      </trkpt>
      <trkpt lat="48.81655" lon="1.36219">
        <ele>123.19</ele>
        <time>2015-05-14T07:45:08Z</time>
      </trkpt>
      <trkpt lat="48.81651" lon="1.36221">
        <ele>121.74</ele>
        <time>2015-05-14T07:45:11Z</time>
      </trkpt>
      <trkpt lat="48.81648" lon="1.36223">
        <ele>123.19</ele>
        <time>2015-05-14T07:45:14Z</time>
      </trkpt>
      <trkpt lat="48.81639" lon="1.36228">
        <ele>121.74</ele>
        <time>2015-05-14T07:45:23Z</time>
      </trkpt>
      <trkpt lat="48.81638" lon="1.36228">
        <ele>121.74</ele>
        <time>2015-05-14T07:45:24Z</time>
      </trkpt>
      <trkpt lat="48.81628" lon="1.36231">
        <ele>123.19</ele>
        <time>2015-05-14T07:45:32Z</time>
      </trkpt>
      <trkpt lat="48.81608" lon="1.36229">
        <ele>124.15</ele>
        <time>2015-05-14T07:45:45Z</time>
      </trkpt>
      <trkpt lat="48.81595" lon="1.36229">
        <ele>124.63</ele>
        <time>2015-05-14T07:45:54Z</time>
      </trkpt>
      <trkpt lat="48.81586" lon="1.36228">
        <ele>123.67</ele>
        <time>2015-05-14T07:46:00Z</time>
      </trkpt>
      <trkpt lat="48.81576" lon="1.36229">
        <ele>123.67</ele>
        <time>2015-05-14T07:46:08Z</time>
      </trkpt>
      <trkpt lat="48.81561" lon="1.36231">
        <ele>123.67</ele>
        <time>2015-05-14T07:46:18Z</time>
      </trkpt>
      <trkpt lat="48.81553" lon="1.36232">
        <ele>125.11</ele>
        <time>2015-05-14T07:46:25Z</time>
      </trkpt>
      <trkpt lat="48.81551" lon="1.36232">
        <ele>125.11</ele>
        <time>2015-05-14T07:46:26Z</time>
      </trkpt>
      <trkpt lat="48.81539" lon="1.36233">
        <ele>125.11</ele>
        <time>2015-05-14T07:46:35Z</time>
      </trkpt>
      <trkpt lat="48.81526" lon="1.36235">
        <ele>125.59</ele>
        <time>2015-05-14T07:46:44Z</time>
      </trkpt>
      <trkpt lat="48.8152" lon="1.36236">
        <ele>125.59</ele>
        <time>2015-05-14T07:46:48Z</time>
      </trkpt>
      <trkpt lat="48.81509" lon="1.36236">
        <ele>125.59</ele>
        <time>2015-05-14T07:46:56Z</time>
      </trkpt>
      <trkpt lat="48.815" lon="1.36238">
        <ele>126.07</ele>
        <time>2015-05-14T07:47:03Z</time>
      </trkpt>
      <trkpt lat="48.81488" lon="1.36242">
        <ele>127.99</ele>
        <time>2015-05-14T07:47:12Z</time>
      </trkpt>
      <trkpt lat="48.81476" lon="1.36246">
        <ele>128.47</ele>
        <time>2015-05-14T07:47:21Z</time>
      </trkpt>
      <trkpt lat="48.81467" lon="1.36251">
        <ele>129.92</ele>
        <time>2015-05-14T07:47:30Z</time>
      </trkpt>
      <trkpt lat="48.81455" lon="1.36256">
        <ele>130.88</ele>
        <time>2015-05-14T07:47:39Z</time>
      </trkpt>
      <trkpt lat="48.81449" lon="1.36256">
        <ele>129.43</ele>
        <time>2015-05-14T07:47:44Z</time>
      </trkpt>
      <trkpt lat="48.81436" lon="1.36256">
        <ele>128.95</ele>
        <time>2015-05-14T07:47:53Z</time>
      </trkpt>
      <trkpt lat="48.81425" lon="1.36257">
        <ele>128.47</ele>
        <time>2015-05-14T07:48:01Z</time>
      </trkpt>
      <trkpt lat="48.81414" lon="1.36259">
        <ele>128.47</ele>
        <time>2015-05-14T07:48:09Z</time>
      </trkpt>
      <trkpt lat="48.81401" lon="1.36258">
        <ele>127.99</ele>
        <time>2015-05-14T07:48:19Z</time>
      </trkpt>
      <trkpt lat="48.8139" lon="1.36258">
        <ele>128.47</ele>
        <time>2015-05-14T07:48:27Z</time>
      </trkpt>
      <trkpt lat="48.81384" lon="1.36257">
        <ele>127.51</ele>
        <time>2015-05-14T07:48:32Z</time>
      </trkpt>
      <trkpt lat="48.81382" lon="1.36258">
        <ele>127.51</ele>
        <time>2015-05-14T07:48:34Z</time>
      </trkpt>
      <trkpt lat="48.81367" lon="1.36258">
        <ele>127.51</ele>
        <time>2015-05-14T07:48:45Z</time>
      </trkpt>
      <trkpt lat="48.81355" lon="1.3626">
        <ele>127.03</ele>
        <time>2015-05-14T07:48:55Z</time>
      </trkpt>
      <trkpt lat="48.81352" lon="1.36261">
        <ele>126.07</ele>
        <time>2015-05-14T07:48:58Z</time>
      </trkpt>
      <trkpt lat="48.81348" lon="1.36262">
        <ele>126.07</ele>
        <time>2015-05-14T07:49:01Z</time>
      </trkpt>
      <trkpt lat="48.81344" lon="1.36262">
        <ele>129.43</ele>
        <time>2015-05-14T07:49:04Z</time>
      </trkpt>
      <trkpt lat="48.81342" lon="1.36263">
        <ele>126.55</ele>
        <time>2015-05-14T07:49:05Z</time>
      </trkpt>
      <trkpt lat="48.81325" lon="1.36266">
        <ele>125.59</ele>
        <time>2015-05-14T07:49:15Z</time>
      </trkpt>
      <trkpt lat="48.81322" lon="1.36267">
        <ele>127.51</ele>
        <time>2015-05-14T07:49:17Z</time>
      </trkpt>
      <trkpt lat="48.81319" lon="1.36268">
        <ele>125.59</ele>
        <time>2015-05-14T07:49:19Z</time>
      </trkpt>
      <trkpt lat="48.81313" lon="1.36268">
        <ele>126.07</ele>
        <time>2015-05-14T07:49:24Z</time>
      </trkpt>
      <trkpt lat="48.81298" lon="1.36273">
        <ele>126.07</ele>
        <time>2015-05-14T07:49:35Z</time>
      </trkpt>
      <trkpt lat="48.81286" lon="1.36285">
        <ele>125.59</ele>
        <time>2015-05-14T07:49:42Z</time>
      </trkpt>
      <trkpt lat="48.81275" lon="1.3629">
        <ele>125.11</ele>
        <time>2015-05-14T07:49:49Z</time>
      </trkpt>
      <trkpt lat="48.81267" lon="1.36295">
        <ele>125.59</ele>
        <time>2015-05-14T07:49:56Z</time>
      </trkpt>
      <trkpt lat="48.81256" lon="1.36299">
        <ele>125.11</ele>
        <time>2015-05-14T07:50:04Z</time>
      </trkpt>
      <trkpt lat="48.81253" lon="1.36301">
        <ele>127.99</ele>
        <time>2015-05-14T07:50:06Z</time>
      </trkpt>
      <trkpt lat="48.81249" lon="1.36303">
        <ele>126.07</ele>
        <time>2015-05-14T07:50:09Z</time>
      </trkpt>
      <trkpt lat="48.81234" lon="1.36308">
        <ele>127.03</ele>
        <time>2015-05-14T07:50:20Z</time>
      </trkpt>
      <trkpt lat="48.81224" lon="1.36312">
        <ele>127.03</ele>
        <time>2015-05-14T07:50:28Z</time>
      </trkpt>
      <trkpt lat="48.81213" lon="1.36316">
        <ele>127.51</ele>
        <time>2015-05-14T07:50:36Z</time>
      </trkpt>
      <trkpt lat="48.81204" lon="1.36321">
        <ele>127.99</ele>
        <time>2015-05-14T07:50:44Z</time>
      </trkpt>
      <trkpt lat="48.81201" lon="1.36322">
        <ele>127.99</ele>
        <time>2015-05-14T07:50:47Z</time>
      </trkpt>
      <trkpt lat="48.81189" lon="1.36331">
        <ele>127.03</ele>
        <time>2015-05-14T07:50:57Z</time>
      </trkpt>
      <trkpt lat="48.81174" lon="1.36339">
        <ele>126.55</ele>
        <time>2015-05-14T07:51:07Z</time>
      </trkpt>
      <trkpt lat="48.81169" lon="1.36341">
        <ele>126.07</ele>
        <time>2015-05-14T07:51:12Z</time>
      </trkpt>
      <trkpt lat="48.81158" lon="1.36347">
        <ele>126.07</ele>
        <time>2015-05-14T07:51:21Z</time>
      </trkpt>
      <trkpt lat="48.81146" lon="1.36353">
        <ele>127.51</ele>
        <time>2015-05-14T07:51:30Z</time>
      </trkpt>
      <trkpt lat="48.81146" lon="1.36353">
        <ele>127.51</ele>
        <time>2015-05-14T07:51:31Z</time>
      </trkpt>
      <trkpt lat="48.81133" lon="1.36359">
        <ele>129.43</ele>
        <time>2015-05-14T07:51:41Z</time>
      </trkpt>
      <trkpt lat="48.8112" lon="1.36369">
        <ele>130.4</ele>
        <time>2015-05-14T07:51:51Z</time>
      </trkpt>
      <trkpt lat="48.81109" lon="1.36379">
        <ele>131.36</ele>
        <time>2015-05-14T07:52:00Z</time>
      </trkpt>
      <trkpt lat="48.81099" lon="1.3639">
        <ele>131.84</ele>
        <time>2015-05-14T07:52:09Z</time>
      </trkpt>
      <trkpt lat="48.81092" lon="1.364">
        <ele>131.84</ele>
        <time>2015-05-14T07:52:17Z</time>
      </trkpt>
      <trkpt lat="48.81081" lon="1.36412">
        <ele>130.88</ele>
        <time>2015-05-14T07:52:27Z</time>
      </trkpt>
      <trkpt lat="48.8107" lon="1.3642">
        <ele>130.4</ele>
        <time>2015-05-14T07:52:35Z</time>
      </trkpt>
      <trkpt lat="48.81061" lon="1.36427">
        <ele>129.92</ele>
        <time>2015-05-14T07:52:43Z</time>
      </trkpt>
      <trkpt lat="48.81048" lon="1.36436">
        <ele>129.92</ele>
        <time>2015-05-14T07:52:53Z</time>
      </trkpt>
      <trkpt lat="48.81037" lon="1.36443">
        <ele>129.92</ele>
        <time>2015-05-14T07:53:02Z</time>
      </trkpt>
      <trkpt lat="48.81023" lon="1.36457">
        <ele>130.88</ele>
        <time>2015-05-14T07:53:11Z</time>
      </trkpt>
      <trkpt lat="48.81011" lon="1.36466">
        <ele>130.88</ele>
        <time>2015-05-14T07:53:18Z</time>
      </trkpt>
      <trkpt lat="48.81004" lon="1.3647">
        <ele>129.43</ele>
        <time>2015-05-14T07:53:22Z</time>
      </trkpt>
      <trkpt lat="48.80991" lon="1.36479">
        <ele>128.95</ele>
        <time>2015-05-14T07:53:31Z</time>
      </trkpt>
      <trkpt lat="48.8098" lon="1.36486">
        <ele>127.99</ele>
        <time>2015-05-14T07:53:39Z</time>
      </trkpt>
      <trkpt lat="48.80972" lon="1.36497">
        <ele>127.03</ele>
        <time>2015-05-14T07:53:47Z</time>
      </trkpt>
      <trkpt lat="48.80965" lon="1.3651">
        <ele>125.59</ele>
        <time>2015-05-14T07:53:55Z</time>
      </trkpt>
      <trkpt lat="48.8096" lon="1.36521">
        <ele>124.15</ele>
        <time>2015-05-14T07:54:02Z</time>
      </trkpt>
      <trkpt lat="48.8096" lon="1.36522">
        <ele>123.19</ele>
        <time>2015-05-14T07:54:03Z</time>
      </trkpt>
      <trkpt lat="48.80957" lon="1.36526">
        <ele>122.22</ele>
        <time>2015-05-14T07:54:06Z</time>
      </trkpt>
      <trkpt lat="48.80955" lon="1.3653">
        <ele>120.78</ele>
        <time>2015-05-14T07:54:09Z</time>
      </trkpt>
      <trkpt lat="48.8095" lon="1.3654">
        <ele>119.82</ele>
        <time>2015-05-14T07:54:16Z</time>
      </trkpt>
      <trkpt lat="48.80946" lon="1.36552">
        <ele>118.86</ele>
        <time>2015-05-14T07:54:23Z</time>
      </trkpt>
      <trkpt lat="48.8094" lon="1.36564">
        <ele>117.9</ele>
        <time>2015-05-14T07:54:31Z</time>
      </trkpt>
      <trkpt lat="48.80933" lon="1.3658">
        <ele>118.38</ele>
        <time>2015-05-14T07:54:40Z</time>
      </trkpt>
      <trkpt lat="48.80926" lon="1.36597">
        <ele>118.38</ele>
        <time>2015-05-14T07:54:48Z</time>
      </trkpt>
      <trkpt lat="48.80922" lon="1.36613">
        <ele>119.82</ele>
        <time>2015-05-14T07:54:56Z</time>
      </trkpt>
      <trkpt lat="48.80916" lon="1.36624">
        <ele>121.26</ele>
        <time>2015-05-14T07:55:04Z</time>
      </trkpt>
      <trkpt lat="48.80911" lon="1.36635">
        <ele>122.71</ele>
        <time>2015-05-14T07:55:12Z</time>
      </trkpt>
      <trkpt lat="48.80908" lon="1.36644">
        <ele>123.67</ele>
        <time>2015-05-14T07:55:18Z</time>
      </trkpt>
      <trkpt lat="48.80905" lon="1.36652">
        <ele>124.63</ele>
        <time>2015-05-14T07:55:24Z</time>
      </trkpt>
      <trkpt lat="48.80905" lon="1.36656">
        <ele>124.63</ele>
        <time>2015-05-14T07:55:26Z</time>
      </trkpt>
      <trkpt lat="48.80906" lon="1.36672">
        <ele>126.07</ele>
        <time>2015-05-14T07:55:35Z</time>
      </trkpt>
      <trkpt lat="48.80905" lon="1.3668">
        <ele>126.55</ele>
        <time>2015-05-14T07:55:41Z</time>
      </trkpt>
      <trkpt lat="48.80901" lon="1.36699">
        <ele>127.03</ele>
        <time>2015-05-14T07:55:50Z</time>
      </trkpt>
      <trkpt lat="48.80894" lon="1.36717">
        <ele>127.51</ele>
        <time>2015-05-14T07:55:59Z</time>
      </trkpt>
      <trkpt lat="48.80886" lon="1.36728">
        <ele>128.95</ele>
        <time>2015-05-14T07:56:06Z</time>
      </trkpt>
      <trkpt lat="48.80879" lon="1.36737">
        <ele>128.95</ele>
        <time>2015-05-14T07:56:13Z</time>
      </trkpt>
      <trkpt lat="48.80878" lon="1.36738">
        <ele>127.99</ele>
        <time>2015-05-14T07:56:14Z</time>
      </trkpt>
      <trkpt lat="48.80873" lon="1.3674">
        <ele>126.55</ele>
        <time>2015-05-14T07:56:18Z</time>
      </trkpt>
      <trkpt lat="48.80869" lon="1.36745">
        <ele>126.07</ele>
        <time>2015-05-14T07:56:22Z</time>
      </trkpt>
      <trkpt lat="48.80866" lon="1.3675">
        <ele>126.07</ele>
        <time>2015-05-14T07:56:25Z</time>
      </trkpt>
      <trkpt lat="48.8086" lon="1.36763">
        <ele>126.07</ele>
        <time>2015-05-14T07:56:33Z</time>
      </trkpt>
      <trkpt lat="48.80857" lon="1.36763">
        <ele>126.55</ele>
        <time>2015-05-14T07:56:35Z</time>
      </trkpt>
      <trkpt lat="48.80846" lon="1.3677">
        <ele>125.11</ele>
        <time>2015-05-14T07:56:44Z</time>
      </trkpt>
      <trkpt lat="48.80833" lon="1.36777">
        <ele>124.15</ele>
        <time>2015-05-14T07:56:54Z</time>
      </trkpt>
      <trkpt lat="48.80824" lon="1.36784">
        <ele>123.19</ele>
        <time>2015-05-14T07:57:02Z</time>
      </trkpt>
      <trkpt lat="48.80817" lon="1.36795">
        <ele>122.71</ele>
        <time>2015-05-14T07:57:09Z</time>
      </trkpt>
      <trkpt lat="48.80806" lon="1.36809">
        <ele>122.71</ele>
        <time>2015-05-14T07:57:18Z</time>
      </trkpt>
      <trkpt lat="48.80803" lon="1.36814">
        <ele>122.71</ele>
        <time>2015-05-14T07:57:22Z</time>
      </trkpt>
      <trkpt lat="48.80796" lon="1.36826">
        <ele>121.26</ele>
        <time>2015-05-14T07:57:31Z</time>
      </trkpt>
      <trkpt lat="48.80793" lon="1.36831">
        <ele>119.34</ele>
        <time>2015-05-14T07:57:39Z</time>
      </trkpt>
      <trkpt lat="48.80782" lon="1.36833">
        <ele>116.46</ele>
        <time>2015-05-14T07:57:48Z</time>
      </trkpt>
      <trkpt lat="48.80775" lon="1.36836">
        <ele>114.53</ele>
        <time>2015-05-14T07:57:55Z</time>
      </trkpt>
      <trkpt lat="48.80768" lon="1.36842">
        <ele>113.09</ele>
        <time>2015-05-14T07:58:03Z</time>
      </trkpt>
      <trkpt lat="48.8076" lon="1.36845">
        <ele>109.25</ele>
        <time>2015-05-14T07:58:11Z</time>
      </trkpt>
      <trkpt lat="48.80759" lon="1.36844">
        <ele>109.25</ele>
        <time>2015-05-14T07:58:12Z</time>
      </trkpt>
      <trkpt lat="48.80755" lon="1.36847">
        <ele>107.32</ele>
        <time>2015-05-14T07:58:17Z</time>
      </trkpt>
      <trkpt lat="48.80748" lon="1.36854">
        <ele>106.36</ele>
        <time>2015-05-14T07:58:25Z</time>
      </trkpt>
      <trkpt lat="48.80743" lon="1.36855">
        <ele>103.96</ele>
        <time>2015-05-14T07:58:31Z</time>
      </trkpt>
      <trkpt lat="48.80734" lon="1.36858">
        <ele>104.44</ele>
        <time>2015-05-14T07:58:41Z</time>
      </trkpt>
      <trkpt lat="48.80728" lon="1.36856">
        <ele>104.44</ele>
        <time>2015-05-14T07:58:48Z</time>
      </trkpt>
      <trkpt lat="48.80727" lon="1.36855">
        <ele>105.88</ele>
        <time>2015-05-14T07:58:50Z</time>
      </trkpt>
      <trkpt lat="48.8072" lon="1.36852">
        <ele>107.81</ele>
        <time>2015-05-14T07:58:58Z</time>
      </trkpt>
      <trkpt lat="48.80709" lon="1.36854">
        <ele>110.69</ele>
        <time>2015-05-14T07:59:07Z</time>
      </trkpt>
      <trkpt lat="48.80698" lon="1.36852">
        <ele>112.13</ele>
        <time>2015-05-14T07:59:16Z</time>
      </trkpt>
      <trkpt lat="48.80695" lon="1.36851">
        <ele>113.57</ele>
        <time>2015-05-14T07:59:18Z</time>
      </trkpt>
      <trkpt lat="48.80687" lon="1.36847">
        <ele>115.98</ele>
        <time>2015-05-14T07:59:28Z</time>
      </trkpt>
      <trkpt lat="48.80685" lon="1.36846">
        <ele>117.42</ele>
        <time>2015-05-14T07:59:32Z</time>
      </trkpt>
      <trkpt lat="48.80682" lon="1.36849">
        <ele>118.86</ele>
        <time>2015-05-14T07:59:40Z</time>
      </trkpt>
      <trkpt lat="48.80679" lon="1.36851">
        <ele>120.78</ele>
        <time>2015-05-14T07:59:45Z</time>
      </trkpt>
      <trkpt lat="48.8067" lon="1.36851">
        <ele>122.71</ele>
        <time>2015-05-14T07:59:52Z</time>
      </trkpt>
      <trkpt lat="48.80656" lon="1.36854">
        <ele>125.59</ele>
        <time>2015-05-14T08:00:03Z</time>
      </trkpt>
      <trkpt lat="48.80648" lon="1.36859">
        <ele>126.55</ele>
        <time>2015-05-14T08:00:13Z</time>
      </trkpt>
      <trkpt lat="48.80641" lon="1.36857">
        <ele>127.03</ele>
        <time>2015-05-14T08:00:22Z</time>
      </trkpt>
      <trkpt lat="48.80635" lon="1.36854">
        <ele>129.43</ele>
        <time>2015-05-14T08:00:30Z</time>
      </trkpt>
      <trkpt lat="48.80631" lon="1.36846">
        <ele>127.51</ele>
        <time>2015-05-14T08:00:39Z</time>
      </trkpt>
      <trkpt lat="48.8063" lon="1.36833">
        <ele>127.03</ele>
        <time>2015-05-14T08:00:46Z</time>
      </trkpt>
      <trkpt lat="48.80627" lon="1.36826">
        <ele>127.03</ele>
        <time>2015-05-14T08:00:50Z</time>
      </trkpt>
      <trkpt lat="48.80625" lon="1.36813">
        <ele>127.03</ele>
        <time>2015-05-14T08:00:57Z</time>
      </trkpt>
      <trkpt lat="48.80625" lon="1.36809">
        <ele>126.55</ele>
        <time>2015-05-14T08:00:59Z</time>
      </trkpt>
      <trkpt lat="48.80622" lon="1.36794">
        <ele>126.55</ele>
        <time>2015-05-14T08:01:07Z</time>
      </trkpt>
      <trkpt lat="48.80618" lon="1.36785">
        <ele>127.99</ele>
        <time>2015-05-14T08:01:14Z</time>
      </trkpt>
      <trkpt lat="48.80613" lon="1.36764">
        <ele>128.47</ele>
        <time>2015-05-14T08:01:24Z</time>
      </trkpt>
      <trkpt lat="48.80608" lon="1.36752">
        <ele>128.95</ele>
        <time>2015-05-14T08:01:30Z</time>
      </trkpt>
      <trkpt lat="48.80603" lon="1.36746">
        <ele>128.95</ele>
        <time>2015-05-14T08:01:34Z</time>
      </trkpt>
      <trkpt lat="48.806" lon="1.36743">
        <ele>128.95</ele>
        <time>2015-05-14T08:01:36Z</time>
      </trkpt>
      <trkpt lat="48.80587" lon="1.36748">
        <ele>128.95</ele>
        <time>2015-05-14T08:01:45Z</time>
      </trkpt>
      <trkpt lat="48.80577" lon="1.36756">
        <ele>129.43</ele>
        <time>2015-05-14T08:01:51Z</time>
      </trkpt>
      <trkpt lat="48.80568" lon="1.36766">
        <ele>129.43</ele>
        <time>2015-05-14T08:01:59Z</time>
      </trkpt>
      <trkpt lat="48.80563" lon="1.36771">
        <ele>129.43</ele>
        <time>2015-05-14T08:02:03Z</time>
      </trkpt>
      <trkpt lat="48.80559" lon="1.36776">
        <ele>128.95</ele>
        <time>2015-05-14T08:02:07Z</time>
      </trkpt>
      <trkpt lat="48.80552" lon="1.36787">
        <ele>127.99</ele>
        <time>2015-05-14T08:02:14Z</time>
      </trkpt>
      <trkpt lat="48.80549" lon="1.36793">
        <ele>131.36</ele>
        <time>2015-05-14T08:02:17Z</time>
      </trkpt>
      <trkpt lat="48.80542" lon="1.36805">
        <ele>130.4</ele>
        <time>2015-05-14T08:02:23Z</time>
      </trkpt>
      <trkpt lat="48.80539" lon="1.36808">
        <ele>128.95</ele>
        <time>2015-05-14T08:02:26Z</time>
      </trkpt>
      <trkpt lat="48.80538" lon="1.36811">
        <ele>130.4</ele>
        <time>2015-05-14T08:02:28Z</time>
      </trkpt>
      <trkpt lat="48.80533" lon="1.36822">
        <ele>131.36</ele>
        <time>2015-05-14T08:02:35Z</time>
      </trkpt>
      <trkpt lat="48.80529" lon="1.36827">
        <ele>131.84</ele>
        <time>2015-05-14T08:02:40Z</time>
      </trkpt>
      <trkpt lat="48.80527" lon="1.3683">
        <ele>131.36</ele>
        <time>2015-05-14T08:02:42Z</time>
      </trkpt>
      <trkpt lat="48.80523" lon="1.36835">
        <ele>131.36</ele>
        <time>2015-05-14T08:02:46Z</time>
      </trkpt>
      <trkpt lat="48.80519" lon="1.36842">
        <ele>131.84</ele>
        <time>2015-05-14T08:02:50Z</time>
      </trkpt>
      <trkpt lat="48.80507" lon="1.36853">
        <ele>132.8</ele>
        <time>2015-05-14T08:03:00Z</time>
      </trkpt>
      <trkpt lat="48.80495" lon="1.36863">
        <ele>133.28</ele>
        <time>2015-05-14T08:03:09Z</time>
      </trkpt>
      <trkpt lat="48.80487" lon="1.3687">
        <ele>133.28</ele>
        <time>2015-05-14T08:03:16Z</time>
      </trkpt>
      <trkpt lat="48.80474" lon="1.36879">
        <ele>132.8</ele>
        <time>2015-05-14T08:03:25Z</time>
      </trkpt>
      <trkpt lat="48.80464" lon="1.3689">
        <ele>132.8</ele>
        <time>2015-05-14T08:03:33Z</time>
      </trkpt>
      <trkpt lat="48.80454" lon="1.36898">
        <ele>132.8</ele>
        <time>2015-05-14T08:03:41Z</time>
      </trkpt>
      <trkpt lat="48.80446" lon="1.36907">
        <ele>132.8</ele>
        <time>2015-05-14T08:03:48Z</time>
      </trkpt>
      <trkpt lat="48.80444" lon="1.36909">
        <ele>131.84</ele>
        <time>2015-05-14T08:03:50Z</time>
      </trkpt>
      <trkpt lat="48.80441" lon="1.36914">
        <ele>131.36</ele>
        <time>2015-05-14T08:03:54Z</time>
      </trkpt>
      <trkpt lat="48.80437" lon="1.36922">
        <ele>130.88</ele>
        <time>2015-05-14T08:03:59Z</time>
      </trkpt>
      <trkpt lat="48.80429" lon="1.36932">
        <ele>129.43</ele>
        <time>2015-05-14T08:04:08Z</time>
      </trkpt>
      <trkpt lat="48.80428" lon="1.36933">
        <ele>129.43</ele>
        <time>2015-05-14T08:04:09Z</time>
      </trkpt>
      <trkpt lat="48.8042" lon="1.36937">
        <ele>128.47</ele>
        <time>2015-05-14T08:04:16Z</time>
      </trkpt>
      <trkpt lat="48.80408" lon="1.3694">
        <ele>128.47</ele>
        <time>2015-05-14T08:04:25Z</time>
      </trkpt>
      <trkpt lat="48.80407" lon="1.3694">
        <ele>128.47</ele>
        <time>2015-05-14T08:04:26Z</time>
      </trkpt>
      <trkpt lat="48.80396" lon="1.36943">
        <ele>128.47</ele>
        <time>2015-05-14T08:04:34Z</time>
      </trkpt>
      <trkpt lat="48.80385" lon="1.3695">
        <ele>129.43</ele>
        <time>2015-05-14T08:04:43Z</time>
      </trkpt>
      <trkpt lat="48.80375" lon="1.36958">
        <ele>129.43</ele>
        <time>2015-05-14T08:04:51Z</time>
      </trkpt>
      <trkpt lat="48.80363" lon="1.3697">
        <ele>129.43</ele>
        <time>2015-05-14T08:05:00Z</time>
      </trkpt>
      <trkpt lat="48.80352" lon="1.36981">
        <ele>127.03</ele>
        <time>2015-05-14T08:05:08Z</time>
      </trkpt>
      <trkpt lat="48.8035" lon="1.36982">
        <ele>130.4</ele>
        <time>2015-05-14T08:05:10Z</time>
      </trkpt>
      <trkpt lat="48.80349" lon="1.36983">
        <ele>127.51</ele>
        <time>2015-05-14T08:05:11Z</time>
      </trkpt>
      <trkpt lat="48.80341" lon="1.36991">
        <ele>127.03</ele>
        <time>2015-05-14T08:05:19Z</time>
      </trkpt>
      <trkpt lat="48.80329" lon="1.37">
        <ele>126.55</ele>
        <time>2015-05-14T08:05:29Z</time>
      </trkpt>
      <trkpt lat="48.80321" lon="1.37008">
        <ele>126.55</ele>
        <time>2015-05-14T08:05:37Z</time>
      </trkpt>
      <trkpt lat="48.8032" lon="1.37009">
        <ele>126.55</ele>
        <time>2015-05-14T08:05:38Z</time>
      </trkpt>
      <trkpt lat="48.80313" lon="1.37015">
        <ele>126.55</ele>
        <time>2015-05-14T08:05:43Z</time>
      </trkpt>
      <trkpt lat="48.80301" lon="1.37024">
        <ele>121.74</ele>
        <time>2015-05-14T08:05:52Z</time>
      </trkpt>
      <trkpt lat="48.803" lon="1.37025">
        <ele>128.47</ele>
        <time>2015-05-14T08:05:53Z</time>
      </trkpt>
      <trkpt lat="48.80296" lon="1.37029">
        <ele>125.11</ele>
        <time>2015-05-14T08:05:56Z</time>
      </trkpt>
      <trkpt lat="48.80294" lon="1.3703">
        <ele>127.51</ele>
        <time>2015-05-14T08:05:58Z</time>
      </trkpt>
      <trkpt lat="48.8029" lon="1.37035">
        <ele>126.55</ele>
        <time>2015-05-14T08:06:02Z</time>
      </trkpt>
      <trkpt lat="48.80283" lon="1.37044">
        <ele>127.51</ele>
        <time>2015-05-14T08:06:09Z</time>
      </trkpt>
      <trkpt lat="48.80277" lon="1.37054">
        <ele>127.99</ele>
        <time>2015-05-14T08:06:15Z</time>
      </trkpt>
      <trkpt lat="48.80273" lon="1.37061">
        <ele>127.99</ele>
        <time>2015-05-14T08:06:19Z</time>
      </trkpt>
      <trkpt lat="48.80263" lon="1.37075">
        <ele>127.99</ele>
        <time>2015-05-14T08:06:28Z</time>
      </trkpt>
      <trkpt lat="48.80262" lon="1.37078">
        <ele>126.55</ele>
        <time>2015-05-14T08:06:30Z</time>
      </trkpt>
      <trkpt lat="48.80262" lon="1.37082">
        <ele>127.99</ele>
        <time>2015-05-14T08:06:35Z</time>
      </trkpt>
      <trkpt lat="48.80264" lon="1.37095">
        <ele>129.43</ele>
        <time>2015-05-14T08:06:42Z</time>
      </trkpt>
      <trkpt lat="48.80272" lon="1.37104">
        <ele>131.36</ele>
        <time>2015-05-14T08:06:51Z</time>
      </trkpt>
      <trkpt lat="48.80277" lon="1.37108">
        <ele>132.8</ele>
        <time>2015-05-14T08:07:00Z</time>
      </trkpt>
      <trkpt lat="48.80289" lon="1.37118">
        <ele>133.76</ele>
        <time>2015-05-14T08:07:10Z</time>
      </trkpt>
      <trkpt lat="48.80302" lon="1.37122">
        <ele>134.24</ele>
        <time>2015-05-14T08:07:17Z</time>
      </trkpt>
      <trkpt lat="48.80307" lon="1.37139">
        <ele>134.72</ele>
        <time>2015-05-14T08:07:28Z</time>
      </trkpt>
      <trkpt lat="48.80308" lon="1.37154">
        <ele>134.72</ele>
        <time>2015-05-14T08:07:37Z</time>
      </trkpt>
      <trkpt lat="48.80311" lon="1.37167">
        <ele>135.2</ele>
        <time>2015-05-14T08:07:45Z</time>
      </trkpt>
      <trkpt lat="48.80314" lon="1.37181">
        <ele>135.68</ele>
        <time>2015-05-14T08:07:56Z</time>
      </trkpt>
      <trkpt lat="48.8032" lon="1.37197">
        <ele>136.16</ele>
        <time>2015-05-14T08:08:06Z</time>
      </trkpt>
      <trkpt lat="48.8033" lon="1.37212">
        <ele>136.16</ele>
        <time>2015-05-14T08:08:15Z</time>
      </trkpt>
      <trkpt lat="48.80332" lon="1.37215">
        <ele>136.16</ele>
        <time>2015-05-14T08:08:17Z</time>
      </trkpt>
      <trkpt lat="48.80343" lon="1.37225">
        <ele>137.13</ele>
        <time>2015-05-14T08:08:26Z</time>
      </trkpt>
      <trkpt lat="48.80345" lon="1.37219">
        <ele>137.13</ele>
        <time>2015-05-14T08:08:40Z</time>
      </trkpt>
      <trkpt lat="48.80346" lon="1.37226">
        <ele>137.13</ele>
        <time>2015-05-14T08:08:55Z</time>
      </trkpt>
      <trkpt lat="48.80352" lon="1.37228">
        <ele>136.64</ele>
        <time>2015-05-14T08:09:11Z</time>
      </trkpt>
      <trkpt lat="48.80352" lon="1.37225">
        <ele>136.64</ele>
        <time>2015-05-14T08:09:26Z</time>
      </trkpt>
      <trkpt lat="48.80351" lon="1.3722">
        <ele>136.64</ele>
        <time>2015-05-14T08:09:42Z</time>
      </trkpt>
      <trkpt lat="48.80346" lon="1.37222">
        <ele>136.64</ele>
        <time>2015-05-14T08:09:58Z</time>
      </trkpt>
      <trkpt lat="48.80346" lon="1.37221">
        <ele>136.64</ele>
        <time>2015-05-14T08:10:15Z</time>
      </trkpt>
      <trkpt lat="48.80344" lon="1.37219">
        <ele>136.16</ele>
        <time>2015-05-14T08:10:32Z</time>
      </trkpt>
      <trkpt lat="48.80343" lon="1.37221">
        <ele>135.2</ele>
        <time>2015-05-14T08:10:43Z</time>
      </trkpt>
      <trkpt lat="48.80344" lon="1.37222">
        <ele>136.64</ele>
        <time>2015-05-14T08:10:51Z</time>
      </trkpt>
      <trkpt lat="48.80346" lon="1.37226">
        <ele>136.16</ele>
        <time>2015-05-14T08:11:09Z</time>
      </trkpt>
      <trkpt lat="48.80346" lon="1.37226">
        <ele>136.16</ele>
        <time>2015-05-14T08:11:24Z</time>
      </trkpt>
      <trkpt lat="48.80347" lon="1.37224">
        <ele>136.16</ele>
        <time>2015-05-14T08:11:40Z</time>
      </trkpt>
      <trkpt lat="48.80348" lon="1.37231">
        <ele>135.68</ele>
        <time>2015-05-14T08:12:04Z</time>
      </trkpt>
      <trkpt lat="48.80349" lon="1.37232">
        <ele>135.68</ele>
        <time>2015-05-14T08:12:12Z</time>
      </trkpt>
      <trkpt lat="48.80344" lon="1.37235">
        <ele>135.68</ele>
        <time>2015-05-14T08:12:18Z</time>
      </trkpt>
      <trkpt lat="48.80341" lon="1.37235">
        <ele>135.68</ele>
        <time>2015-05-14T08:12:21Z</time>
      </trkpt>
      <trkpt lat="48.80339" lon="1.37235">
        <ele>134.72</ele>
        <time>2015-05-14T08:12:23Z</time>
      </trkpt>
      <trkpt lat="48.80327" lon="1.3724">
        <ele>134.24</ele>
        <time>2015-05-14T08:12:34Z</time>
      </trkpt>
      <trkpt lat="48.80315" lon="1.3724">
        <ele>132.8</ele>
        <time>2015-05-14T08:12:44Z</time>
      </trkpt>
      <trkpt lat="48.80311" lon="1.37241">
        <ele>131.84</ele>
        <time>2015-05-14T08:12:47Z</time>
      </trkpt>
      <trkpt lat="48.80305" lon="1.37247">
        <ele>131.36</ele>
        <time>2015-05-14T08:12:52Z</time>
      </trkpt>
      <trkpt lat="48.80297" lon="1.37248">
        <ele>130.4</ele>
        <time>2015-05-14T08:12:57Z</time>
      </trkpt>
      <trkpt lat="48.80288" lon="1.37259">
        <ele>130.4</ele>
        <time>2015-05-14T08:13:06Z</time>
      </trkpt>
      <trkpt lat="48.80288" lon="1.37261">
        <ele>129.92</ele>
        <time>2015-05-14T08:13:07Z</time>
      </trkpt>
      <trkpt lat="48.80281" lon="1.37279">
        <ele>129.92</ele>
        <time>2015-05-14T08:13:18Z</time>
      </trkpt>
      <trkpt lat="48.80276" lon="1.37295">
        <ele>129.43</ele>
        <time>2015-05-14T08:13:28Z</time>
      </trkpt>
      <trkpt lat="48.80269" lon="1.37307">
        <ele>129.43</ele>
        <time>2015-05-14T08:13:36Z</time>
      </trkpt>
      <trkpt lat="48.80262" lon="1.37323">
        <ele>128.47</ele>
        <time>2015-05-14T08:13:46Z</time>
      </trkpt>
      <trkpt lat="48.80259" lon="1.37331">
        <ele>131.36</ele>
        <time>2015-05-14T08:13:51Z</time>
      </trkpt>
      <trkpt lat="48.8026" lon="1.37332">
        <ele>130.4</ele>
        <time>2015-05-14T08:13:52Z</time>
      </trkpt>
      <trkpt lat="48.8026" lon="1.37342">
        <ele>131.84</ele>
        <time>2015-05-14T08:13:58Z</time>
      </trkpt>
      <trkpt lat="48.80258" lon="1.37361">
        <ele>133.28</ele>
        <time>2015-05-14T08:14:07Z</time>
      </trkpt>
      <trkpt lat="48.80257" lon="1.37377">
        <ele>134.72</ele>
        <time>2015-05-14T08:14:15Z</time>
      </trkpt>
      <trkpt lat="48.80258" lon="1.37395">
        <ele>134.72</ele>
        <time>2015-05-14T08:14:24Z</time>
      </trkpt>
      <trkpt lat="48.8026" lon="1.37418">
        <ele>135.68</ele>
        <time>2015-05-14T08:14:35Z</time>
      </trkpt>
      <trkpt lat="48.80261" lon="1.37435">
        <ele>136.16</ele>
        <time>2015-05-14T08:14:44Z</time>
      </trkpt>
      <trkpt lat="48.80263" lon="1.37452">
        <ele>136.16</ele>
        <time>2015-05-14T08:14:53Z</time>
      </trkpt>
      <trkpt lat="48.80266" lon="1.37472">
        <ele>136.64</ele>
        <time>2015-05-14T08:15:03Z</time>
      </trkpt>
      <trkpt lat="48.80268" lon="1.3749">
        <ele>137.13</ele>
        <time>2015-05-14T08:15:14Z</time>
      </trkpt>
      <trkpt lat="48.80273" lon="1.3751">
        <ele>137.61</ele>
        <time>2015-05-14T08:15:24Z</time>
      </trkpt>
      <trkpt lat="48.80272" lon="1.37521">
        <ele>137.61</ele>
        <time>2015-05-14T08:15:29Z</time>
      </trkpt>
      <trkpt lat="48.80275" lon="1.37545">
        <ele>138.09</ele>
        <time>2015-05-14T08:15:40Z</time>
      </trkpt>
      <trkpt lat="48.80277" lon="1.37564">
        <ele>138.57</ele>
        <time>2015-05-14T08:15:49Z</time>
      </trkpt>
      <trkpt lat="48.80278" lon="1.37581">
        <ele>138.57</ele>
        <time>2015-05-14T08:15:58Z</time>
      </trkpt>
      <trkpt lat="48.80277" lon="1.37584">
        <ele>138.57</ele>
        <time>2015-05-14T08:16:00Z</time>
      </trkpt>
      <trkpt lat="48.80279" lon="1.37591">
        <ele>139.05</ele>
        <time>2015-05-14T08:16:04Z</time>
      </trkpt>
      <trkpt lat="48.80284" lon="1.37609">
        <ele>139.05</ele>
        <time>2015-05-14T08:16:14Z</time>
      </trkpt>
      <trkpt lat="48.80287" lon="1.3763">
        <ele>138.57</ele>
        <time>2015-05-14T08:16:24Z</time>
      </trkpt>
      <trkpt lat="48.8029" lon="1.3765">
        <ele>138.57</ele>
        <time>2015-05-14T08:16:34Z</time>
      </trkpt>
      <trkpt lat="48.80293" lon="1.37668">
        <ele>138.57</ele>
        <time>2015-05-14T08:16:43Z</time>
      </trkpt>
      <trkpt lat="48.80296" lon="1.37689">
        <ele>138.57</ele>
        <time>2015-05-14T08:16:53Z</time>
      </trkpt>
      <trkpt lat="48.80296" lon="1.37709">
        <ele>139.05</ele>
        <time>2015-05-14T08:17:02Z</time>
      </trkpt>
      <trkpt lat="48.80296" lon="1.37725">
        <ele>139.05</ele>
        <time>2015-05-14T08:17:09Z</time>
      </trkpt>
      <trkpt lat="48.80298" lon="1.37746">
        <ele>138.57</ele>
        <time>2015-05-14T08:17:19Z</time>
      </trkpt>
      <trkpt lat="48.80299" lon="1.37764">
        <ele>139.05</ele>
        <time>2015-05-14T08:17:28Z</time>
      </trkpt>
      <trkpt lat="48.80302" lon="1.37784">
        <ele>139.53</ele>
        <time>2015-05-14T08:17:38Z</time>
      </trkpt>
      <trkpt lat="48.80302" lon="1.37792">
        <ele>139.53</ele>
        <time>2015-05-14T08:17:42Z</time>
      </trkpt>
      <trkpt lat="48.80307" lon="1.3781">
        <ele>139.53</ele>
        <time>2015-05-14T08:17:52Z</time>
      </trkpt>
      <trkpt lat="48.80307" lon="1.37816">
        <ele>139.53</ele>
        <time>2015-05-14T08:17:55Z</time>
      </trkpt>
      <trkpt lat="48.80308" lon="1.37823">
        <ele>139.53</ele>
        <time>2015-05-14T08:17:58Z</time>
      </trkpt>
      <trkpt lat="48.80309" lon="1.37829">
        <ele>140.01</ele>
        <time>2015-05-14T08:18:01Z</time>
      </trkpt>
      <trkpt lat="48.80311" lon="1.37833">
        <ele>140.01</ele>
        <time>2015-05-14T08:18:03Z</time>
      </trkpt>
      <trkpt lat="48.80314" lon="1.37854">
        <ele>140.01</ele>
        <time>2015-05-14T08:18:13Z</time>
      </trkpt>
      <trkpt lat="48.80314" lon="1.37869">
        <ele>140.01</ele>
        <time>2015-05-14T08:18:21Z</time>
      </trkpt>
      <trkpt lat="48.80315" lon="1.37887">
        <ele>140.49</ele>
        <time>2015-05-14T08:18:30Z</time>
      </trkpt>
      <trkpt lat="48.80316" lon="1.37906">
        <ele>140.49</ele>
        <time>2015-05-14T08:18:40Z</time>
      </trkpt>
      <trkpt lat="48.80318" lon="1.37927">
        <ele>140.01</ele>
        <time>2015-05-14T08:18:50Z</time>
      </trkpt>
      <trkpt lat="48.80319" lon="1.37941">
        <ele>140.01</ele>
        <time>2015-05-14T08:18:57Z</time>
      </trkpt>
      <trkpt lat="48.80319" lon="1.37946">
        <ele>140.49</ele>
        <time>2015-05-14T08:19:00Z</time>
      </trkpt>
      <trkpt lat="48.80322" lon="1.37964">
        <ele>140.49</ele>
        <time>2015-05-14T08:19:08Z</time>
      </trkpt>
      <trkpt lat="48.80323" lon="1.37977">
        <ele>140.49</ele>
        <time>2015-05-14T08:19:15Z</time>
      </trkpt>
      <trkpt lat="48.80327" lon="1.37993">
        <ele>140.01</ele>
        <time>2015-05-14T08:19:24Z</time>
      </trkpt>
      <trkpt lat="48.80327" lon="1.37999">
        <ele>140.01</ele>
        <time>2015-05-14T08:19:27Z</time>
      </trkpt>
      <trkpt lat="48.80325" lon="1.38014">
        <ele>140.01</ele>
        <time>2015-05-14T08:19:36Z</time>
      </trkpt>
      <trkpt lat="48.80327" lon="1.3802">
        <ele>140.49</ele>
        <time>2015-05-14T08:19:47Z</time>
      </trkpt>
      <trkpt lat="48.80329" lon="1.38026">
        <ele>140.01</ele>
        <time>2015-05-14T08:19:58Z</time>
      </trkpt>
      <trkpt lat="48.80328" lon="1.38034">
        <ele>140.01</ele>
        <time>2015-05-14T08:20:02Z</time>
      </trkpt>
      <trkpt lat="48.80324" lon="1.38046">
        <ele>140.01</ele>
        <time>2015-05-14T08:20:10Z</time>
      </trkpt>
      <trkpt lat="48.8032" lon="1.38054">
        <ele>140.01</ele>
        <time>2015-05-14T08:20:16Z</time>
      </trkpt>
      <trkpt lat="48.80309" lon="1.38058">
        <ele>140.49</ele>
        <time>2015-05-14T08:20:25Z</time>
      </trkpt>
      <trkpt lat="48.80298" lon="1.3806">
        <ele>140.01</ele>
        <time>2015-05-14T08:20:33Z</time>
      </trkpt>
      <trkpt lat="48.80286" lon="1.38061">
        <ele>140.97</ele>
        <time>2015-05-14T08:20:42Z</time>
      </trkpt>
      <trkpt lat="48.80278" lon="1.38074">
        <ele>141.45</ele>
        <time>2015-05-14T08:20:51Z</time>
      </trkpt>
      <trkpt lat="48.80269" lon="1.38081">
        <ele>140.49</ele>
        <time>2015-05-14T08:20:58Z</time>
      </trkpt>
      <trkpt lat="48.80258" lon="1.38084">
        <ele>140.01</ele>
        <time>2015-05-14T08:21:07Z</time>
      </trkpt>
      <trkpt lat="48.80241" lon="1.38091">
        <ele>140.01</ele>
        <time>2015-05-14T08:21:19Z</time>
      </trkpt>
      <trkpt lat="48.80225" lon="1.38091">
        <ele>140.01</ele>
        <time>2015-05-14T08:21:29Z</time>
      </trkpt>
      <trkpt lat="48.80211" lon="1.38094">
        <ele>140.01</ele>
        <time>2015-05-14T08:21:38Z</time>
      </trkpt>
      <trkpt lat="48.80193" lon="1.38098">
        <ele>140.01</ele>
        <time>2015-05-14T08:21:48Z</time>
      </trkpt>
      <trkpt lat="48.80182" lon="1.38103">
        <ele>140.01</ele>
        <time>2015-05-14T08:21:57Z</time>
      </trkpt>
      <trkpt lat="48.80168" lon="1.3811">
        <ele>140.01</ele>
        <time>2015-05-14T08:22:06Z</time>
      </trkpt>
      <trkpt lat="48.80151" lon="1.38124">
        <ele>140.01</ele>
        <time>2015-05-14T08:22:17Z</time>
      </trkpt>
      <trkpt lat="48.8014" lon="1.38135">
        <ele>139.53</ele>
        <time>2015-05-14T08:22:27Z</time>
      </trkpt>
      <trkpt lat="48.80126" lon="1.38144">
        <ele>139.53</ele>
        <time>2015-05-14T08:22:38Z</time>
      </trkpt>
      <trkpt lat="48.80112" lon="1.38153">
        <ele>139.53</ele>
        <time>2015-05-14T08:22:49Z</time>
      </trkpt>
      <trkpt lat="48.801" lon="1.38162">
        <ele>140.49</ele>
        <time>2015-05-14T08:22:57Z</time>
      </trkpt>
      <trkpt lat="48.80088" lon="1.38168">
        <ele>140.49</ele>
        <time>2015-05-14T08:23:05Z</time>
      </trkpt>
      <trkpt lat="48.80075" lon="1.3818">
        <ele>140.49</ele>
        <time>2015-05-14T08:23:17Z</time>
      </trkpt>
      <trkpt lat="48.80063" lon="1.38188">
        <ele>140.49</ele>
        <time>2015-05-14T08:23:27Z</time>
      </trkpt>
      <trkpt lat="48.8005" lon="1.38192">
        <ele>140.49</ele>
        <time>2015-05-14T08:23:36Z</time>
      </trkpt>
      <trkpt lat="48.80043" lon="1.38192">
        <ele>139.05</ele>
        <time>2015-05-14T08:23:40Z</time>
      </trkpt>
      <trkpt lat="48.80028" lon="1.38201">
        <ele>139.05</ele>
        <time>2015-05-14T08:23:50Z</time>
      </trkpt>
      <trkpt lat="48.80024" lon="1.38205">
        <ele>139.05</ele>
        <time>2015-05-14T08:23:53Z</time>
      </trkpt>
      <trkpt lat="48.8001" lon="1.38208">
        <ele>139.05</ele>
        <time>2015-05-14T08:24:01Z</time>
      </trkpt>
      <trkpt lat="48.79997" lon="1.38214">
        <ele>138.57</ele>
        <time>2015-05-14T08:24:11Z</time>
      </trkpt>
      <trkpt lat="48.79983" lon="1.38222">
        <ele>138.57</ele>
        <time>2015-05-14T08:24:21Z</time>
      </trkpt>
      <trkpt lat="48.79971" lon="1.38229">
        <ele>138.09</ele>
        <time>2015-05-14T08:24:29Z</time>
      </trkpt>
      <trkpt lat="48.79959" lon="1.38236">
        <ele>138.09</ele>
        <time>2015-05-14T08:24:38Z</time>
      </trkpt>
      <trkpt lat="48.79944" lon="1.38241">
        <ele>138.09</ele>
        <time>2015-05-14T08:24:48Z</time>
      </trkpt>
      <trkpt lat="48.79928" lon="1.38246">
        <ele>137.61</ele>
        <time>2015-05-14T08:24:59Z</time>
      </trkpt>
      <trkpt lat="48.79912" lon="1.38256">
        <ele>137.61</ele>
        <time>2015-05-14T08:25:10Z</time>
      </trkpt>
      <trkpt lat="48.79899" lon="1.3826">
        <ele>138.57</ele>
        <time>2015-05-14T08:25:18Z</time>
      </trkpt>
      <trkpt lat="48.79885" lon="1.3827">
        <ele>138.57</ele>
        <time>2015-05-14T08:25:29Z</time>
      </trkpt>
      <trkpt lat="48.79873" lon="1.38276">
        <ele>138.57</ele>
        <time>2015-05-14T08:25:38Z</time>
      </trkpt>
      <trkpt lat="48.79865" lon="1.38282">
        <ele>138.09</ele>
        <time>2015-05-14T08:25:46Z</time>
      </trkpt>
      <trkpt lat="48.79853" lon="1.3829">
        <ele>138.57</ele>
        <time>2015-05-14T08:25:55Z</time>
      </trkpt>
      <trkpt lat="48.79841" lon="1.38298">
        <ele>138.57</ele>
        <time>2015-05-14T08:26:03Z</time>
      </trkpt>
      <trkpt lat="48.79836" lon="1.38302">
        <ele>137.13</ele>
        <time>2015-05-14T08:26:07Z</time>
      </trkpt>
      <trkpt lat="48.79823" lon="1.38306">
        <ele>137.13</ele>
        <time>2015-05-14T08:26:16Z</time>
      </trkpt>
      <trkpt lat="48.79812" lon="1.38311">
        <ele>137.13</ele>
        <time>2015-05-14T08:26:24Z</time>
      </trkpt>
      <trkpt lat="48.79798" lon="1.38317">
        <ele>136.64</ele>
        <time>2015-05-14T08:26:33Z</time>
      </trkpt>
      <trkpt lat="48.79782" lon="1.38324">
        <ele>138.09</ele>
        <time>2015-05-14T08:26:43Z</time>
      </trkpt>
      <trkpt lat="48.79766" lon="1.38335">
        <ele>137.61</ele>
        <time>2015-05-14T08:26:55Z</time>
      </trkpt>
      <trkpt lat="48.79763" lon="1.38337">
        <ele>136.16</ele>
        <time>2015-05-14T08:26:57Z</time>
      </trkpt>
      <trkpt lat="48.79749" lon="1.38344">
        <ele>136.16</ele>
        <time>2015-05-14T08:27:06Z</time>
      </trkpt>
      <trkpt lat="48.79741" lon="1.38345">
        <ele>136.16</ele>
        <time>2015-05-14T08:27:12Z</time>
      </trkpt>
      <trkpt lat="48.79726" lon="1.38355">
        <ele>136.16</ele>
        <time>2015-05-14T08:27:24Z</time>
      </trkpt>
      <trkpt lat="48.79711" lon="1.38364">
        <ele>136.16</ele>
        <time>2015-05-14T08:27:35Z</time>
      </trkpt>
      <trkpt lat="48.79699" lon="1.3837">
        <ele>135.68</ele>
        <time>2015-05-14T08:27:44Z</time>
      </trkpt>
      <trkpt lat="48.79685" lon="1.38381">
        <ele>135.68</ele>
        <time>2015-05-14T08:27:55Z</time>
      </trkpt>
      <trkpt lat="48.79673" lon="1.38387">
        <ele>135.68</ele>
        <time>2015-05-14T08:28:04Z</time>
      </trkpt>
      <trkpt lat="48.79659" lon="1.38394">
        <ele>135.2</ele>
        <time>2015-05-14T08:28:13Z</time>
      </trkpt>
      <trkpt lat="48.79647" lon="1.38402">
        <ele>135.2</ele>
        <time>2015-05-14T08:28:22Z</time>
      </trkpt>
      <trkpt lat="48.79633" lon="1.38408">
        <ele>135.2</ele>
        <time>2015-05-14T08:28:32Z</time>
      </trkpt>
      <trkpt lat="48.79617" lon="1.38414">
        <ele>134.72</ele>
        <time>2015-05-14T08:28:43Z</time>
      </trkpt>
      <trkpt lat="48.79604" lon="1.38424">
        <ele>134.72</ele>
        <time>2015-05-14T08:28:52Z</time>
      </trkpt>
      <trkpt lat="48.79595" lon="1.38432">
        <ele>134.72</ele>
        <time>2015-05-14T08:28:59Z</time>
      </trkpt>
      <trkpt lat="48.79584" lon="1.38439">
        <ele>134.72</ele>
        <time>2015-05-14T08:29:07Z</time>
      </trkpt>
      <trkpt lat="48.7957" lon="1.38445">
        <ele>133.76</ele>
        <time>2015-05-14T08:29:17Z</time>
      </trkpt>
      <trkpt lat="48.79554" lon="1.38449">
        <ele>133.76</ele>
        <time>2015-05-14T08:29:26Z</time>
      </trkpt>
      <trkpt lat="48.79546" lon="1.38452">
        <ele>133.76</ele>
        <time>2015-05-14T08:29:32Z</time>
      </trkpt>
      <trkpt lat="48.79537" lon="1.38458">
        <ele>133.76</ele>
        <time>2015-05-14T08:29:40Z</time>
      </trkpt>
      <trkpt lat="48.79527" lon="1.38462">
        <ele>134.72</ele>
        <time>2015-05-14T08:29:47Z</time>
      </trkpt>
      <trkpt lat="48.79515" lon="1.38468">
        <ele>134.72</ele>
        <time>2015-05-14T08:29:57Z</time>
      </trkpt>
      <trkpt lat="48.795" lon="1.3848">
        <ele>135.2</ele>
        <time>2015-05-14T08:30:07Z</time>
      </trkpt>
      <trkpt lat="48.79488" lon="1.38487">
        <ele>133.28</ele>
        <time>2015-05-14T08:30:16Z</time>
      </trkpt>
      <trkpt lat="48.79474" lon="1.385">
        <ele>135.2</ele>
        <time>2015-05-14T08:30:27Z</time>
      </trkpt>
      <trkpt lat="48.79462" lon="1.38503">
        <ele>134.24</ele>
        <time>2015-05-14T08:30:35Z</time>
      </trkpt>
      <trkpt lat="48.79459" lon="1.38504">
        <ele>138.09</ele>
        <time>2015-05-14T08:30:37Z</time>
      </trkpt>
      <trkpt lat="48.79457" lon="1.38505">
        <ele>135.68</ele>
        <time>2015-05-14T08:30:38Z</time>
      </trkpt>
      <trkpt lat="48.79446" lon="1.38508">
        <ele>134.72</ele>
        <time>2015-05-14T08:30:46Z</time>
      </trkpt>
      <trkpt lat="48.79435" lon="1.38514">
        <ele>134.72</ele>
        <time>2015-05-14T08:30:55Z</time>
      </trkpt>
      <trkpt lat="48.79432" lon="1.38513">
        <ele>134.72</ele>
        <time>2015-05-14T08:30:57Z</time>
      </trkpt>
      <trkpt lat="48.79413" lon="1.38519">
        <ele>134.72</ele>
        <time>2015-05-14T08:31:08Z</time>
      </trkpt>
      <trkpt lat="48.79401" lon="1.38527">
        <ele>134.72</ele>
        <time>2015-05-14T08:31:17Z</time>
      </trkpt>
      <trkpt lat="48.79386" lon="1.38538">
        <ele>134.24</ele>
        <time>2015-05-14T08:31:28Z</time>
      </trkpt>
      <trkpt lat="48.79377" lon="1.38545">
        <ele>134.24</ele>
        <time>2015-05-14T08:31:35Z</time>
      </trkpt>
      <trkpt lat="48.79362" lon="1.3855">
        <ele>134.72</ele>
        <time>2015-05-14T08:31:45Z</time>
      </trkpt>
      <trkpt lat="48.79347" lon="1.38558">
        <ele>134.72</ele>
        <time>2015-05-14T08:31:55Z</time>
      </trkpt>
      <trkpt lat="48.79335" lon="1.38565">
        <ele>134.72</ele>
        <time>2015-05-14T08:32:05Z</time>
      </trkpt>
      <trkpt lat="48.79323" lon="1.38571">
        <ele>134.72</ele>
        <time>2015-05-14T08:32:14Z</time>
      </trkpt>
      <trkpt lat="48.79311" lon="1.38575">
        <ele>134.72</ele>
        <time>2015-05-14T08:32:22Z</time>
      </trkpt>
      <trkpt lat="48.79297" lon="1.38583">
        <ele>134.24</ele>
        <time>2015-05-14T08:32:31Z</time>
      </trkpt>
      <trkpt lat="48.79283" lon="1.38589">
        <ele>134.24</ele>
        <time>2015-05-14T08:32:41Z</time>
      </trkpt>
      <trkpt lat="48.79269" lon="1.38601">
        <ele>134.24</ele>
        <time>2015-05-14T08:32:52Z</time>
      </trkpt>
      <trkpt lat="48.79266" lon="1.38603">
        <ele>132.8</ele>
        <time>2015-05-14T08:32:54Z</time>
      </trkpt>
      <trkpt lat="48.79255" lon="1.38611">
        <ele>132.32</ele>
        <time>2015-05-14T08:33:03Z</time>
      </trkpt>
      <trkpt lat="48.79245" lon="1.38617">
        <ele>130.4</ele>
        <time>2015-05-14T08:33:13Z</time>
      </trkpt>
      <trkpt lat="48.79237" lon="1.38624">
        <ele>127.99</ele>
        <time>2015-05-14T08:33:20Z</time>
      </trkpt>
      <trkpt lat="48.79232" lon="1.38627">
        <ele>126.55</ele>
        <time>2015-05-14T08:33:24Z</time>
      </trkpt>
      <trkpt lat="48.79225" lon="1.38633">
        <ele>125.11</ele>
        <time>2015-05-14T08:33:31Z</time>
      </trkpt>
      <trkpt lat="48.79213" lon="1.38639">
        <ele>124.63</ele>
        <time>2015-05-14T08:33:41Z</time>
      </trkpt>
      <trkpt lat="48.79203" lon="1.38646">
        <ele>122.71</ele>
        <time>2015-05-14T08:33:49Z</time>
      </trkpt>
      <trkpt lat="48.7919" lon="1.38656">
        <ele>120.78</ele>
        <time>2015-05-14T08:34:00Z</time>
      </trkpt>
      <trkpt lat="48.79179" lon="1.38662">
        <ele>119.34</ele>
        <time>2015-05-14T08:34:09Z</time>
      </trkpt>
      <trkpt lat="48.79166" lon="1.38669">
        <ele>118.38</ele>
        <time>2015-05-14T08:34:19Z</time>
      </trkpt>
      <trkpt lat="48.79155" lon="1.38674">
        <ele>118.38</ele>
        <time>2015-05-14T08:34:27Z</time>
      </trkpt>
      <trkpt lat="48.79145" lon="1.38681">
        <ele>117.9</ele>
        <time>2015-05-14T08:34:36Z</time>
      </trkpt>
      <trkpt lat="48.79132" lon="1.38691">
        <ele>117.42</ele>
        <time>2015-05-14T08:34:46Z</time>
      </trkpt>
      <trkpt lat="48.7912" lon="1.38692">
        <ele>117.42</ele>
        <time>2015-05-14T08:34:55Z</time>
      </trkpt>
      <trkpt lat="48.79115" lon="1.38692">
        <ele>117.42</ele>
        <time>2015-05-14T08:35:06Z</time>
      </trkpt>
      <trkpt lat="48.79108" lon="1.38694">
        <ele>117.42</ele>
        <time>2015-05-14T08:35:27Z</time>
      </trkpt>
      <trkpt lat="48.79106" lon="1.38691">
        <ele>115.98</ele>
        <time>2015-05-14T08:35:36Z</time>
      </trkpt>
      <trkpt lat="48.79103" lon="1.38687">
        <ele>114.05</ele>
        <time>2015-05-14T08:35:41Z</time>
      </trkpt>
      <trkpt lat="48.79099" lon="1.38683">
        <ele>111.65</ele>
        <time>2015-05-14T08:35:47Z</time>
      </trkpt>
      <trkpt lat="48.79097" lon="1.38679">
        <ele>110.21</ele>
        <time>2015-05-14T08:35:51Z</time>
      </trkpt>
      <trkpt lat="48.79092" lon="1.38673">
        <ele>107.32</ele>
        <time>2015-05-14T08:35:57Z</time>
      </trkpt>
      <trkpt lat="48.7909" lon="1.38671">
        <ele>107.32</ele>
        <time>2015-05-14T08:35:59Z</time>
      </trkpt>
      <trkpt lat="48.79081" lon="1.3866">
        <ele>103.48</ele>
        <time>2015-05-14T08:36:08Z</time>
      </trkpt>
      <trkpt lat="48.79075" lon="1.38651">
        <ele>101.08</ele>
        <time>2015-05-14T08:36:16Z</time>
      </trkpt>
      <trkpt lat="48.79071" lon="1.38644">
        <ele>99.63</ele>
        <time>2015-05-14T08:36:24Z</time>
      </trkpt>
      <trkpt lat="48.79052" lon="1.3865">
        <ele>99.15</ele>
        <time>2015-05-14T08:36:36Z</time>
      </trkpt>
      <trkpt lat="48.79046" lon="1.38655">
        <ele>99.15</ele>
        <time>2015-05-14T08:36:42Z</time>
      </trkpt>
      <trkpt lat="48.79039" lon="1.3865">
        <ele>99.15</ele>
        <time>2015-05-14T08:36:46Z</time>
      </trkpt>
      <trkpt lat="48.79038" lon="1.38648">
        <ele>99.15</ele>
        <time>2015-05-14T08:36:48Z</time>
      </trkpt>
      <trkpt lat="48.79033" lon="1.38629">
        <ele>99.15</ele>
        <time>2015-05-14T08:37:00Z</time>
      </trkpt>
      <trkpt lat="48.79033" lon="1.38623">
        <ele>100.6</ele>
        <time>2015-05-14T08:37:03Z</time>
      </trkpt>
      <trkpt lat="48.79031" lon="1.38611">
        <ele>101.56</ele>
        <time>2015-05-14T08:37:11Z</time>
      </trkpt>
      <trkpt lat="48.79027" lon="1.38601">
        <ele>103.48</ele>
        <time>2015-05-14T08:37:18Z</time>
      </trkpt>
      <trkpt lat="48.79018" lon="1.38586">
        <ele>104.44</ele>
        <time>2015-05-14T08:37:29Z</time>
      </trkpt>
      <trkpt lat="48.79008" lon="1.38573">
        <ele>106.84</ele>
        <time>2015-05-14T08:37:38Z</time>
      </trkpt>
      <trkpt lat="48.78999" lon="1.38558">
        <ele>108.77</ele>
        <time>2015-05-14T08:37:50Z</time>
      </trkpt>
      <trkpt lat="48.78994" lon="1.38549">
        <ele>110.69</ele>
        <time>2015-05-14T08:37:58Z</time>
      </trkpt>
      <trkpt lat="48.78988" lon="1.38541">
        <ele>112.61</ele>
        <time>2015-05-14T08:38:06Z</time>
      </trkpt>
      <trkpt lat="48.78982" lon="1.38532">
        <ele>114.05</ele>
        <time>2015-05-14T08:38:16Z</time>
      </trkpt>
      <trkpt lat="48.78978" lon="1.38525">
        <ele>116.46</ele>
        <time>2015-05-14T08:38:24Z</time>
      </trkpt>
      <trkpt lat="48.78974" lon="1.38516">
        <ele>117.9</ele>
        <time>2015-05-14T08:38:32Z</time>
      </trkpt>
      <trkpt lat="48.78968" lon="1.38508">
        <ele>119.82</ele>
        <time>2015-05-14T08:38:41Z</time>
      </trkpt>
      <trkpt lat="48.78962" lon="1.38498">
        <ele>122.71</ele>
        <time>2015-05-14T08:38:50Z</time>
      </trkpt>
      <trkpt lat="48.78956" lon="1.38489">
        <ele>125.11</ele>
        <time>2015-05-14T08:39:01Z</time>
      </trkpt>
      <trkpt lat="48.78952" lon="1.38482">
        <ele>127.03</ele>
        <time>2015-05-14T08:39:10Z</time>
      </trkpt>
      <trkpt lat="48.7895" lon="1.3848">
        <ele>128.95</ele>
        <time>2015-05-14T08:39:14Z</time>
      </trkpt>
      <trkpt lat="48.78942" lon="1.38469">
        <ele>129.43</ele>
        <time>2015-05-14T08:39:26Z</time>
      </trkpt>
      <trkpt lat="48.78934" lon="1.38461">
        <ele>129.92</ele>
        <time>2015-05-14T08:39:35Z</time>
      </trkpt>
      <trkpt lat="48.78928" lon="1.38455">
        <ele>130.4</ele>
        <time>2015-05-14T08:39:41Z</time>
      </trkpt>
      <trkpt lat="48.78921" lon="1.38443">
        <ele>129.92</ele>
        <time>2015-05-14T08:39:50Z</time>
      </trkpt>
      <trkpt lat="48.78919" lon="1.38441">
        <ele>132.32</ele>
        <time>2015-05-14T08:39:52Z</time>
      </trkpt>
      <trkpt lat="48.78912" lon="1.3843">
        <ele>129.92</ele>
        <time>2015-05-14T08:40:00Z</time>
      </trkpt>
      <trkpt lat="48.78901" lon="1.38418">
        <ele>132.32</ele>
        <time>2015-05-14T08:40:09Z</time>
      </trkpt>
      <trkpt lat="48.78893" lon="1.38408">
        <ele>132.32</ele>
        <time>2015-05-14T08:40:17Z</time>
      </trkpt>
      <trkpt lat="48.78884" lon="1.38395">
        <ele>132.32</ele>
        <time>2015-05-14T08:40:26Z</time>
      </trkpt>
      <trkpt lat="48.78875" lon="1.38383">
        <ele>132.32</ele>
        <time>2015-05-14T08:40:34Z</time>
      </trkpt>
      <trkpt lat="48.78865" lon="1.38371">
        <ele>132.32</ele>
        <time>2015-05-14T08:40:44Z</time>
      </trkpt>
      <trkpt lat="48.78857" lon="1.38358">
        <ele>132.32</ele>
        <time>2015-05-14T08:40:53Z</time>
      </trkpt>
      <trkpt lat="48.78849" lon="1.38345">
        <ele>132.32</ele>
        <time>2015-05-14T08:41:01Z</time>
      </trkpt>
      <trkpt lat="48.78839" lon="1.38329">
        <ele>132.32</ele>
        <time>2015-05-14T08:41:12Z</time>
      </trkpt>
      <trkpt lat="48.78831" lon="1.3832">
        <ele>132.32</ele>
        <time>2015-05-14T08:41:20Z</time>
      </trkpt>
      <trkpt lat="48.78824" lon="1.38307">
        <ele>132.32</ele>
        <time>2015-05-14T08:41:29Z</time>
      </trkpt>
      <trkpt lat="48.78813" lon="1.38297">
        <ele>132.32</ele>
        <time>2015-05-14T08:41:39Z</time>
      </trkpt>
      <trkpt lat="48.78802" lon="1.38282">
        <ele>132.32</ele>
        <time>2015-05-14T08:41:49Z</time>
      </trkpt>
      <trkpt lat="48.78792" lon="1.38269">
        <ele>132.32</ele>
        <time>2015-05-14T08:41:58Z</time>
      </trkpt>
      <trkpt lat="48.78786" lon="1.38257">
        <ele>132.32</ele>
        <time>2015-05-14T08:42:06Z</time>
      </trkpt>
      <trkpt lat="48.78772" lon="1.38239">
        <ele>132.32</ele>
        <time>2015-05-14T08:42:17Z</time>
      </trkpt>
      <trkpt lat="48.78763" lon="1.38226">
        <ele>132.32</ele>
        <time>2015-05-14T08:42:26Z</time>
      </trkpt>
      <trkpt lat="48.78752" lon="1.38211">
        <ele>132.32</ele>
        <time>2015-05-14T08:42:36Z</time>
      </trkpt>
      <trkpt lat="48.7874" lon="1.38198">
        <ele>132.32</ele>
        <time>2015-05-14T08:42:45Z</time>
      </trkpt>
      <trkpt lat="48.78731" lon="1.38184">
        <ele>132.32</ele>
        <time>2015-05-14T08:42:55Z</time>
      </trkpt>
      <trkpt lat="48.78722" lon="1.38172">
        <ele>132.32</ele>
        <time>2015-05-14T08:43:03Z</time>
      </trkpt>
      <trkpt lat="48.78713" lon="1.38158">
        <ele>130.88</ele>
        <time>2015-05-14T08:43:12Z</time>
      </trkpt>
      <trkpt lat="48.78701" lon="1.38142">
        <ele>130.88</ele>
        <time>2015-05-14T08:43:23Z</time>
      </trkpt>
      <trkpt lat="48.78692" lon="1.38128">
        <ele>130.4</ele>
        <time>2015-05-14T08:43:33Z</time>
      </trkpt>
      <trkpt lat="48.78683" lon="1.38116">
        <ele>130.4</ele>
        <time>2015-05-14T08:43:42Z</time>
      </trkpt>
      <trkpt lat="48.78672" lon="1.38103">
        <ele>130.4</ele>
        <time>2015-05-14T08:43:51Z</time>
      </trkpt>
      <trkpt lat="48.78662" lon="1.38088">
        <ele>130.88</ele>
        <time>2015-05-14T08:44:01Z</time>
      </trkpt>
      <trkpt lat="48.78649" lon="1.38073">
        <ele>130.88</ele>
        <time>2015-05-14T08:44:11Z</time>
      </trkpt>
      <trkpt lat="48.7864" lon="1.38062">
        <ele>130.88</ele>
        <time>2015-05-14T08:44:19Z</time>
      </trkpt>
      <trkpt lat="48.78631" lon="1.38049">
        <ele>131.84</ele>
        <time>2015-05-14T08:44:28Z</time>
      </trkpt>
      <trkpt lat="48.78621" lon="1.38037">
        <ele>131.84</ele>
        <time>2015-05-14T08:44:36Z</time>
      </trkpt>
      <trkpt lat="48.7861" lon="1.38019">
        <ele>131.84</ele>
        <time>2015-05-14T08:44:46Z</time>
      </trkpt>
      <trkpt lat="48.786" lon="1.38005">
        <ele>131.84</ele>
        <time>2015-05-14T08:44:56Z</time>
      </trkpt>
      <trkpt lat="48.786" lon="1.38004">
        <ele>131.84</ele>
        <time>2015-05-14T08:44:57Z</time>
      </trkpt>
      <trkpt lat="48.78597" lon="1.38002">
        <ele>130.4</ele>
        <time>2015-05-14T08:44:59Z</time>
      </trkpt>
      <trkpt lat="48.78582" lon="1.37995">
        <ele>130.4</ele>
        <time>2015-05-14T08:45:09Z</time>
      </trkpt>
      <trkpt lat="48.7858" lon="1.37994">
        <ele>130.4</ele>
        <time>2015-05-14T08:45:11Z</time>
      </trkpt>
      <trkpt lat="48.7856" lon="1.3799">
        <ele>130.88</ele>
        <time>2015-05-14T08:45:22Z</time>
      </trkpt>
      <trkpt lat="48.78546" lon="1.37993">
        <ele>130.88</ele>
        <time>2015-05-14T08:45:31Z</time>
      </trkpt>
      <trkpt lat="48.78532" lon="1.37995">
        <ele>130.88</ele>
        <time>2015-05-14T08:45:42Z</time>
      </trkpt>
      <trkpt lat="48.78522" lon="1.37993">
        <ele>130.88</ele>
        <time>2015-05-14T08:45:50Z</time>
      </trkpt>
      <trkpt lat="48.78505" lon="1.37992">
        <ele>130.88</ele>
        <time>2015-05-14T08:46:01Z</time>
      </trkpt>
      <trkpt lat="48.7849" lon="1.37992">
        <ele>130.4</ele>
        <time>2015-05-14T08:46:10Z</time>
      </trkpt>
      <trkpt lat="48.78477" lon="1.37991">
        <ele>129.43</ele>
        <time>2015-05-14T08:46:20Z</time>
      </trkpt>
      <trkpt lat="48.78465" lon="1.37994">
        <ele>127.03</ele>
        <time>2015-05-14T08:46:30Z</time>
      </trkpt>
      <trkpt lat="48.78453" lon="1.37998">
        <ele>125.11</ele>
        <time>2015-05-14T08:46:40Z</time>
      </trkpt>
      <trkpt lat="48.78442" lon="1.37999">
        <ele>123.67</ele>
        <time>2015-05-14T08:46:49Z</time>
      </trkpt>
      <trkpt lat="48.7843" lon="1.37998">
        <ele>122.71</ele>
        <time>2015-05-14T08:46:58Z</time>
      </trkpt>
      <trkpt lat="48.78427" lon="1.37997">
        <ele>124.15</ele>
        <time>2015-05-14T08:47:00Z</time>
      </trkpt>
      <trkpt lat="48.78416" lon="1.37995">
        <ele>125.11</ele>
        <time>2015-05-14T08:47:08Z</time>
      </trkpt>
      <trkpt lat="48.78404" lon="1.37994">
        <ele>126.55</ele>
        <time>2015-05-14T08:47:18Z</time>
      </trkpt>
      <trkpt lat="48.78387" lon="1.37995">
        <ele>127.03</ele>
        <time>2015-05-14T08:47:29Z</time>
      </trkpt>
      <trkpt lat="48.78373" lon="1.37994">
        <ele>127.51</ele>
        <time>2015-05-14T08:47:38Z</time>
      </trkpt>
      <trkpt lat="48.78359" lon="1.37993">
        <ele>127.51</ele>
        <time>2015-05-14T08:47:48Z</time>
      </trkpt>
      <trkpt lat="48.78347" lon="1.37991">
        <ele>127.99</ele>
        <time>2015-05-14T08:47:57Z</time>
      </trkpt>
      <trkpt lat="48.78335" lon="1.37992">
        <ele>127.99</ele>
        <time>2015-05-14T08:48:05Z</time>
      </trkpt>
      <trkpt lat="48.78323" lon="1.3799">
        <ele>126.55</ele>
        <time>2015-05-14T08:48:14Z</time>
      </trkpt>
      <trkpt lat="48.78312" lon="1.3799">
        <ele>126.07</ele>
        <time>2015-05-14T08:48:22Z</time>
      </trkpt>
      <trkpt lat="48.783" lon="1.37989">
        <ele>125.59</ele>
        <time>2015-05-14T08:48:31Z</time>
      </trkpt>
      <trkpt lat="48.78288" lon="1.37989">
        <ele>127.03</ele>
        <time>2015-05-14T08:48:40Z</time>
      </trkpt>
      <trkpt lat="48.78278" lon="1.3799">
        <ele>128.95</ele>
        <time>2015-05-14T08:48:48Z</time>
      </trkpt>
      <trkpt lat="48.78265" lon="1.37989">
        <ele>129.43</ele>
        <time>2015-05-14T08:48:57Z</time>
      </trkpt>
      <trkpt lat="48.78259" lon="1.37988">
        <ele>129.92</ele>
        <time>2015-05-14T08:49:02Z</time>
      </trkpt>
      <trkpt lat="48.78245" lon="1.37988">
        <ele>130.4</ele>
        <time>2015-05-14T08:49:13Z</time>
      </trkpt>
      <trkpt lat="48.78231" lon="1.37992">
        <ele>130.4</ele>
        <time>2015-05-14T08:49:22Z</time>
      </trkpt>
      <trkpt lat="48.78216" lon="1.37998">
        <ele>130.88</ele>
        <time>2015-05-14T08:49:32Z</time>
      </trkpt>
      <trkpt lat="48.78213" lon="1.38">
        <ele>130.88</ele>
        <time>2015-05-14T08:49:34Z</time>
      </trkpt>
      <trkpt lat="48.78203" lon="1.38004">
        <ele>130.88</ele>
        <time>2015-05-14T08:49:41Z</time>
      </trkpt>
      <trkpt lat="48.78194" lon="1.38007">
        <ele>129.43</ele>
        <time>2015-05-14T08:49:48Z</time>
      </trkpt>
      <trkpt lat="48.78182" lon="1.38006">
        <ele>128.95</ele>
        <time>2015-05-14T08:49:57Z</time>
      </trkpt>
      <trkpt lat="48.78171" lon="1.38006">
        <ele>128.47</ele>
        <time>2015-05-14T08:50:05Z</time>
      </trkpt>
      <trkpt lat="48.7816" lon="1.38006">
        <ele>127.51</ele>
        <time>2015-05-14T08:50:13Z</time>
      </trkpt>
      <trkpt lat="48.78145" lon="1.38004">
        <ele>127.03</ele>
        <time>2015-05-14T08:50:22Z</time>
      </trkpt>
      <trkpt lat="48.78134" lon="1.38">
        <ele>126.55</ele>
        <time>2015-05-14T08:50:31Z</time>
      </trkpt>
      <trkpt lat="48.78124" lon="1.37998">
        <ele>125.59</ele>
        <time>2015-05-14T08:50:39Z</time>
      </trkpt>
      <trkpt lat="48.78109" lon="1.37993">
        <ele>124.15</ele>
        <time>2015-05-14T08:50:49Z</time>
      </trkpt>
      <trkpt lat="48.78096" lon="1.37989">
        <ele>123.19</ele>
        <time>2015-05-14T08:50:58Z</time>
      </trkpt>
      <trkpt lat="48.78082" lon="1.37982">
        <ele>122.22</ele>
        <time>2015-05-14T08:51:08Z</time>
      </trkpt>
      <trkpt lat="48.78068" lon="1.37977">
        <ele>120.78</ele>
        <time>2015-05-14T08:51:19Z</time>
      </trkpt>
      <trkpt lat="48.78065" lon="1.37975">
        <ele>119.34</ele>
        <time>2015-05-14T08:51:22Z</time>
      </trkpt>
      <trkpt lat="48.78049" lon="1.37973">
        <ele>117.42</ele>
        <time>2015-05-14T08:51:33Z</time>
      </trkpt>
      <trkpt lat="48.7804" lon="1.3797">
        <ele>115.5</ele>
        <time>2015-05-14T08:51:42Z</time>
      </trkpt>
      <trkpt lat="48.78032" lon="1.37969">
        <ele>115.5</ele>
        <time>2015-05-14T08:51:48Z</time>
      </trkpt>
      <trkpt lat="48.7802" lon="1.37971">
        <ele>115.01</ele>
        <time>2015-05-14T08:51:58Z</time>
      </trkpt>
      <trkpt lat="48.78017" lon="1.37972">
        <ele>115.98</ele>
        <time>2015-05-14T08:52:01Z</time>
      </trkpt>
      <trkpt lat="48.78007" lon="1.37978">
        <ele>118.38</ele>
        <time>2015-05-14T08:52:11Z</time>
      </trkpt>
      <trkpt lat="48.78003" lon="1.37978">
        <ele>119.82</ele>
        <time>2015-05-14T08:52:15Z</time>
      </trkpt>
      <trkpt lat="48.77991" lon="1.3798">
        <ele>120.78</ele>
        <time>2015-05-14T08:52:26Z</time>
      </trkpt>
      <trkpt lat="48.77984" lon="1.37985">
        <ele>122.71</ele>
        <time>2015-05-14T08:52:33Z</time>
      </trkpt>
      <trkpt lat="48.77974" lon="1.37992">
        <ele>122.22</ele>
        <time>2015-05-14T08:52:41Z</time>
      </trkpt>
      <trkpt lat="48.77961" lon="1.37999">
        <ele>124.63</ele>
        <time>2015-05-14T08:52:50Z</time>
      </trkpt>
      <trkpt lat="48.77952" lon="1.38006">
        <ele>124.15</ele>
        <time>2015-05-14T08:52:58Z</time>
      </trkpt>
      <trkpt lat="48.77948" lon="1.38009">
        <ele>126.07</ele>
        <time>2015-05-14T08:53:02Z</time>
      </trkpt>
      <trkpt lat="48.77939" lon="1.38023">
        <ele>126.07</ele>
        <time>2015-05-14T08:53:12Z</time>
      </trkpt>
      <trkpt lat="48.77935" lon="1.3803">
        <ele>127.51</ele>
        <time>2015-05-14T08:53:16Z</time>
      </trkpt>
      <trkpt lat="48.77926" lon="1.3804">
        <ele>128.47</ele>
        <time>2015-05-14T08:53:25Z</time>
      </trkpt>
      <trkpt lat="48.77919" lon="1.38052">
        <ele>128.47</ele>
        <time>2015-05-14T08:53:34Z</time>
      </trkpt>
      <trkpt lat="48.77911" lon="1.3806">
        <ele>128.95</ele>
        <time>2015-05-14T08:53:42Z</time>
      </trkpt>
      <trkpt lat="48.77903" lon="1.38072">
        <ele>129.43</ele>
        <time>2015-05-14T08:53:50Z</time>
      </trkpt>
      <trkpt lat="48.77893" lon="1.38085">
        <ele>129.43</ele>
        <time>2015-05-14T08:54:00Z</time>
      </trkpt>
      <trkpt lat="48.77882" lon="1.38099">
        <ele>129.92</ele>
        <time>2015-05-14T08:54:11Z</time>
      </trkpt>
      <trkpt lat="48.77874" lon="1.38112">
        <ele>130.4</ele>
        <time>2015-05-14T08:54:20Z</time>
      </trkpt>
      <trkpt lat="48.77867" lon="1.38122">
        <ele>130.4</ele>
        <time>2015-05-14T08:54:28Z</time>
      </trkpt>
      <trkpt lat="48.77863" lon="1.38127">
        <ele>130.88</ele>
        <time>2015-05-14T08:54:32Z</time>
      </trkpt>
      <trkpt lat="48.77852" lon="1.38144">
        <ele>130.88</ele>
        <time>2015-05-14T08:54:43Z</time>
      </trkpt>
      <trkpt lat="48.7784" lon="1.38159">
        <ele>130.88</ele>
        <time>2015-05-14T08:54:52Z</time>
      </trkpt>
      <trkpt lat="48.7783" lon="1.38173">
        <ele>130.88</ele>
        <time>2015-05-14T08:55:01Z</time>
      </trkpt>
      <trkpt lat="48.77821" lon="1.38183">
        <ele>131.36</ele>
        <time>2015-05-14T08:55:09Z</time>
      </trkpt>
      <trkpt lat="48.77811" lon="1.38193">
        <ele>131.84</ele>
        <time>2015-05-14T08:55:18Z</time>
      </trkpt>
      <trkpt lat="48.778" lon="1.38207">
        <ele>131.36</ele>
        <time>2015-05-14T08:55:28Z</time>
      </trkpt>
      <trkpt lat="48.7779" lon="1.38219">
        <ele>131.84</ele>
        <time>2015-05-14T08:55:37Z</time>
      </trkpt>
      <trkpt lat="48.7778" lon="1.38232">
        <ele>132.32</ele>
        <time>2015-05-14T08:55:46Z</time>
      </trkpt>
      <trkpt lat="48.77777" lon="1.38235">
        <ele>130.88</ele>
        <time>2015-05-14T08:55:48Z</time>
      </trkpt>
      <trkpt lat="48.77776" lon="1.38237">
        <ele>133.76</ele>
        <time>2015-05-14T08:55:49Z</time>
      </trkpt>
      <trkpt lat="48.77766" lon="1.3825">
        <ele>131.84</ele>
        <time>2015-05-14T08:55:59Z</time>
      </trkpt>
      <trkpt lat="48.77755" lon="1.38258">
        <ele>131.84</ele>
        <time>2015-05-14T08:56:08Z</time>
      </trkpt>
      <trkpt lat="48.7775" lon="1.38262">
        <ele>134.72</ele>
        <time>2015-05-14T08:56:12Z</time>
      </trkpt>
      <trkpt lat="48.77748" lon="1.38265">
        <ele>131.36</ele>
        <time>2015-05-14T08:56:14Z</time>
      </trkpt>
      <trkpt lat="48.77747" lon="1.38267">
        <ele>133.28</ele>
        <time>2015-05-14T08:56:16Z</time>
      </trkpt>
      <trkpt lat="48.77736" lon="1.3828">
        <ele>133.28</ele>
        <time>2015-05-14T08:56:26Z</time>
      </trkpt>
      <trkpt lat="48.77727" lon="1.38298">
        <ele>133.28</ele>
        <time>2015-05-14T08:56:36Z</time>
      </trkpt>
      <trkpt lat="48.7772" lon="1.38308">
        <ele>133.28</ele>
        <time>2015-05-14T08:56:43Z</time>
      </trkpt>
      <trkpt lat="48.77709" lon="1.38327">
        <ele>133.28</ele>
        <time>2015-05-14T08:56:53Z</time>
      </trkpt>
      <trkpt lat="48.77701" lon="1.38342">
        <ele>133.28</ele>
        <time>2015-05-14T08:57:02Z</time>
      </trkpt>
      <trkpt lat="48.77693" lon="1.38353">
        <ele>133.28</ele>
        <time>2015-05-14T08:57:10Z</time>
      </trkpt>
      <trkpt lat="48.77684" lon="1.38371">
        <ele>132.32</ele>
        <time>2015-05-14T08:57:21Z</time>
      </trkpt>
      <trkpt lat="48.77676" lon="1.38386">
        <ele>131.84</ele>
        <time>2015-05-14T08:57:30Z</time>
      </trkpt>
      <trkpt lat="48.77672" lon="1.38392">
        <ele>131.84</ele>
        <time>2015-05-14T08:57:35Z</time>
      </trkpt>
      <trkpt lat="48.7767" lon="1.38395">
        <ele>131.84</ele>
        <time>2015-05-14T08:57:37Z</time>
      </trkpt>
      <trkpt lat="48.7766" lon="1.38412">
        <ele>131.84</ele>
        <time>2015-05-14T08:57:46Z</time>
      </trkpt>
      <trkpt lat="48.77653" lon="1.38427">
        <ele>131.84</ele>
        <time>2015-05-14T08:57:54Z</time>
      </trkpt>
      <trkpt lat="48.77646" lon="1.3844">
        <ele>131.84</ele>
        <time>2015-05-14T08:58:03Z</time>
      </trkpt>
      <trkpt lat="48.77638" lon="1.38452">
        <ele>131.36</ele>
        <time>2015-05-14T08:58:12Z</time>
      </trkpt>
      <trkpt lat="48.77632" lon="1.38462">
        <ele>131.36</ele>
        <time>2015-05-14T08:58:20Z</time>
      </trkpt>
      <trkpt lat="48.77624" lon="1.38481">
        <ele>131.36</ele>
        <time>2015-05-14T08:58:30Z</time>
      </trkpt>
      <trkpt lat="48.77618" lon="1.3849">
        <ele>131.36</ele>
        <time>2015-05-14T08:58:36Z</time>
      </trkpt>
      <trkpt lat="48.77611" lon="1.38501">
        <ele>130.88</ele>
        <time>2015-05-14T08:58:43Z</time>
      </trkpt>
      <trkpt lat="48.77606" lon="1.38512">
        <ele>130.88</ele>
        <time>2015-05-14T08:58:48Z</time>
      </trkpt>
      <trkpt lat="48.77597" lon="1.3853">
        <ele>130.4</ele>
        <time>2015-05-14T08:58:58Z</time>
      </trkpt>
      <trkpt lat="48.77588" lon="1.38552">
        <ele>130.4</ele>
        <time>2015-05-14T08:59:09Z</time>
      </trkpt>
      <trkpt lat="48.77581" lon="1.38569">
        <ele>130.4</ele>
        <time>2015-05-14T08:59:19Z</time>
      </trkpt>
      <trkpt lat="48.77579" lon="1.38574">
        <ele>131.84</ele>
        <time>2015-05-14T08:59:22Z</time>
      </trkpt>
      <trkpt lat="48.77573" lon="1.38593">
        <ele>131.84</ele>
        <time>2015-05-14T08:59:32Z</time>
      </trkpt>
      <trkpt lat="48.77569" lon="1.38604">
        <ele>131.84</ele>
        <time>2015-05-14T08:59:38Z</time>
      </trkpt>
      <trkpt lat="48.77562" lon="1.38621">
        <ele>131.84</ele>
        <time>2015-05-14T08:59:48Z</time>
      </trkpt>
      <trkpt lat="48.77557" lon="1.38636">
        <ele>132.32</ele>
        <time>2015-05-14T08:59:56Z</time>
      </trkpt>
      <trkpt lat="48.77556" lon="1.3864">
        <ele>132.32</ele>
        <time>2015-05-14T08:59:58Z</time>
      </trkpt>
      <trkpt lat="48.77554" lon="1.3865">
        <ele>132.32</ele>
        <time>2015-05-14T09:00:02Z</time>
      </trkpt>
      <trkpt lat="48.77548" lon="1.38664">
        <ele>132.32</ele>
        <time>2015-05-14T09:00:10Z</time>
      </trkpt>
      <trkpt lat="48.77543" lon="1.38676">
        <ele>132.32</ele>
        <time>2015-05-14T09:00:17Z</time>
      </trkpt>
      <trkpt lat="48.77537" lon="1.38687">
        <ele>132.8</ele>
        <time>2015-05-14T09:00:24Z</time>
      </trkpt>
      <trkpt lat="48.77529" lon="1.38705">
        <ele>133.28</ele>
        <time>2015-05-14T09:00:34Z</time>
      </trkpt>
      <trkpt lat="48.7752" lon="1.38722">
        <ele>133.28</ele>
        <time>2015-05-14T09:00:45Z</time>
      </trkpt>
      <trkpt lat="48.77514" lon="1.38737">
        <ele>133.28</ele>
        <time>2015-05-14T09:00:54Z</time>
      </trkpt>
      <trkpt lat="48.77513" lon="1.38748">
        <ele>133.76</ele>
        <time>2015-05-14T09:01:01Z</time>
      </trkpt>
      <trkpt lat="48.77511" lon="1.3875">
        <ele>133.76</ele>
        <time>2015-05-14T09:01:14Z</time>
      </trkpt>
      <trkpt lat="48.77518" lon="1.38771">
        <ele>134.24</ele>
        <time>2015-05-14T09:01:23Z</time>
      </trkpt>
      <trkpt lat="48.77518" lon="1.38773">
        <ele>134.24</ele>
        <time>2015-05-14T09:01:30Z</time>
      </trkpt>
      <trkpt lat="48.77514" lon="1.38772">
        <ele>133.76</ele>
        <time>2015-05-14T09:01:44Z</time>
      </trkpt>
      <trkpt lat="48.77513" lon="1.38772">
        <ele>133.76</ele>
        <time>2015-05-14T09:01:45Z</time>
      </trkpt>
      <trkpt lat="48.77504" lon="1.3878">
        <ele>133.76</ele>
        <time>2015-05-14T09:01:54Z</time>
      </trkpt>
      <trkpt lat="48.77496" lon="1.38793">
        <ele>133.76</ele>
        <time>2015-05-14T09:02:03Z</time>
      </trkpt>
      <trkpt lat="48.77493" lon="1.38799">
        <ele>132.32</ele>
        <time>2015-05-14T09:02:07Z</time>
      </trkpt>
      <trkpt lat="48.7749" lon="1.38817">
        <ele>132.32</ele>
        <time>2015-05-14T09:02:16Z</time>
      </trkpt>
      <trkpt lat="48.77484" lon="1.38835">
        <ele>133.76</ele>
        <time>2015-05-14T09:02:25Z</time>
      </trkpt>
      <trkpt lat="48.77481" lon="1.38849">
        <ele>132.32</ele>
        <time>2015-05-14T09:02:33Z</time>
      </trkpt>
      <trkpt lat="48.77479" lon="1.38857">
        <ele>132.8</ele>
        <time>2015-05-14T09:02:37Z</time>
      </trkpt>
      <trkpt lat="48.77472" lon="1.38877">
        <ele>132.32</ele>
        <time>2015-05-14T09:02:48Z</time>
      </trkpt>
      <trkpt lat="48.77466" lon="1.38894">
        <ele>132.32</ele>
        <time>2015-05-14T09:02:57Z</time>
      </trkpt>
      <trkpt lat="48.77463" lon="1.38909">
        <ele>132.32</ele>
        <time>2015-05-14T09:03:04Z</time>
      </trkpt>
      <trkpt lat="48.77461" lon="1.38925">
        <ele>132.8</ele>
        <time>2015-05-14T09:03:10Z</time>
      </trkpt>
      <trkpt lat="48.77458" lon="1.38942">
        <ele>131.84</ele>
        <time>2015-05-14T09:03:19Z</time>
      </trkpt>
      <trkpt lat="48.77454" lon="1.38961">
        <ele>131.84</ele>
        <time>2015-05-14T09:03:29Z</time>
      </trkpt>
      <trkpt lat="48.7745" lon="1.38981">
        <ele>131.84</ele>
        <time>2015-05-14T09:03:39Z</time>
      </trkpt>
      <trkpt lat="48.7745" lon="1.38998">
        <ele>131.84</ele>
        <time>2015-05-14T09:03:47Z</time>
      </trkpt>
      <trkpt lat="48.7745" lon="1.39016">
        <ele>131.84</ele>
        <time>2015-05-14T09:03:55Z</time>
      </trkpt>
      <trkpt lat="48.77447" lon="1.39033">
        <ele>131.84</ele>
        <time>2015-05-14T09:04:04Z</time>
      </trkpt>
      <trkpt lat="48.77444" lon="1.39054">
        <ele>131.84</ele>
        <time>2015-05-14T09:04:14Z</time>
      </trkpt>
      <trkpt lat="48.77442" lon="1.3906">
        <ele>131.36</ele>
        <time>2015-05-14T09:04:17Z</time>
      </trkpt>
      <trkpt lat="48.77439" lon="1.39068">
        <ele>131.36</ele>
        <time>2015-05-14T09:04:21Z</time>
      </trkpt>
      <trkpt lat="48.77438" lon="1.39079">
        <ele>131.36</ele>
        <time>2015-05-14T09:04:25Z</time>
      </trkpt>
      <trkpt lat="48.7744" lon="1.391">
        <ele>131.36</ele>
        <time>2015-05-14T09:04:35Z</time>
      </trkpt>
      <trkpt lat="48.77443" lon="1.39119">
        <ele>131.36</ele>
        <time>2015-05-14T09:04:44Z</time>
      </trkpt>
      <trkpt lat="48.77448" lon="1.39144">
        <ele>130.88</ele>
        <time>2015-05-14T09:04:54Z</time>
      </trkpt>
      <trkpt lat="48.77447" lon="1.39161">
        <ele>130.88</ele>
        <time>2015-05-14T09:05:02Z</time>
      </trkpt>
      <trkpt lat="48.77446" lon="1.39163">
        <ele>130.88</ele>
        <time>2015-05-14T09:05:03Z</time>
      </trkpt>
      <trkpt lat="48.77441" lon="1.39181">
        <ele>130.88</ele>
        <time>2015-05-14T09:05:13Z</time>
      </trkpt>
      <trkpt lat="48.77435" lon="1.39199">
        <ele>130.4</ele>
        <time>2015-05-14T09:05:23Z</time>
      </trkpt>
      <trkpt lat="48.77437" lon="1.39215">
        <ele>130.4</ele>
        <time>2015-05-14T09:05:31Z</time>
      </trkpt>
      <trkpt lat="48.77438" lon="1.39221">
        <ele>130.4</ele>
        <time>2015-05-14T09:05:34Z</time>
      </trkpt>
      <trkpt lat="48.77438" lon="1.39249">
        <ele>130.4</ele>
        <time>2015-05-14T09:05:46Z</time>
      </trkpt>
      <trkpt lat="48.77437" lon="1.39264">
        <ele>130.4</ele>
        <time>2015-05-14T09:05:52Z</time>
      </trkpt>
      <trkpt lat="48.77432" lon="1.39282">
        <ele>130.4</ele>
        <time>2015-05-14T09:06:02Z</time>
      </trkpt>
      <trkpt lat="48.77429" lon="1.39294">
        <ele>128.95</ele>
        <time>2015-05-14T09:06:09Z</time>
      </trkpt>
      <trkpt lat="48.77426" lon="1.39311">
        <ele>127.99</ele>
        <time>2015-05-14T09:06:18Z</time>
      </trkpt>
      <trkpt lat="48.77421" lon="1.39324">
        <ele>127.03</ele>
        <time>2015-05-14T09:06:26Z</time>
      </trkpt>
      <trkpt lat="48.77419" lon="1.39331">
        <ele>127.03</ele>
        <time>2015-05-14T09:06:30Z</time>
      </trkpt>
      <trkpt lat="48.77417" lon="1.39338">
        <ele>127.03</ele>
        <time>2015-05-14T09:06:34Z</time>
      </trkpt>
      <trkpt lat="48.77413" lon="1.39355">
        <ele>128.95</ele>
        <time>2015-05-14T09:06:43Z</time>
      </trkpt>
      <trkpt lat="48.77411" lon="1.39373">
        <ele>130.4</ele>
        <time>2015-05-14T09:06:53Z</time>
      </trkpt>
      <trkpt lat="48.77408" lon="1.3939">
        <ele>131.36</ele>
        <time>2015-05-14T09:07:01Z</time>
      </trkpt>
      <trkpt lat="48.77404" lon="1.39403">
        <ele>131.36</ele>
        <time>2015-05-14T09:07:09Z</time>
      </trkpt>
      <trkpt lat="48.77399" lon="1.39418">
        <ele>132.32</ele>
        <time>2015-05-14T09:07:19Z</time>
      </trkpt>
      <trkpt lat="48.77395" lon="1.39433">
        <ele>133.76</ele>
        <time>2015-05-14T09:07:28Z</time>
      </trkpt>
      <trkpt lat="48.77392" lon="1.39449">
        <ele>133.76</ele>
        <time>2015-05-14T09:07:37Z</time>
      </trkpt>
      <trkpt lat="48.77385" lon="1.39462">
        <ele>133.76</ele>
        <time>2015-05-14T09:07:46Z</time>
      </trkpt>
      <trkpt lat="48.77379" lon="1.39472">
        <ele>134.24</ele>
        <time>2015-05-14T09:07:54Z</time>
      </trkpt>
      <trkpt lat="48.77372" lon="1.39492">
        <ele>134.72</ele>
        <time>2015-05-14T09:08:04Z</time>
      </trkpt>
      <trkpt lat="48.77369" lon="1.39502">
        <ele>134.72</ele>
        <time>2015-05-14T09:08:09Z</time>
      </trkpt>
      <trkpt lat="48.77362" lon="1.39528">
        <ele>135.2</ele>
        <time>2015-05-14T09:08:22Z</time>
      </trkpt>
      <trkpt lat="48.77356" lon="1.39546">
        <ele>135.2</ele>
        <time>2015-05-14T09:08:32Z</time>
      </trkpt>
      <trkpt lat="48.7735" lon="1.39564">
        <ele>135.68</ele>
        <time>2015-05-14T09:08:42Z</time>
      </trkpt>
      <trkpt lat="48.77343" lon="1.39587">
        <ele>135.68</ele>
        <time>2015-05-14T09:08:53Z</time>
      </trkpt>
      <trkpt lat="48.77338" lon="1.39607">
        <ele>134.72</ele>
        <time>2015-05-14T09:09:02Z</time>
      </trkpt>
      <trkpt lat="48.77336" lon="1.39627">
        <ele>134.72</ele>
        <time>2015-05-14T09:09:10Z</time>
      </trkpt>
      <trkpt lat="48.77332" lon="1.39649">
        <ele>134.72</ele>
        <time>2015-05-14T09:09:20Z</time>
      </trkpt>
      <trkpt lat="48.7733" lon="1.3967">
        <ele>134.72</ele>
        <time>2015-05-14T09:09:30Z</time>
      </trkpt>
      <trkpt lat="48.77326" lon="1.3969">
        <ele>134.72</ele>
        <time>2015-05-14T09:09:41Z</time>
      </trkpt>
      <trkpt lat="48.77324" lon="1.39709">
        <ele>136.64</ele>
        <time>2015-05-14T09:09:49Z</time>
      </trkpt>
      <trkpt lat="48.77324" lon="1.39715">
        <ele>136.64</ele>
        <time>2015-05-14T09:09:51Z</time>
      </trkpt>
      <trkpt lat="48.77323" lon="1.39726">
        <ele>136.64</ele>
        <time>2015-05-14T09:09:55Z</time>
      </trkpt>
      <trkpt lat="48.7732" lon="1.39749">
        <ele>135.2</ele>
        <time>2015-05-14T09:10:06Z</time>
      </trkpt>
      <trkpt lat="48.77318" lon="1.39764">
        <ele>135.2</ele>
        <time>2015-05-14T09:10:14Z</time>
      </trkpt>
      <trkpt lat="48.77316" lon="1.39779">
        <ele>135.68</ele>
        <time>2015-05-14T09:10:21Z</time>
      </trkpt>
      <trkpt lat="48.77313" lon="1.39799">
        <ele>135.2</ele>
        <time>2015-05-14T09:10:31Z</time>
      </trkpt>
      <trkpt lat="48.77311" lon="1.39817">
        <ele>135.2</ele>
        <time>2015-05-14T09:10:39Z</time>
      </trkpt>
      <trkpt lat="48.77309" lon="1.39828">
        <ele>135.2</ele>
        <time>2015-05-14T09:10:44Z</time>
      </trkpt>
      <trkpt lat="48.77308" lon="1.39841">
        <ele>135.2</ele>
        <time>2015-05-14T09:10:51Z</time>
      </trkpt>
      <trkpt lat="48.77306" lon="1.39864">
        <ele>135.2</ele>
        <time>2015-05-14T09:11:01Z</time>
      </trkpt>
      <trkpt lat="48.77303" lon="1.39884">
        <ele>135.2</ele>
        <time>2015-05-14T09:11:09Z</time>
      </trkpt>
      <trkpt lat="48.773" lon="1.39907">
        <ele>135.2</ele>
        <time>2015-05-14T09:11:19Z</time>
      </trkpt>
      <trkpt lat="48.77296" lon="1.39925">
        <ele>135.2</ele>
        <time>2015-05-14T09:11:29Z</time>
      </trkpt>
      <trkpt lat="48.7729" lon="1.39936">
        <ele>135.2</ele>
        <time>2015-05-14T09:11:38Z</time>
      </trkpt>
      <trkpt lat="48.77285" lon="1.39946">
        <ele>135.68</ele>
        <time>2015-05-14T09:11:45Z</time>
      </trkpt>
      <trkpt lat="48.77283" lon="1.3995">
        <ele>135.68</ele>
        <time>2015-05-14T09:11:48Z</time>
      </trkpt>
      <trkpt lat="48.77281" lon="1.39954">
        <ele>135.68</ele>
        <time>2015-05-14T09:11:51Z</time>
      </trkpt>
      <trkpt lat="48.77274" lon="1.39971">
        <ele>135.68</ele>
        <time>2015-05-14T09:12:01Z</time>
      </trkpt>
      <trkpt lat="48.77265" lon="1.39991">
        <ele>135.68</ele>
        <time>2015-05-14T09:12:12Z</time>
      </trkpt>
      <trkpt lat="48.77258" lon="1.40008">
        <ele>135.68</ele>
        <time>2015-05-14T09:12:21Z</time>
      </trkpt>
      <trkpt lat="48.77251" lon="1.40028">
        <ele>135.2</ele>
        <time>2015-05-14T09:12:31Z</time>
      </trkpt>
      <trkpt lat="48.77242" lon="1.40053">
        <ele>135.2</ele>
        <time>2015-05-14T09:12:43Z</time>
      </trkpt>
      <trkpt lat="48.77241" lon="1.40063">
        <ele>135.2</ele>
        <time>2015-05-14T09:12:46Z</time>
      </trkpt>
      <trkpt lat="48.77245" lon="1.40091">
        <ele>135.2</ele>
        <time>2015-05-14T09:12:56Z</time>
      </trkpt>
      <trkpt lat="48.7725" lon="1.40119">
        <ele>135.2</ele>
        <time>2015-05-14T09:13:06Z</time>
      </trkpt>
      <trkpt lat="48.77253" lon="1.4014">
        <ele>134.72</ele>
        <time>2015-05-14T09:13:16Z</time>
      </trkpt>
      <trkpt lat="48.77259" lon="1.40157">
        <ele>134.24</ele>
        <time>2015-05-14T09:13:24Z</time>
      </trkpt>
      <trkpt lat="48.77265" lon="1.40174">
        <ele>134.24</ele>
        <time>2015-05-14T09:13:32Z</time>
      </trkpt>
      <trkpt lat="48.77267" lon="1.40179">
        <ele>134.24</ele>
        <time>2015-05-14T09:13:35Z</time>
      </trkpt>
      <trkpt lat="48.77268" lon="1.40182">
        <ele>134.24</ele>
        <time>2015-05-14T09:13:37Z</time>
      </trkpt>
      <trkpt lat="48.77271" lon="1.40196">
        <ele>134.24</ele>
        <time>2015-05-14T09:13:45Z</time>
      </trkpt>
      <trkpt lat="48.77272" lon="1.40198">
        <ele>134.24</ele>
        <time>2015-05-14T09:13:47Z</time>
      </trkpt>
      <trkpt lat="48.77275" lon="1.40198">
        <ele>135.2</ele>
        <time>2015-05-14T09:13:50Z</time>
      </trkpt>
      <trkpt lat="48.77287" lon="1.40196">
        <ele>135.68</ele>
        <time>2015-05-14T09:13:59Z</time>
      </trkpt>
      <trkpt lat="48.7729" lon="1.40195">
        <ele>135.68</ele>
        <time>2015-05-14T09:14:02Z</time>
      </trkpt>
      <trkpt lat="48.77294" lon="1.40201">
        <ele>135.68</ele>
        <time>2015-05-14T09:14:06Z</time>
      </trkpt>
      <trkpt lat="48.773" lon="1.40212">
        <ele>135.68</ele>
        <time>2015-05-14T09:14:13Z</time>
      </trkpt>
      <trkpt lat="48.77301" lon="1.40216">
        <ele>135.68</ele>
        <time>2015-05-14T09:14:16Z</time>
      </trkpt>
      <trkpt lat="48.77296" lon="1.40223">
        <ele>136.16</ele>
        <time>2015-05-14T09:14:25Z</time>
      </trkpt>
      <trkpt lat="48.77296" lon="1.40224">
        <ele>136.64</ele>
        <time>2015-05-14T09:14:32Z</time>
      </trkpt>
      <trkpt lat="48.77297" lon="1.40218">
        <ele>136.64</ele>
        <time>2015-05-14T09:14:36Z</time>
      </trkpt>
      <trkpt lat="48.77291" lon="1.40216">
        <ele>136.16</ele>
        <time>2015-05-14T09:14:41Z</time>
      </trkpt>
      <trkpt lat="48.7728" lon="1.40222">
        <ele>136.16</ele>
        <time>2015-05-14T09:14:52Z</time>
      </trkpt>
      <trkpt lat="48.77273" lon="1.40229">
        <ele>135.2</ele>
        <time>2015-05-14T09:15:01Z</time>
      </trkpt>
      <trkpt lat="48.77264" lon="1.40233">
        <ele>135.2</ele>
        <time>2015-05-14T09:15:10Z</time>
      </trkpt>
      <trkpt lat="48.77259" lon="1.40232">
        <ele>135.2</ele>
        <time>2015-05-14T09:15:13Z</time>
      </trkpt>
      <trkpt lat="48.7724" lon="1.40247">
        <ele>135.2</ele>
        <time>2015-05-14T09:15:24Z</time>
      </trkpt>
      <trkpt lat="48.77229" lon="1.40254">
        <ele>134.72</ele>
        <time>2015-05-14T09:15:33Z</time>
      </trkpt>
      <trkpt lat="48.77222" lon="1.40266">
        <ele>134.72</ele>
        <time>2015-05-14T09:15:42Z</time>
      </trkpt>
      <trkpt lat="48.77217" lon="1.40276">
        <ele>134.72</ele>
        <time>2015-05-14T09:15:49Z</time>
      </trkpt>
      <trkpt lat="48.77208" lon="1.40286">
        <ele>134.72</ele>
        <time>2015-05-14T09:15:57Z</time>
      </trkpt>
      <trkpt lat="48.772" lon="1.40297">
        <ele>134.72</ele>
        <time>2015-05-14T09:16:05Z</time>
      </trkpt>
      <trkpt lat="48.77191" lon="1.40308">
        <ele>134.24</ele>
        <time>2015-05-14T09:16:13Z</time>
      </trkpt>
      <trkpt lat="48.7719" lon="1.40309">
        <ele>134.24</ele>
        <time>2015-05-14T09:16:14Z</time>
      </trkpt>
      <trkpt lat="48.77185" lon="1.40325">
        <ele>135.68</ele>
        <time>2015-05-14T09:16:21Z</time>
      </trkpt>
      <trkpt lat="48.77185" lon="1.40341">
        <ele>135.68</ele>
        <time>2015-05-14T09:16:29Z</time>
      </trkpt>
      <trkpt lat="48.77186" lon="1.40355">
        <ele>136.64</ele>
        <time>2015-05-14T09:16:38Z</time>
      </trkpt>
      <trkpt lat="48.77189" lon="1.4037">
        <ele>136.64</ele>
        <time>2015-05-14T09:16:47Z</time>
      </trkpt>
      <trkpt lat="48.77193" lon="1.40385">
        <ele>136.64</ele>
        <time>2015-05-14T09:16:56Z</time>
      </trkpt>
      <trkpt lat="48.77199" lon="1.40395">
        <ele>136.64</ele>
        <time>2015-05-14T09:17:04Z</time>
      </trkpt>
      <trkpt lat="48.77211" lon="1.40415">
        <ele>136.64</ele>
        <time>2015-05-14T09:17:14Z</time>
      </trkpt>
      <trkpt lat="48.77217" lon="1.40428">
        <ele>136.64</ele>
        <time>2015-05-14T09:17:22Z</time>
      </trkpt>
      <trkpt lat="48.77225" lon="1.40447">
        <ele>136.64</ele>
        <time>2015-05-14T09:17:30Z</time>
      </trkpt>
      <trkpt lat="48.77228" lon="1.40461">
        <ele>136.64</ele>
        <time>2015-05-14T09:17:37Z</time>
      </trkpt>
      <trkpt lat="48.77228" lon="1.4047">
        <ele>136.64</ele>
        <time>2015-05-14T09:17:42Z</time>
      </trkpt>
      <trkpt lat="48.77233" lon="1.40482">
        <ele>136.64</ele>
        <time>2015-05-14T09:17:50Z</time>
      </trkpt>
      <trkpt lat="48.77238" lon="1.40498">
        <ele>136.64</ele>
        <time>2015-05-14T09:18:00Z</time>
      </trkpt>
      <trkpt lat="48.77241" lon="1.40511">
        <ele>136.64</ele>
        <time>2015-05-14T09:18:07Z</time>
      </trkpt>
      <trkpt lat="48.77249" lon="1.40526">
        <ele>136.16</ele>
        <time>2015-05-14T09:18:16Z</time>
      </trkpt>
      <trkpt lat="48.77257" lon="1.40537">
        <ele>136.16</ele>
        <time>2015-05-14T09:18:24Z</time>
      </trkpt>
      <trkpt lat="48.77259" lon="1.40542">
        <ele>136.16</ele>
        <time>2015-05-14T09:18:27Z</time>
      </trkpt>
      <trkpt lat="48.77269" lon="1.40568">
        <ele>136.16</ele>
        <time>2015-05-14T09:18:38Z</time>
      </trkpt>
      <trkpt lat="48.77276" lon="1.40584">
        <ele>136.16</ele>
        <time>2015-05-14T09:18:47Z</time>
      </trkpt>
      <trkpt lat="48.77282" lon="1.40599">
        <ele>135.68</ele>
        <time>2015-05-14T09:18:56Z</time>
      </trkpt>
      <trkpt lat="48.77291" lon="1.40608">
        <ele>135.68</ele>
        <time>2015-05-14T09:19:04Z</time>
      </trkpt>
      <trkpt lat="48.77298" lon="1.40618">
        <ele>136.16</ele>
        <time>2015-05-14T09:19:11Z</time>
      </trkpt>
      <trkpt lat="48.77307" lon="1.40638">
        <ele>136.16</ele>
        <time>2015-05-14T09:19:21Z</time>
      </trkpt>
      <trkpt lat="48.77316" lon="1.40653">
        <ele>136.16</ele>
        <time>2015-05-14T09:19:30Z</time>
      </trkpt>
      <trkpt lat="48.77319" lon="1.40661">
        <ele>136.16</ele>
        <time>2015-05-14T09:19:35Z</time>
      </trkpt>
      <trkpt lat="48.7732" lon="1.40668">
        <ele>134.72</ele>
        <time>2015-05-14T09:19:39Z</time>
      </trkpt>
      <trkpt lat="48.77323" lon="1.40674">
        <ele>134.72</ele>
        <time>2015-05-14T09:19:43Z</time>
      </trkpt>
      <trkpt lat="48.77324" lon="1.40676">
        <ele>134.72</ele>
        <time>2015-05-14T09:19:45Z</time>
      </trkpt>
      <trkpt lat="48.77331" lon="1.40688">
        <ele>134.72</ele>
        <time>2015-05-14T09:19:52Z</time>
      </trkpt>
      <trkpt lat="48.77341" lon="1.40706">
        <ele>134.72</ele>
        <time>2015-05-14T09:20:03Z</time>
      </trkpt>
      <trkpt lat="48.77349" lon="1.40717">
        <ele>134.24</ele>
        <time>2015-05-14T09:20:12Z</time>
      </trkpt>
      <trkpt lat="48.7736" lon="1.40736">
        <ele>134.24</ele>
        <time>2015-05-14T09:20:22Z</time>
      </trkpt>
      <trkpt lat="48.77367" lon="1.40747">
        <ele>134.24</ele>
        <time>2015-05-14T09:20:29Z</time>
      </trkpt>
      <trkpt lat="48.77376" lon="1.40758">
        <ele>134.24</ele>
        <time>2015-05-14T09:20:38Z</time>
      </trkpt>
      <trkpt lat="48.77381" lon="1.40775">
        <ele>134.24</ele>
        <time>2015-05-14T09:20:47Z</time>
      </trkpt>
      <trkpt lat="48.77386" lon="1.40786">
        <ele>134.24</ele>
        <time>2015-05-14T09:20:54Z</time>
      </trkpt>
      <trkpt lat="48.77397" lon="1.40801">
        <ele>133.76</ele>
        <time>2015-05-14T09:21:03Z</time>
      </trkpt>
      <trkpt lat="48.77404" lon="1.40825">
        <ele>133.76</ele>
        <time>2015-05-14T09:21:13Z</time>
      </trkpt>
      <trkpt lat="48.77405" lon="1.40841">
        <ele>133.76</ele>
        <time>2015-05-14T09:21:22Z</time>
      </trkpt>
      <trkpt lat="48.77402" lon="1.40855">
        <ele>133.76</ele>
        <time>2015-05-14T09:21:31Z</time>
      </trkpt>
      <trkpt lat="48.77398" lon="1.40868">
        <ele>133.28</ele>
        <time>2015-05-14T09:21:39Z</time>
      </trkpt>
      <trkpt lat="48.77397" lon="1.40869">
        <ele>133.28</ele>
        <time>2015-05-14T09:21:46Z</time>
      </trkpt>
      <trkpt lat="48.77397" lon="1.40867">
        <ele>133.28</ele>
        <time>2015-05-14T09:22:02Z</time>
      </trkpt>
      <trkpt lat="48.77396" lon="1.40878">
        <ele>132.8</ele>
        <time>2015-05-14T09:22:10Z</time>
      </trkpt>
      <trkpt lat="48.77396" lon="1.40879">
        <ele>132.8</ele>
        <time>2015-05-14T09:22:12Z</time>
      </trkpt>
      <trkpt lat="48.77396" lon="1.40907">
        <ele>132.8</ele>
        <time>2015-05-14T09:22:24Z</time>
      </trkpt>
      <trkpt lat="48.77397" lon="1.40926">
        <ele>132.32</ele>
        <time>2015-05-14T09:22:32Z</time>
      </trkpt>
      <trkpt lat="48.774" lon="1.40943">
        <ele>132.32</ele>
        <time>2015-05-14T09:22:40Z</time>
      </trkpt>
      <trkpt lat="48.77406" lon="1.40968">
        <ele>131.36</ele>
        <time>2015-05-14T09:22:50Z</time>
      </trkpt>
      <trkpt lat="48.77406" lon="1.40976">
        <ele>131.36</ele>
        <time>2015-05-14T09:22:58Z</time>
      </trkpt>
      <trkpt lat="48.77405" lon="1.4098">
        <ele>131.36</ele>
        <time>2015-05-14T09:23:11Z</time>
      </trkpt>
      <trkpt lat="48.774" lon="1.40987">
        <ele>131.36</ele>
        <time>2015-05-14T09:23:17Z</time>
      </trkpt>
      <trkpt lat="48.77392" lon="1.41">
        <ele>130.4</ele>
        <time>2015-05-14T09:23:27Z</time>
      </trkpt>
      <trkpt lat="48.77385" lon="1.41017">
        <ele>129.92</ele>
        <time>2015-05-14T09:23:37Z</time>
      </trkpt>
      <trkpt lat="48.77377" lon="1.41033">
        <ele>128.95</ele>
        <time>2015-05-14T09:23:46Z</time>
      </trkpt>
      <trkpt lat="48.7737" lon="1.41061">
        <ele>127.99</ele>
        <time>2015-05-14T09:23:59Z</time>
      </trkpt>
      <trkpt lat="48.77359" lon="1.41064">
        <ele>127.99</ele>
        <time>2015-05-14T09:24:08Z</time>
      </trkpt>
      <trkpt lat="48.77356" lon="1.41063">
        <ele>127.99</ele>
        <time>2015-05-14T09:24:10Z</time>
      </trkpt>
      <trkpt lat="48.77338" lon="1.41056">
        <ele>127.99</ele>
        <time>2015-05-14T09:24:21Z</time>
      </trkpt>
      <trkpt lat="48.77331" lon="1.41049">
        <ele>127.99</ele>
        <time>2015-05-14T09:24:27Z</time>
      </trkpt>
      <trkpt lat="48.77315" lon="1.41044">
        <ele>127.99</ele>
        <time>2015-05-14T09:24:37Z</time>
      </trkpt>
      <trkpt lat="48.77298" lon="1.41046">
        <ele>127.99</ele>
        <time>2015-05-14T09:24:47Z</time>
      </trkpt>
      <trkpt lat="48.77288" lon="1.41049">
        <ele>126.55</ele>
        <time>2015-05-14T09:24:56Z</time>
      </trkpt>
      <trkpt lat="48.77288" lon="1.41052">
        <ele>126.55</ele>
        <time>2015-05-14T09:24:57Z</time>
      </trkpt>
      <trkpt lat="48.77286" lon="1.41075">
        <ele>125.11</ele>
        <time>2015-05-14T09:25:08Z</time>
      </trkpt>
      <trkpt lat="48.77282" lon="1.41083">
        <ele>124.63</ele>
        <time>2015-05-14T09:25:13Z</time>
      </trkpt>
      <trkpt lat="48.77272" lon="1.41099">
        <ele>122.71</ele>
        <time>2015-05-14T09:25:23Z</time>
      </trkpt>
      <trkpt lat="48.77265" lon="1.41118">
        <ele>120.78</ele>
        <time>2015-05-14T09:25:32Z</time>
      </trkpt>
      <trkpt lat="48.77264" lon="1.41138">
        <ele>118.86</ele>
        <time>2015-05-14T09:25:40Z</time>
      </trkpt>
      <trkpt lat="48.77263" lon="1.41141">
        <ele>118.86</ele>
        <time>2015-05-14T09:25:42Z</time>
      </trkpt>
      <trkpt lat="48.77262" lon="1.4116">
        <ele>116.46</ele>
        <time>2015-05-14T09:25:51Z</time>
      </trkpt>
      <trkpt lat="48.77265" lon="1.41174">
        <ele>115.5</ele>
        <time>2015-05-14T09:25:59Z</time>
      </trkpt>
      <trkpt lat="48.77266" lon="1.41178">
        <ele>115.5</ele>
        <time>2015-05-14T09:26:01Z</time>
      </trkpt>
      <trkpt lat="48.77273" lon="1.412">
        <ele>114.05</ele>
        <time>2015-05-14T09:26:10Z</time>
      </trkpt>
      <trkpt lat="48.77275" lon="1.41207">
        <ele>113.57</ele>
        <time>2015-05-14T09:26:15Z</time>
      </trkpt>
      <trkpt lat="48.77278" lon="1.41218">
        <ele>112.61</ele>
        <time>2015-05-14T09:26:21Z</time>
      </trkpt>
      <trkpt lat="48.77281" lon="1.41225">
        <ele>111.17</ele>
        <time>2015-05-14T09:26:25Z</time>
      </trkpt>
      <trkpt lat="48.77285" lon="1.41239">
        <ele>111.17</ele>
        <time>2015-05-14T09:26:33Z</time>
      </trkpt>
      <trkpt lat="48.77283" lon="1.41244">
        <ele>109.73</ele>
        <time>2015-05-14T09:26:38Z</time>
      </trkpt>
      <trkpt lat="48.77272" lon="1.41253">
        <ele>106.36</ele>
        <time>2015-05-14T09:26:48Z</time>
      </trkpt>
      <trkpt lat="48.77262" lon="1.41253">
        <ele>104.44</ele>
        <time>2015-05-14T09:26:56Z</time>
      </trkpt>
      <trkpt lat="48.77259" lon="1.4126">
        <ele>103</ele>
        <time>2015-05-14T09:27:02Z</time>
      </trkpt>
      <trkpt lat="48.77256" lon="1.41266">
        <ele>101.56</ele>
        <time>2015-05-14T09:27:07Z</time>
      </trkpt>
      <trkpt lat="48.77258" lon="1.41284">
        <ele>99.63</ele>
        <time>2015-05-14T09:27:15Z</time>
      </trkpt>
      <trkpt lat="48.77262" lon="1.41297">
        <ele>98.67</ele>
        <time>2015-05-14T09:27:22Z</time>
      </trkpt>
      <trkpt lat="48.77263" lon="1.4131">
        <ele>96.75</ele>
        <time>2015-05-14T09:27:31Z</time>
      </trkpt>
      <trkpt lat="48.77262" lon="1.41317">
        <ele>96.27</ele>
        <time>2015-05-14T09:27:36Z</time>
      </trkpt>
      <trkpt lat="48.77259" lon="1.41335">
        <ele>93.87</ele>
        <time>2015-05-14T09:27:45Z</time>
      </trkpt>
      <trkpt lat="48.77255" lon="1.41352">
        <ele>92.9</ele>
        <time>2015-05-14T09:27:55Z</time>
      </trkpt>
      <trkpt lat="48.77249" lon="1.41365">
        <ele>92.42</ele>
        <time>2015-05-14T09:28:04Z</time>
      </trkpt>
      <trkpt lat="48.77248" lon="1.41371">
        <ele>92.42</ele>
        <time>2015-05-14T09:28:06Z</time>
      </trkpt>
      <trkpt lat="48.77251" lon="1.4139">
        <ele>91.46</ele>
        <time>2015-05-14T09:28:15Z</time>
      </trkpt>
      <trkpt lat="48.77255" lon="1.41404">
        <ele>91.46</ele>
        <time>2015-05-14T09:28:23Z</time>
      </trkpt>
      <trkpt lat="48.77256" lon="1.41407">
        <ele>91.46</ele>
        <time>2015-05-14T09:28:24Z</time>
      </trkpt>
      <trkpt lat="48.77266" lon="1.41426">
        <ele>91.46</ele>
        <time>2015-05-14T09:28:35Z</time>
      </trkpt>
      <trkpt lat="48.77273" lon="1.41436">
        <ele>92.42</ele>
        <time>2015-05-14T09:28:44Z</time>
      </trkpt>
      <trkpt lat="48.77281" lon="1.41449">
        <ele>92.42</ele>
        <time>2015-05-14T09:28:53Z</time>
      </trkpt>
      <trkpt lat="48.77294" lon="1.41463">
        <ele>92.42</ele>
        <time>2015-05-14T09:29:04Z</time>
      </trkpt>
      <trkpt lat="48.77304" lon="1.41472">
        <ele>93.39</ele>
        <time>2015-05-14T09:29:14Z</time>
      </trkpt>
      <trkpt lat="48.77311" lon="1.41481">
        <ele>92.9</ele>
        <time>2015-05-14T09:29:23Z</time>
      </trkpt>
      <trkpt lat="48.77322" lon="1.41489">
        <ele>92.9</ele>
        <time>2015-05-14T09:29:32Z</time>
      </trkpt>
      <trkpt lat="48.77335" lon="1.41504">
        <ele>93.39</ele>
        <time>2015-05-14T09:29:43Z</time>
      </trkpt>
      <trkpt lat="48.77343" lon="1.41518">
        <ele>93.87</ele>
        <time>2015-05-14T09:29:53Z</time>
      </trkpt>
      <trkpt lat="48.77344" lon="1.4152">
        <ele>93.87</ele>
        <time>2015-05-14T09:29:55Z</time>
      </trkpt>
      <trkpt lat="48.77347" lon="1.41524">
        <ele>93.87</ele>
        <time>2015-05-14T09:29:59Z</time>
      </trkpt>
      <trkpt lat="48.7735" lon="1.41526">
        <ele>93.87</ele>
        <time>2015-05-14T09:30:02Z</time>
      </trkpt>
      <trkpt lat="48.77359" lon="1.41535">
        <ele>93.39</ele>
        <time>2015-05-14T09:30:10Z</time>
      </trkpt>
      <trkpt lat="48.7737" lon="1.41551">
        <ele>93.87</ele>
        <time>2015-05-14T09:30:21Z</time>
      </trkpt>
      <trkpt lat="48.77378" lon="1.41554">
        <ele>93.87</ele>
        <time>2015-05-14T09:30:28Z</time>
      </trkpt>
      <trkpt lat="48.77392" lon="1.41563">
        <ele>94.35</ele>
        <time>2015-05-14T09:30:37Z</time>
      </trkpt>
      <trkpt lat="48.77404" lon="1.41568">
        <ele>94.35</ele>
        <time>2015-05-14T09:30:47Z</time>
      </trkpt>
      <trkpt lat="48.77413" lon="1.41573">
        <ele>94.35</ele>
        <time>2015-05-14T09:30:56Z</time>
      </trkpt>
      <trkpt lat="48.77413" lon="1.41576">
        <ele>94.35</ele>
        <time>2015-05-14T09:30:58Z</time>
      </trkpt>
      <trkpt lat="48.77418" lon="1.41586">
        <ele>94.83</ele>
        <time>2015-05-14T09:31:04Z</time>
      </trkpt>
      <trkpt lat="48.77432" lon="1.41594">
        <ele>94.83</ele>
        <time>2015-05-14T09:31:14Z</time>
      </trkpt>
      <trkpt lat="48.7744" lon="1.41589">
        <ele>94.83</ele>
        <time>2015-05-14T09:31:23Z</time>
      </trkpt>
      <trkpt lat="48.77445" lon="1.41593">
        <ele>95.31</ele>
        <time>2015-05-14T09:31:27Z</time>
      </trkpt>
      <trkpt lat="48.77456" lon="1.41599">
        <ele>95.31</ele>
        <time>2015-05-14T09:31:36Z</time>
      </trkpt>
      <trkpt lat="48.77473" lon="1.41595">
        <ele>95.31</ele>
        <time>2015-05-14T09:31:47Z</time>
      </trkpt>
      <trkpt lat="48.77487" lon="1.4159">
        <ele>95.79</ele>
        <time>2015-05-14T09:31:58Z</time>
      </trkpt>
      <trkpt lat="48.77498" lon="1.41585">
        <ele>96.27</ele>
        <time>2015-05-14T09:32:09Z</time>
      </trkpt>
      <trkpt lat="48.77507" lon="1.4158">
        <ele>96.27</ele>
        <time>2015-05-14T09:32:18Z</time>
      </trkpt>
      <trkpt lat="48.77523" lon="1.41576">
        <ele>96.75</ele>
        <time>2015-05-14T09:32:27Z</time>
      </trkpt>
      <trkpt lat="48.77536" lon="1.41569">
        <ele>96.75</ele>
        <time>2015-05-14T09:32:36Z</time>
      </trkpt>
      <trkpt lat="48.77545" lon="1.41566">
        <ele>97.23</ele>
        <time>2015-05-14T09:32:44Z</time>
      </trkpt>
      <trkpt lat="48.77561" lon="1.41561">
        <ele>97.71</ele>
        <time>2015-05-14T09:32:54Z</time>
      </trkpt>
      <trkpt lat="48.7757" lon="1.4156">
        <ele>97.71</ele>
        <time>2015-05-14T09:33:03Z</time>
      </trkpt>
      <trkpt lat="48.77584" lon="1.41561">
        <ele>98.19</ele>
        <time>2015-05-14T09:33:13Z</time>
      </trkpt>
      <trkpt lat="48.77596" lon="1.41563">
        <ele>98.19</ele>
        <time>2015-05-14T09:33:22Z</time>
      </trkpt>
      <trkpt lat="48.77607" lon="1.41568">
        <ele>98.19</ele>
        <time>2015-05-14T09:33:31Z</time>
      </trkpt>
      <trkpt lat="48.77619" lon="1.41573">
        <ele>98.67</ele>
        <time>2015-05-14T09:33:41Z</time>
      </trkpt>
      <trkpt lat="48.77628" lon="1.41579">
        <ele>99.63</ele>
        <time>2015-05-14T09:33:49Z</time>
      </trkpt>
      <trkpt lat="48.77639" lon="1.4159">
        <ele>99.63</ele>
        <time>2015-05-14T09:33:59Z</time>
      </trkpt>
      <trkpt lat="48.7765" lon="1.41599">
        <ele>99.63</ele>
        <time>2015-05-14T09:34:09Z</time>
      </trkpt>
      <trkpt lat="48.77657" lon="1.41608">
        <ele>98.19</ele>
        <time>2015-05-14T09:34:15Z</time>
      </trkpt>
      <trkpt lat="48.77664" lon="1.4162">
        <ele>98.19</ele>
        <time>2015-05-14T09:34:23Z</time>
      </trkpt>
      <trkpt lat="48.77675" lon="1.4163">
        <ele>98.19</ele>
        <time>2015-05-14T09:34:33Z</time>
      </trkpt>
      <trkpt lat="48.77683" lon="1.41644">
        <ele>98.19</ele>
        <time>2015-05-14T09:34:41Z</time>
      </trkpt>
      <trkpt lat="48.77685" lon="1.41646">
        <ele>99.63</ele>
        <time>2015-05-14T09:34:44Z</time>
      </trkpt>
      <trkpt lat="48.77694" lon="1.41652">
        <ele>100.11</ele>
        <time>2015-05-14T09:34:53Z</time>
      </trkpt>
      <trkpt lat="48.777" lon="1.41663">
        <ele>100.11</ele>
        <time>2015-05-14T09:35:02Z</time>
      </trkpt>
      <trkpt lat="48.77709" lon="1.41674">
        <ele>101.08</ele>
        <time>2015-05-14T09:35:13Z</time>
      </trkpt>
      <trkpt lat="48.7772" lon="1.41684">
        <ele>101.56</ele>
        <time>2015-05-14T09:35:24Z</time>
      </trkpt>
      <trkpt lat="48.77735" lon="1.41695">
        <ele>102.52</ele>
        <time>2015-05-14T09:35:32Z</time>
      </trkpt>
      <trkpt lat="48.77743" lon="1.41702">
        <ele>103</ele>
        <time>2015-05-14T09:35:41Z</time>
      </trkpt>
      <trkpt lat="48.77749" lon="1.41704">
        <ele>103.96</ele>
        <time>2015-05-14T09:35:49Z</time>
      </trkpt>
      <trkpt lat="48.77748" lon="1.41701">
        <ele>103.96</ele>
        <time>2015-05-14T09:35:59Z</time>
      </trkpt>
      <trkpt lat="48.77752" lon="1.41697">
        <ele>104.44</ele>
        <time>2015-05-14T09:36:05Z</time>
      </trkpt>
      <trkpt lat="48.77755" lon="1.41693">
        <ele>104.44</ele>
        <time>2015-05-14T09:36:07Z</time>
      </trkpt>
      <trkpt lat="48.77758" lon="1.41689">
        <ele>104.44</ele>
        <time>2015-05-14T09:36:09Z</time>
      </trkpt>
      <trkpt lat="48.77769" lon="1.41676">
        <ele>104.92</ele>
        <time>2015-05-14T09:36:17Z</time>
      </trkpt>
      <trkpt lat="48.77778" lon="1.41662">
        <ele>104.92</ele>
        <time>2015-05-14T09:36:26Z</time>
      </trkpt>
      <trkpt lat="48.77786" lon="1.41644">
        <ele>106.84</ele>
        <time>2015-05-14T09:36:36Z</time>
      </trkpt>
      <trkpt lat="48.77786" lon="1.41642">
        <ele>106.84</ele>
        <time>2015-05-14T09:36:37Z</time>
      </trkpt>
      <trkpt lat="48.77794" lon="1.41624">
        <ele>108.77</ele>
        <time>2015-05-14T09:36:48Z</time>
      </trkpt>
      <trkpt lat="48.778" lon="1.41611">
        <ele>108.77</ele>
        <time>2015-05-14T09:36:56Z</time>
      </trkpt>
      <trkpt lat="48.77805" lon="1.41602">
        <ele>110.21</ele>
        <time>2015-05-14T09:37:02Z</time>
      </trkpt>
      <trkpt lat="48.7781" lon="1.4159">
        <ele>110.21</ele>
        <time>2015-05-14T09:37:10Z</time>
      </trkpt>
      <trkpt lat="48.77811" lon="1.41587">
        <ele>110.21</ele>
        <time>2015-05-14T09:37:12Z</time>
      </trkpt>
      <trkpt lat="48.77813" lon="1.41584">
        <ele>110.69</ele>
        <time>2015-05-14T09:37:14Z</time>
      </trkpt>
      <trkpt lat="48.77815" lon="1.4158">
        <ele>110.69</ele>
        <time>2015-05-14T09:37:17Z</time>
      </trkpt>
      <trkpt lat="48.77817" lon="1.41574">
        <ele>110.69</ele>
        <time>2015-05-14T09:37:21Z</time>
      </trkpt>
      <trkpt lat="48.77818" lon="1.4157">
        <ele>112.13</ele>
        <time>2015-05-14T09:37:23Z</time>
      </trkpt>
      <trkpt lat="48.77819" lon="1.41567">
        <ele>110.69</ele>
        <time>2015-05-14T09:37:25Z</time>
      </trkpt>
      <trkpt lat="48.77821" lon="1.41561">
        <ele>112.61</ele>
        <time>2015-05-14T09:37:29Z</time>
      </trkpt>
      <trkpt lat="48.77828" lon="1.41541">
        <ele>111.65</ele>
        <time>2015-05-14T09:37:39Z</time>
      </trkpt>
      <trkpt lat="48.77832" lon="1.4153">
        <ele>112.61</ele>
        <time>2015-05-14T09:37:44Z</time>
      </trkpt>
      <trkpt lat="48.77837" lon="1.41516">
        <ele>114.53</ele>
        <time>2015-05-14T09:37:51Z</time>
      </trkpt>
      <trkpt lat="48.77838" lon="1.41515">
        <ele>113.09</ele>
        <time>2015-05-14T09:37:52Z</time>
      </trkpt>
      <trkpt lat="48.77839" lon="1.4151">
        <ele>113.09</ele>
        <time>2015-05-14T09:37:55Z</time>
      </trkpt>
      <trkpt lat="48.77844" lon="1.41497">
        <ele>113.09</ele>
        <time>2015-05-14T09:38:04Z</time>
      </trkpt>
      <trkpt lat="48.7785" lon="1.41483">
        <ele>113.09</ele>
        <time>2015-05-14T09:38:13Z</time>
      </trkpt>
      <trkpt lat="48.77856" lon="1.41466">
        <ele>114.53</ele>
        <time>2015-05-14T09:38:23Z</time>
      </trkpt>
      <trkpt lat="48.77866" lon="1.41437">
        <ele>115.5</ele>
        <time>2015-05-14T09:38:35Z</time>
      </trkpt>
      <trkpt lat="48.77869" lon="1.41432">
        <ele>115.98</ele>
        <time>2015-05-14T09:38:39Z</time>
      </trkpt>
      <trkpt lat="48.77874" lon="1.41415">
        <ele>117.9</ele>
        <time>2015-05-14T09:38:50Z</time>
      </trkpt>
      <trkpt lat="48.77876" lon="1.41402">
        <ele>117.9</ele>
        <time>2015-05-14T09:38:59Z</time>
      </trkpt>
      <trkpt lat="48.77877" lon="1.41389">
        <ele>118.86</ele>
        <time>2015-05-14T09:39:06Z</time>
      </trkpt>
      <trkpt lat="48.77878" lon="1.41388">
        <ele>118.86</ele>
        <time>2015-05-14T09:39:07Z</time>
      </trkpt>
      <trkpt lat="48.7788" lon="1.41379">
        <ele>119.82</ele>
        <time>2015-05-14T09:39:15Z</time>
      </trkpt>
      <trkpt lat="48.77882" lon="1.41367">
        <ele>121.26</ele>
        <time>2015-05-14T09:39:25Z</time>
      </trkpt>
      <trkpt lat="48.77888" lon="1.4135">
        <ele>123.19</ele>
        <time>2015-05-14T09:39:35Z</time>
      </trkpt>
      <trkpt lat="48.77894" lon="1.41333">
        <ele>125.11</ele>
        <time>2015-05-14T09:39:47Z</time>
      </trkpt>
      <trkpt lat="48.77902" lon="1.41317">
        <ele>126.07</ele>
        <time>2015-05-14T09:39:56Z</time>
      </trkpt>
      <trkpt lat="48.77909" lon="1.41298">
        <ele>127.51</ele>
        <time>2015-05-14T09:40:09Z</time>
      </trkpt>
      <trkpt lat="48.77915" lon="1.41284">
        <ele>128.47</ele>
        <time>2015-05-14T09:40:18Z</time>
      </trkpt>
      <trkpt lat="48.77923" lon="1.41268">
        <ele>129.92</ele>
        <time>2015-05-14T09:40:28Z</time>
      </trkpt>
      <trkpt lat="48.77918" lon="1.41254">
        <ele>131.36</ele>
        <time>2015-05-14T09:40:38Z</time>
      </trkpt>
      <trkpt lat="48.77921" lon="1.41225">
        <ele>131.84</ele>
        <time>2015-05-14T09:40:47Z</time>
      </trkpt>
      <trkpt lat="48.77921" lon="1.41219">
        <ele>131.36</ele>
        <time>2015-05-14T09:40:51Z</time>
      </trkpt>
      <trkpt lat="48.77922" lon="1.41218">
        <ele>132.8</ele>
        <time>2015-05-14T09:40:53Z</time>
      </trkpt>
      <trkpt lat="48.77923" lon="1.41215">
        <ele>132.8</ele>
        <time>2015-05-14T09:40:55Z</time>
      </trkpt>
      <trkpt lat="48.77932" lon="1.41201">
        <ele>132.8</ele>
        <time>2015-05-14T09:41:05Z</time>
      </trkpt>
      <trkpt lat="48.77934" lon="1.41196">
        <ele>132.8</ele>
        <time>2015-05-14T09:41:08Z</time>
      </trkpt>
      <trkpt lat="48.77938" lon="1.41185">
        <ele>133.28</ele>
        <time>2015-05-14T09:41:15Z</time>
      </trkpt>
      <trkpt lat="48.77941" lon="1.41177">
        <ele>133.76</ele>
        <time>2015-05-14T09:41:20Z</time>
      </trkpt>
      <trkpt lat="48.77945" lon="1.41173">
        <ele>133.76</ele>
        <time>2015-05-14T09:41:22Z</time>
      </trkpt>
      <trkpt lat="48.77953" lon="1.41153">
        <ele>134.24</ele>
        <time>2015-05-14T09:41:33Z</time>
      </trkpt>
      <trkpt lat="48.77953" lon="1.41151">
        <ele>134.24</ele>
        <time>2015-05-14T09:41:34Z</time>
      </trkpt>
      <trkpt lat="48.77955" lon="1.41148">
        <ele>134.24</ele>
        <time>2015-05-14T09:41:36Z</time>
      </trkpt>
      <trkpt lat="48.77961" lon="1.41135">
        <ele>134.72</ele>
        <time>2015-05-14T09:41:45Z</time>
      </trkpt>
      <trkpt lat="48.77969" lon="1.41113">
        <ele>134.72</ele>
        <time>2015-05-14T09:41:56Z</time>
      </trkpt>
      <trkpt lat="48.77977" lon="1.41094">
        <ele>134.72</ele>
        <time>2015-05-14T09:42:05Z</time>
      </trkpt>
      <trkpt lat="48.77983" lon="1.41081">
        <ele>134.72</ele>
        <time>2015-05-14T09:42:12Z</time>
      </trkpt>
      <trkpt lat="48.7799" lon="1.41067">
        <ele>135.2</ele>
        <time>2015-05-14T09:42:21Z</time>
      </trkpt>
      <trkpt lat="48.77996" lon="1.41051">
        <ele>135.2</ele>
        <time>2015-05-14T09:42:29Z</time>
      </trkpt>
      <trkpt lat="48.78" lon="1.41034">
        <ele>135.68</ele>
        <time>2015-05-14T09:42:38Z</time>
      </trkpt>
      <trkpt lat="48.78003" lon="1.41024">
        <ele>135.68</ele>
        <time>2015-05-14T09:42:46Z</time>
      </trkpt>
      <trkpt lat="48.78009" lon="1.41002">
        <ele>135.68</ele>
        <time>2015-05-14T09:42:56Z</time>
      </trkpt>
      <trkpt lat="48.78016" lon="1.40989">
        <ele>136.16</ele>
        <time>2015-05-14T09:43:04Z</time>
      </trkpt>
      <trkpt lat="48.78017" lon="1.40988">
        <ele>136.16</ele>
        <time>2015-05-14T09:43:05Z</time>
      </trkpt>
      <trkpt lat="48.78021" lon="1.4097">
        <ele>136.16</ele>
        <time>2015-05-14T09:43:14Z</time>
      </trkpt>
      <trkpt lat="48.78026" lon="1.40955">
        <ele>136.16</ele>
        <time>2015-05-14T09:43:22Z</time>
      </trkpt>
      <trkpt lat="48.78031" lon="1.40941">
        <ele>136.16</ele>
        <time>2015-05-14T09:43:30Z</time>
      </trkpt>
      <trkpt lat="48.78032" lon="1.40918">
        <ele>136.16</ele>
        <time>2015-05-14T09:43:39Z</time>
      </trkpt>
      <trkpt lat="48.78036" lon="1.40899">
        <ele>136.64</ele>
        <time>2015-05-14T09:43:48Z</time>
      </trkpt>
      <trkpt lat="48.7804" lon="1.40882">
        <ele>137.13</ele>
        <time>2015-05-14T09:43:58Z</time>
      </trkpt>
      <trkpt lat="48.78046" lon="1.40867">
        <ele>137.13</ele>
        <time>2015-05-14T09:44:06Z</time>
      </trkpt>
      <trkpt lat="48.78052" lon="1.40854">
        <ele>137.13</ele>
        <time>2015-05-14T09:44:13Z</time>
      </trkpt>
      <trkpt lat="48.78059" lon="1.4084">
        <ele>137.13</ele>
        <time>2015-05-14T09:44:21Z</time>
      </trkpt>
      <trkpt lat="48.78067" lon="1.40829">
        <ele>135.68</ele>
        <time>2015-05-14T09:44:27Z</time>
      </trkpt>
      <trkpt lat="48.78079" lon="1.40808">
        <ele>135.68</ele>
        <time>2015-05-14T09:44:36Z</time>
      </trkpt>
      <trkpt lat="48.78081" lon="1.40804">
        <ele>137.13</ele>
        <time>2015-05-14T09:44:38Z</time>
      </trkpt>
      <trkpt lat="48.78088" lon="1.40794">
        <ele>135.68</ele>
        <time>2015-05-14T09:44:44Z</time>
      </trkpt>
      <trkpt lat="48.78094" lon="1.40775">
        <ele>135.68</ele>
        <time>2015-05-14T09:44:54Z</time>
      </trkpt>
      <trkpt lat="48.78097" lon="1.40762">
        <ele>135.68</ele>
        <time>2015-05-14T09:45:03Z</time>
      </trkpt>
      <trkpt lat="48.78101" lon="1.40759">
        <ele>135.68</ele>
        <time>2015-05-14T09:45:12Z</time>
      </trkpt>
      <trkpt lat="48.781" lon="1.40768">
        <ele>135.68</ele>
        <time>2015-05-14T09:45:21Z</time>
      </trkpt>
      <trkpt lat="48.78101" lon="1.40774">
        <ele>135.68</ele>
        <time>2015-05-14T09:45:24Z</time>
      </trkpt>
      <trkpt lat="48.78104" lon="1.40781">
        <ele>135.68</ele>
        <time>2015-05-14T09:45:33Z</time>
      </trkpt>
      <trkpt lat="48.78109" lon="1.40787">
        <ele>136.64</ele>
        <time>2015-05-14T09:45:48Z</time>
      </trkpt>
      <trkpt lat="48.78114" lon="1.40794">
        <ele>136.64</ele>
        <time>2015-05-14T09:45:56Z</time>
      </trkpt>
      <trkpt lat="48.78118" lon="1.40805">
        <ele>136.16</ele>
        <time>2015-05-14T09:46:05Z</time>
      </trkpt>
      <trkpt lat="48.78121" lon="1.40815">
        <ele>135.68</ele>
        <time>2015-05-14T09:46:10Z</time>
      </trkpt>
      <trkpt lat="48.78126" lon="1.40834">
        <ele>137.13</ele>
        <time>2015-05-14T09:46:18Z</time>
      </trkpt>
      <trkpt lat="48.78127" lon="1.40837">
        <ele>136.16</ele>
        <time>2015-05-14T09:46:20Z</time>
      </trkpt>
      <trkpt lat="48.78137" lon="1.40855">
        <ele>135.68</ele>
        <time>2015-05-14T09:46:32Z</time>
      </trkpt>
      <trkpt lat="48.78146" lon="1.40872">
        <ele>135.2</ele>
        <time>2015-05-14T09:46:42Z</time>
      </trkpt>
      <trkpt lat="48.78158" lon="1.40893">
        <ele>135.2</ele>
        <time>2015-05-14T09:46:53Z</time>
      </trkpt>
      <trkpt lat="48.78169" lon="1.40909">
        <ele>135.2</ele>
        <time>2015-05-14T09:47:02Z</time>
      </trkpt>
      <trkpt lat="48.78178" lon="1.40926">
        <ele>135.2</ele>
        <time>2015-05-14T09:47:12Z</time>
      </trkpt>
      <trkpt lat="48.78187" lon="1.40939">
        <ele>134.72</ele>
        <time>2015-05-14T09:47:21Z</time>
      </trkpt>
      <trkpt lat="48.7819" lon="1.40941">
        <ele>134.72</ele>
        <time>2015-05-14T09:47:23Z</time>
      </trkpt>
      <trkpt lat="48.78199" lon="1.40954">
        <ele>134.72</ele>
        <time>2015-05-14T09:47:33Z</time>
      </trkpt>
      <trkpt lat="48.78207" lon="1.40975">
        <ele>134.72</ele>
        <time>2015-05-14T09:47:43Z</time>
      </trkpt>
      <trkpt lat="48.78214" lon="1.40985">
        <ele>134.72</ele>
        <time>2015-05-14T09:47:51Z</time>
      </trkpt>
      <trkpt lat="48.78225" lon="1.41001">
        <ele>134.24</ele>
        <time>2015-05-14T09:48:02Z</time>
      </trkpt>
      <trkpt lat="48.78237" lon="1.41017">
        <ele>134.24</ele>
        <time>2015-05-14T09:48:13Z</time>
      </trkpt>
      <trkpt lat="48.7825" lon="1.41038">
        <ele>134.24</ele>
        <time>2015-05-14T09:48:24Z</time>
      </trkpt>
      <trkpt lat="48.78258" lon="1.41054">
        <ele>134.24</ele>
        <time>2015-05-14T09:48:33Z</time>
      </trkpt>
      <trkpt lat="48.78265" lon="1.41066">
        <ele>134.24</ele>
        <time>2015-05-14T09:48:41Z</time>
      </trkpt>
      <trkpt lat="48.78278" lon="1.41089">
        <ele>133.76</ele>
        <time>2015-05-14T09:48:54Z</time>
      </trkpt>
      <trkpt lat="48.78289" lon="1.4111">
        <ele>133.28</ele>
        <time>2015-05-14T09:49:06Z</time>
      </trkpt>
      <trkpt lat="48.783" lon="1.41125">
        <ele>132.32</ele>
        <time>2015-05-14T09:49:16Z</time>
      </trkpt>
      <trkpt lat="48.78306" lon="1.41142">
        <ele>131.84</ele>
        <time>2015-05-14T09:49:25Z</time>
      </trkpt>
      <trkpt lat="48.78319" lon="1.41155">
        <ele>131.84</ele>
        <time>2015-05-14T09:49:36Z</time>
      </trkpt>
      <trkpt lat="48.78326" lon="1.41166">
        <ele>131.84</ele>
        <time>2015-05-14T09:49:46Z</time>
      </trkpt>
      <trkpt lat="48.78329" lon="1.41177">
        <ele>131.84</ele>
        <time>2015-05-14T09:49:54Z</time>
      </trkpt>
      <trkpt lat="48.78331" lon="1.41183">
        <ele>131.84</ele>
        <time>2015-05-14T09:50:09Z</time>
      </trkpt>
      <trkpt lat="48.78336" lon="1.41188">
        <ele>131.84</ele>
        <time>2015-05-14T09:50:25Z</time>
      </trkpt>
      <trkpt lat="48.78336" lon="1.41189">
        <ele>131.84</ele>
        <time>2015-05-14T09:50:26Z</time>
      </trkpt>
      <trkpt lat="48.78338" lon="1.41193">
        <ele>131.84</ele>
        <time>2015-05-14T09:50:29Z</time>
      </trkpt>
      <trkpt lat="48.78345" lon="1.41204">
        <ele>132.8</ele>
        <time>2015-05-14T09:50:38Z</time>
      </trkpt>
      <trkpt lat="48.78354" lon="1.41214">
        <ele>133.76</ele>
        <time>2015-05-14T09:50:48Z</time>
      </trkpt>
      <trkpt lat="48.78361" lon="1.4123">
        <ele>133.76</ele>
        <time>2015-05-14T09:50:56Z</time>
      </trkpt>
      <trkpt lat="48.78363" lon="1.41234">
        <ele>134.24</ele>
        <time>2015-05-14T09:50:59Z</time>
      </trkpt>
      <trkpt lat="48.78376" lon="1.41239">
        <ele>134.24</ele>
        <time>2015-05-14T09:51:08Z</time>
      </trkpt>
      <trkpt lat="48.78384" lon="1.41247">
        <ele>134.72</ele>
        <time>2015-05-14T09:51:17Z</time>
      </trkpt>
      <trkpt lat="48.78394" lon="1.41264">
        <ele>134.72</ele>
        <time>2015-05-14T09:51:26Z</time>
      </trkpt>
      <trkpt lat="48.78409" lon="1.41283">
        <ele>134.72</ele>
        <time>2015-05-14T09:51:36Z</time>
      </trkpt>
      <trkpt lat="48.78418" lon="1.41295">
        <ele>134.72</ele>
        <time>2015-05-14T09:51:44Z</time>
      </trkpt>
      <trkpt lat="48.78426" lon="1.41315">
        <ele>134.72</ele>
        <time>2015-05-14T09:51:54Z</time>
      </trkpt>
      <trkpt lat="48.78436" lon="1.41331">
        <ele>134.72</ele>
        <time>2015-05-14T09:52:06Z</time>
      </trkpt>
      <trkpt lat="48.78442" lon="1.41347">
        <ele>134.72</ele>
        <time>2015-05-14T09:52:16Z</time>
      </trkpt>
      <trkpt lat="48.78453" lon="1.41361">
        <ele>134.72</ele>
        <time>2015-05-14T09:52:25Z</time>
      </trkpt>
      <trkpt lat="48.78462" lon="1.41373">
        <ele>133.76</ele>
        <time>2015-05-14T09:52:35Z</time>
      </trkpt>
      <trkpt lat="48.78465" lon="1.41377">
        <ele>133.76</ele>
        <time>2015-05-14T09:52:38Z</time>
      </trkpt>
      <trkpt lat="48.78467" lon="1.41379">
        <ele>133.76</ele>
        <time>2015-05-14T09:52:40Z</time>
      </trkpt>
      <trkpt lat="48.78477" lon="1.41391">
        <ele>134.72</ele>
        <time>2015-05-14T09:52:51Z</time>
      </trkpt>
      <trkpt lat="48.78484" lon="1.41406">
        <ele>135.2</ele>
        <time>2015-05-14T09:53:01Z</time>
      </trkpt>
      <trkpt lat="48.78485" lon="1.41409">
        <ele>135.2</ele>
        <time>2015-05-14T09:53:03Z</time>
      </trkpt>
      <trkpt lat="48.78496" lon="1.41431">
        <ele>135.2</ele>
        <time>2015-05-14T09:53:15Z</time>
      </trkpt>
      <trkpt lat="48.78504" lon="1.41447">
        <ele>135.2</ele>
        <time>2015-05-14T09:53:25Z</time>
      </trkpt>
      <trkpt lat="48.78516" lon="1.41463">
        <ele>135.68</ele>
        <time>2015-05-14T09:53:34Z</time>
      </trkpt>
      <trkpt lat="48.78526" lon="1.4148">
        <ele>135.68</ele>
        <time>2015-05-14T09:53:43Z</time>
      </trkpt>
      <trkpt lat="48.78534" lon="1.4149">
        <ele>135.68</ele>
        <time>2015-05-14T09:53:51Z</time>
      </trkpt>
      <trkpt lat="48.78544" lon="1.41503">
        <ele>134.24</ele>
        <time>2015-05-14T09:54:00Z</time>
      </trkpt>
      <trkpt lat="48.78553" lon="1.41519">
        <ele>134.24</ele>
        <time>2015-05-14T09:54:09Z</time>
      </trkpt>
      <trkpt lat="48.7856" lon="1.4153">
        <ele>134.24</ele>
        <time>2015-05-14T09:54:18Z</time>
      </trkpt>
      <trkpt lat="48.78567" lon="1.41545">
        <ele>134.24</ele>
        <time>2015-05-14T09:54:27Z</time>
      </trkpt>
      <trkpt lat="48.78578" lon="1.41562">
        <ele>134.24</ele>
        <time>2015-05-14T09:54:38Z</time>
      </trkpt>
      <trkpt lat="48.78586" lon="1.41579">
        <ele>134.24</ele>
        <time>2015-05-14T09:54:48Z</time>
      </trkpt>
      <trkpt lat="48.78592" lon="1.41586">
        <ele>135.68</ele>
        <time>2015-05-14T09:54:53Z</time>
      </trkpt>
      <trkpt lat="48.786" lon="1.41589">
        <ele>135.68</ele>
        <time>2015-05-14T09:55:03Z</time>
      </trkpt>
      <trkpt lat="48.78607" lon="1.41596">
        <ele>135.68</ele>
        <time>2015-05-14T09:55:13Z</time>
      </trkpt>
      <trkpt lat="48.78615" lon="1.41616">
        <ele>135.68</ele>
        <time>2015-05-14T09:55:23Z</time>
      </trkpt>
      <trkpt lat="48.78627" lon="1.41631">
        <ele>136.16</ele>
        <time>2015-05-14T09:55:31Z</time>
      </trkpt>
      <trkpt lat="48.7863" lon="1.41636">
        <ele>136.16</ele>
        <time>2015-05-14T09:55:42Z</time>
      </trkpt>
      <trkpt lat="48.78632" lon="1.41641">
        <ele>136.16</ele>
        <time>2015-05-14T09:55:45Z</time>
      </trkpt>
      <trkpt lat="48.78636" lon="1.41654">
        <ele>136.16</ele>
        <time>2015-05-14T09:55:50Z</time>
      </trkpt>
      <trkpt lat="48.78647" lon="1.41674">
        <ele>136.16</ele>
        <time>2015-05-14T09:56:02Z</time>
      </trkpt>
      <trkpt lat="48.78657" lon="1.41688">
        <ele>136.16</ele>
        <time>2015-05-14T09:56:12Z</time>
      </trkpt>
      <trkpt lat="48.78668" lon="1.41707">
        <ele>136.16</ele>
        <time>2015-05-14T09:56:23Z</time>
      </trkpt>
      <trkpt lat="48.78679" lon="1.41723">
        <ele>136.16</ele>
        <time>2015-05-14T09:56:34Z</time>
      </trkpt>
      <trkpt lat="48.78687" lon="1.41739">
        <ele>136.16</ele>
        <time>2015-05-14T09:56:43Z</time>
      </trkpt>
      <trkpt lat="48.78695" lon="1.41758">
        <ele>136.16</ele>
        <time>2015-05-14T09:56:54Z</time>
      </trkpt>
      <trkpt lat="48.78704" lon="1.41773">
        <ele>136.16</ele>
        <time>2015-05-14T09:57:04Z</time>
      </trkpt>
      <trkpt lat="48.78717" lon="1.41787">
        <ele>136.16</ele>
        <time>2015-05-14T09:57:15Z</time>
      </trkpt>
      <trkpt lat="48.78727" lon="1.41809">
        <ele>136.16</ele>
        <time>2015-05-14T09:57:27Z</time>
      </trkpt>
      <trkpt lat="48.78737" lon="1.41833">
        <ele>136.16</ele>
        <time>2015-05-14T09:57:38Z</time>
      </trkpt>
      <trkpt lat="48.78747" lon="1.41847">
        <ele>136.16</ele>
        <time>2015-05-14T09:57:48Z</time>
      </trkpt>
      <trkpt lat="48.78756" lon="1.41862">
        <ele>136.16</ele>
        <time>2015-05-14T09:57:59Z</time>
      </trkpt>
      <trkpt lat="48.78765" lon="1.41878">
        <ele>136.64</ele>
        <time>2015-05-14T09:58:10Z</time>
      </trkpt>
      <trkpt lat="48.78777" lon="1.41892">
        <ele>136.64</ele>
        <time>2015-05-14T09:58:20Z</time>
      </trkpt>
      <trkpt lat="48.78787" lon="1.41907">
        <ele>136.64</ele>
        <time>2015-05-14T09:58:30Z</time>
      </trkpt>
      <trkpt lat="48.78795" lon="1.41924">
        <ele>137.13</ele>
        <time>2015-05-14T09:58:39Z</time>
      </trkpt>
      <trkpt lat="48.78795" lon="1.41925">
        <ele>137.13</ele>
        <time>2015-05-14T09:58:40Z</time>
      </trkpt>
      <trkpt lat="48.78801" lon="1.41929">
        <ele>137.13</ele>
        <time>2015-05-14T09:58:48Z</time>
      </trkpt>
      <trkpt lat="48.78808" lon="1.41927">
        <ele>137.13</ele>
        <time>2015-05-14T09:58:56Z</time>
      </trkpt>
      <trkpt lat="48.78816" lon="1.41945">
        <ele>137.13</ele>
        <time>2015-05-14T09:59:05Z</time>
      </trkpt>
      <trkpt lat="48.78826" lon="1.41955">
        <ele>137.13</ele>
        <time>2015-05-14T09:59:13Z</time>
      </trkpt>
      <trkpt lat="48.78835" lon="1.4197">
        <ele>137.13</ele>
        <time>2015-05-14T09:59:22Z</time>
      </trkpt>
      <trkpt lat="48.78844" lon="1.41992">
        <ele>137.13</ele>
        <time>2015-05-14T09:59:31Z</time>
      </trkpt>
      <trkpt lat="48.78856" lon="1.42012">
        <ele>137.61</ele>
        <time>2015-05-14T09:59:42Z</time>
      </trkpt>
      <trkpt lat="48.78868" lon="1.42019">
        <ele>137.61</ele>
        <time>2015-05-14T09:59:52Z</time>
      </trkpt>
      <trkpt lat="48.7887" lon="1.42019">
        <ele>137.61</ele>
        <time>2015-05-14T09:59:59Z</time>
      </trkpt>
      <trkpt lat="48.7887" lon="1.4202">
        <ele>137.61</ele>
        <time>2015-05-14T10:00:02Z</time>
      </trkpt>
      <trkpt lat="48.78877" lon="1.42029">
        <ele>137.61</ele>
        <time>2015-05-14T10:00:08Z</time>
      </trkpt>
      <trkpt lat="48.78886" lon="1.42036">
        <ele>137.61</ele>
        <time>2015-05-14T10:00:14Z</time>
      </trkpt>
      <trkpt lat="48.78891" lon="1.42045">
        <ele>137.61</ele>
        <time>2015-05-14T10:00:18Z</time>
      </trkpt>
      <trkpt lat="48.78896" lon="1.42056">
        <ele>137.13</ele>
        <time>2015-05-14T10:00:29Z</time>
      </trkpt>
      <trkpt lat="48.789" lon="1.42056">
        <ele>137.61</ele>
        <time>2015-05-14T10:00:40Z</time>
      </trkpt>
      <trkpt lat="48.78903" lon="1.42054">
        <ele>137.61</ele>
        <time>2015-05-14T10:00:49Z</time>
      </trkpt>
      <trkpt lat="48.78903" lon="1.42053">
        <ele>137.61</ele>
        <time>2015-05-14T10:01:09Z</time>
      </trkpt>
      <trkpt lat="48.78907" lon="1.42052">
        <ele>137.61</ele>
        <time>2015-05-14T10:01:13Z</time>
      </trkpt>
      <trkpt lat="48.7892" lon="1.42045">
        <ele>137.61</ele>
        <time>2015-05-14T10:01:21Z</time>
      </trkpt>
      <trkpt lat="48.78935" lon="1.42018">
        <ele>138.09</ele>
        <time>2015-05-14T10:01:30Z</time>
      </trkpt>
      <trkpt lat="48.78945" lon="1.42009">
        <ele>138.09</ele>
        <time>2015-05-14T10:01:37Z</time>
      </trkpt>
      <trkpt lat="48.78958" lon="1.42">
        <ele>138.09</ele>
        <time>2015-05-14T10:01:45Z</time>
      </trkpt>
      <trkpt lat="48.78969" lon="1.41997">
        <ele>138.09</ele>
        <time>2015-05-14T10:01:54Z</time>
      </trkpt>
      <trkpt lat="48.78978" lon="1.41991">
        <ele>138.09</ele>
        <time>2015-05-14T10:02:02Z</time>
      </trkpt>
      <trkpt lat="48.78991" lon="1.41982">
        <ele>138.09</ele>
        <time>2015-05-14T10:02:12Z</time>
      </trkpt>
      <trkpt lat="48.79002" lon="1.41974">
        <ele>138.09</ele>
        <time>2015-05-14T10:02:21Z</time>
      </trkpt>
      <trkpt lat="48.79012" lon="1.41969">
        <ele>138.09</ele>
        <time>2015-05-14T10:02:30Z</time>
      </trkpt>
      <trkpt lat="48.79023" lon="1.41963">
        <ele>138.09</ele>
        <time>2015-05-14T10:02:38Z</time>
      </trkpt>
      <trkpt lat="48.79034" lon="1.41955">
        <ele>138.09</ele>
        <time>2015-05-14T10:02:47Z</time>
      </trkpt>
      <trkpt lat="48.79035" lon="1.41954">
        <ele>138.09</ele>
        <time>2015-05-14T10:02:48Z</time>
      </trkpt>
      <trkpt lat="48.79047" lon="1.41942">
        <ele>138.09</ele>
        <time>2015-05-14T10:02:58Z</time>
      </trkpt>
      <trkpt lat="48.79055" lon="1.41937">
        <ele>137.61</ele>
        <time>2015-05-14T10:03:05Z</time>
      </trkpt>
      <trkpt lat="48.79069" lon="1.41927">
        <ele>137.61</ele>
        <time>2015-05-14T10:03:15Z</time>
      </trkpt>
      <trkpt lat="48.7908" lon="1.4192">
        <ele>137.61</ele>
        <time>2015-05-14T10:03:25Z</time>
      </trkpt>
      <trkpt lat="48.79083" lon="1.41918">
        <ele>137.61</ele>
        <time>2015-05-14T10:03:29Z</time>
      </trkpt>
      <trkpt lat="48.79094" lon="1.41909">
        <ele>137.61</ele>
        <time>2015-05-14T10:03:37Z</time>
      </trkpt>
      <trkpt lat="48.79106" lon="1.41895">
        <ele>137.61</ele>
        <time>2015-05-14T10:03:46Z</time>
      </trkpt>
      <trkpt lat="48.79122" lon="1.4188">
        <ele>137.61</ele>
        <time>2015-05-14T10:03:55Z</time>
      </trkpt>
      <trkpt lat="48.79133" lon="1.41874">
        <ele>137.61</ele>
        <time>2015-05-14T10:04:02Z</time>
      </trkpt>
      <trkpt lat="48.79141" lon="1.41867">
        <ele>137.61</ele>
        <time>2015-05-14T10:04:08Z</time>
      </trkpt>
      <trkpt lat="48.79149" lon="1.41858">
        <ele>137.61</ele>
        <time>2015-05-14T10:04:14Z</time>
      </trkpt>
      <trkpt lat="48.79163" lon="1.41845">
        <ele>137.61</ele>
        <time>2015-05-14T10:04:24Z</time>
      </trkpt>
      <trkpt lat="48.79174" lon="1.41834">
        <ele>136.16</ele>
        <time>2015-05-14T10:04:33Z</time>
      </trkpt>
      <trkpt lat="48.79181" lon="1.41829">
        <ele>136.16</ele>
        <time>2015-05-14T10:04:41Z</time>
      </trkpt>
      <trkpt lat="48.79186" lon="1.41822">
        <ele>136.16</ele>
        <time>2015-05-14T10:04:47Z</time>
      </trkpt>
      <trkpt lat="48.792" lon="1.41809">
        <ele>136.16</ele>
        <time>2015-05-14T10:04:56Z</time>
      </trkpt>
      <trkpt lat="48.79202" lon="1.41808">
        <ele>136.16</ele>
        <time>2015-05-14T10:04:57Z</time>
      </trkpt>
      <trkpt lat="48.79211" lon="1.41799">
        <ele>135.68</ele>
        <time>2015-05-14T10:05:04Z</time>
      </trkpt>
      <trkpt lat="48.7922" lon="1.41792">
        <ele>135.68</ele>
        <time>2015-05-14T10:05:12Z</time>
      </trkpt>
      <trkpt lat="48.79232" lon="1.41786">
        <ele>135.2</ele>
        <time>2015-05-14T10:05:20Z</time>
      </trkpt>
      <trkpt lat="48.79244" lon="1.41778">
        <ele>135.2</ele>
        <time>2015-05-14T10:05:29Z</time>
      </trkpt>
      <trkpt lat="48.79259" lon="1.41763">
        <ele>135.2</ele>
        <time>2015-05-14T10:05:42Z</time>
      </trkpt>
      <trkpt lat="48.7927" lon="1.41756">
        <ele>135.2</ele>
        <time>2015-05-14T10:05:51Z</time>
      </trkpt>
      <trkpt lat="48.79287" lon="1.4174">
        <ele>135.2</ele>
        <time>2015-05-14T10:06:01Z</time>
      </trkpt>
      <trkpt lat="48.79295" lon="1.41731">
        <ele>135.2</ele>
        <time>2015-05-14T10:06:08Z</time>
      </trkpt>
      <trkpt lat="48.79301" lon="1.41726">
        <ele>134.72</ele>
        <time>2015-05-14T10:06:16Z</time>
      </trkpt>
      <trkpt lat="48.79312" lon="1.41714">
        <ele>134.72</ele>
        <time>2015-05-14T10:06:25Z</time>
      </trkpt>
      <trkpt lat="48.79321" lon="1.41703">
        <ele>134.72</ele>
        <time>2015-05-14T10:06:34Z</time>
      </trkpt>
      <trkpt lat="48.79333" lon="1.41695">
        <ele>134.24</ele>
        <time>2015-05-14T10:06:44Z</time>
      </trkpt>
      <trkpt lat="48.79344" lon="1.41693">
        <ele>134.24</ele>
        <time>2015-05-14T10:06:52Z</time>
      </trkpt>
      <trkpt lat="48.79358" lon="1.41685">
        <ele>133.76</ele>
        <time>2015-05-14T10:06:59Z</time>
      </trkpt>
      <trkpt lat="48.79369" lon="1.41678">
        <ele>133.76</ele>
        <time>2015-05-14T10:07:07Z</time>
      </trkpt>
      <trkpt lat="48.7938" lon="1.41668">
        <ele>133.76</ele>
        <time>2015-05-14T10:07:16Z</time>
      </trkpt>
      <trkpt lat="48.79391" lon="1.4166">
        <ele>133.76</ele>
        <time>2015-05-14T10:07:25Z</time>
      </trkpt>
      <trkpt lat="48.79399" lon="1.41653">
        <ele>133.76</ele>
        <time>2015-05-14T10:07:32Z</time>
      </trkpt>
      <trkpt lat="48.79408" lon="1.41647">
        <ele>133.76</ele>
        <time>2015-05-14T10:07:39Z</time>
      </trkpt>
      <trkpt lat="48.79416" lon="1.41642">
        <ele>133.76</ele>
        <time>2015-05-14T10:07:46Z</time>
      </trkpt>
      <trkpt lat="48.79423" lon="1.41637">
        <ele>133.28</ele>
        <time>2015-05-14T10:07:54Z</time>
      </trkpt>
      <trkpt lat="48.79436" lon="1.41617">
        <ele>132.8</ele>
        <time>2015-05-14T10:08:02Z</time>
      </trkpt>
      <trkpt lat="48.7944" lon="1.41615">
        <ele>137.61</ele>
        <time>2015-05-14T10:08:05Z</time>
      </trkpt>
      <trkpt lat="48.7944" lon="1.41615">
        <ele>133.28</ele>
        <time>2015-05-14T10:08:06Z</time>
      </trkpt>
      <trkpt lat="48.79452" lon="1.4161">
        <ele>133.28</ele>
        <time>2015-05-14T10:08:15Z</time>
      </trkpt>
      <trkpt lat="48.79453" lon="1.41609">
        <ele>133.28</ele>
        <time>2015-05-14T10:08:16Z</time>
      </trkpt>
      <trkpt lat="48.79462" lon="1.41599">
        <ele>133.28</ele>
        <time>2015-05-14T10:08:23Z</time>
      </trkpt>
      <trkpt lat="48.79473" lon="1.41587">
        <ele>132.8</ele>
        <time>2015-05-14T10:08:30Z</time>
      </trkpt>
      <trkpt lat="48.79481" lon="1.41582">
        <ele>132.8</ele>
        <time>2015-05-14T10:08:37Z</time>
      </trkpt>
      <trkpt lat="48.79495" lon="1.41577">
        <ele>132.8</ele>
        <time>2015-05-14T10:08:46Z</time>
      </trkpt>
      <trkpt lat="48.79506" lon="1.41556">
        <ele>132.8</ele>
        <time>2015-05-14T10:08:53Z</time>
      </trkpt>
      <trkpt lat="48.7951" lon="1.41549">
        <ele>132.8</ele>
        <time>2015-05-14T10:08:58Z</time>
      </trkpt>
      <trkpt lat="48.79513" lon="1.41548">
        <ele>134.24</ele>
        <time>2015-05-14T10:09:01Z</time>
      </trkpt>
      <trkpt lat="48.79526" lon="1.4154">
        <ele>134.24</ele>
        <time>2015-05-14T10:09:11Z</time>
      </trkpt>
      <trkpt lat="48.79538" lon="1.41534">
        <ele>133.76</ele>
        <time>2015-05-14T10:09:19Z</time>
      </trkpt>
      <trkpt lat="48.79551" lon="1.41521">
        <ele>133.76</ele>
        <time>2015-05-14T10:09:28Z</time>
      </trkpt>
      <trkpt lat="48.79561" lon="1.41516">
        <ele>133.76</ele>
        <time>2015-05-14T10:09:38Z</time>
      </trkpt>
      <trkpt lat="48.79573" lon="1.41507">
        <ele>133.76</ele>
        <time>2015-05-14T10:09:48Z</time>
      </trkpt>
      <trkpt lat="48.79582" lon="1.41503">
        <ele>133.76</ele>
        <time>2015-05-14T10:09:55Z</time>
      </trkpt>
      <trkpt lat="48.79593" lon="1.41494">
        <ele>133.76</ele>
        <time>2015-05-14T10:10:02Z</time>
      </trkpt>
      <trkpt lat="48.79603" lon="1.41482">
        <ele>133.76</ele>
        <time>2015-05-14T10:10:09Z</time>
      </trkpt>
      <trkpt lat="48.79612" lon="1.41476">
        <ele>133.28</ele>
        <time>2015-05-14T10:10:17Z</time>
      </trkpt>
      <trkpt lat="48.79624" lon="1.41466">
        <ele>132.32</ele>
        <time>2015-05-14T10:10:28Z</time>
      </trkpt>
      <trkpt lat="48.79632" lon="1.41461">
        <ele>132.32</ele>
        <time>2015-05-14T10:10:35Z</time>
      </trkpt>
      <trkpt lat="48.79633" lon="1.41456">
        <ele>131.84</ele>
        <time>2015-05-14T10:10:41Z</time>
      </trkpt>
      <trkpt lat="48.79632" lon="1.41457">
        <ele>131.84</ele>
        <time>2015-05-14T10:10:45Z</time>
      </trkpt>
      <trkpt lat="48.79631" lon="1.41458">
        <ele>131.84</ele>
        <time>2015-05-14T10:10:46Z</time>
      </trkpt>
      <trkpt lat="48.79616" lon="1.41467">
        <ele>131.84</ele>
        <time>2015-05-14T10:10:57Z</time>
      </trkpt>
      <trkpt lat="48.79605" lon="1.41471">
        <ele>131.84</ele>
        <time>2015-05-14T10:11:06Z</time>
      </trkpt>
      <trkpt lat="48.79589" lon="1.41468">
        <ele>132.8</ele>
        <time>2015-05-14T10:11:16Z</time>
      </trkpt>
      <trkpt lat="48.79575" lon="1.41484">
        <ele>132.8</ele>
        <time>2015-05-14T10:11:27Z</time>
      </trkpt>
      <trkpt lat="48.79561" lon="1.415">
        <ele>133.28</ele>
        <time>2015-05-14T10:11:35Z</time>
      </trkpt>
      <trkpt lat="48.79546" lon="1.41511">
        <ele>133.28</ele>
        <time>2015-05-14T10:11:44Z</time>
      </trkpt>
      <trkpt lat="48.79544" lon="1.41514">
        <ele>133.28</ele>
        <time>2015-05-14T10:11:47Z</time>
      </trkpt>
      <trkpt lat="48.79559" lon="1.41511">
        <ele>133.28</ele>
        <time>2015-05-14T10:11:57Z</time>
      </trkpt>
      <trkpt lat="48.7957" lon="1.41506">
        <ele>133.28</ele>
        <time>2015-05-14T10:12:05Z</time>
      </trkpt>
      <trkpt lat="48.79588" lon="1.41484">
        <ele>133.28</ele>
        <time>2015-05-14T10:12:17Z</time>
      </trkpt>
      <trkpt lat="48.79597" lon="1.41474">
        <ele>133.28</ele>
        <time>2015-05-14T10:12:24Z</time>
      </trkpt>
      <trkpt lat="48.7961" lon="1.41467">
        <ele>133.28</ele>
        <time>2015-05-14T10:12:34Z</time>
      </trkpt>
      <trkpt lat="48.79625" lon="1.41457">
        <ele>133.28</ele>
        <time>2015-05-14T10:12:45Z</time>
      </trkpt>
      <trkpt lat="48.79635" lon="1.4145">
        <ele>133.28</ele>
        <time>2015-05-14T10:12:54Z</time>
      </trkpt>
      <trkpt lat="48.79647" lon="1.41436">
        <ele>133.28</ele>
        <time>2015-05-14T10:13:05Z</time>
      </trkpt>
      <trkpt lat="48.79658" lon="1.41423">
        <ele>133.28</ele>
        <time>2015-05-14T10:13:15Z</time>
      </trkpt>
      <trkpt lat="48.79662" lon="1.4142">
        <ele>131.84</ele>
        <time>2015-05-14T10:13:18Z</time>
      </trkpt>
      <trkpt lat="48.79672" lon="1.41413">
        <ele>131.84</ele>
        <time>2015-05-14T10:13:27Z</time>
      </trkpt>
      <trkpt lat="48.79683" lon="1.41407">
        <ele>131.84</ele>
        <time>2015-05-14T10:13:35Z</time>
      </trkpt>
      <trkpt lat="48.79688" lon="1.41407">
        <ele>131.84</ele>
        <time>2015-05-14T10:13:38Z</time>
      </trkpt>
      <trkpt lat="48.79702" lon="1.41399">
        <ele>131.84</ele>
        <time>2015-05-14T10:13:48Z</time>
      </trkpt>
      <trkpt lat="48.79713" lon="1.41391">
        <ele>131.84</ele>
        <time>2015-05-14T10:13:57Z</time>
      </trkpt>
      <trkpt lat="48.79725" lon="1.41383">
        <ele>131.84</ele>
        <time>2015-05-14T10:14:06Z</time>
      </trkpt>
      <trkpt lat="48.79737" lon="1.41371">
        <ele>131.84</ele>
        <time>2015-05-14T10:14:16Z</time>
      </trkpt>
      <trkpt lat="48.79749" lon="1.41362">
        <ele>131.36</ele>
        <time>2015-05-14T10:14:25Z</time>
      </trkpt>
      <trkpt lat="48.79759" lon="1.41356">
        <ele>132.8</ele>
        <time>2015-05-14T10:14:32Z</time>
      </trkpt>
      <trkpt lat="48.79768" lon="1.41348">
        <ele>132.8</ele>
        <time>2015-05-14T10:14:39Z</time>
      </trkpt>
      <trkpt lat="48.79784" lon="1.41334">
        <ele>132.8</ele>
        <time>2015-05-14T10:14:52Z</time>
      </trkpt>
      <trkpt lat="48.79797" lon="1.41323">
        <ele>132.8</ele>
        <time>2015-05-14T10:15:03Z</time>
      </trkpt>
      <trkpt lat="48.79811" lon="1.4131">
        <ele>132.8</ele>
        <time>2015-05-14T10:15:15Z</time>
      </trkpt>
      <trkpt lat="48.79821" lon="1.41298">
        <ele>132.8</ele>
        <time>2015-05-14T10:15:25Z</time>
      </trkpt>
      <trkpt lat="48.79832" lon="1.41294">
        <ele>132.8</ele>
        <time>2015-05-14T10:15:34Z</time>
      </trkpt>
      <trkpt lat="48.7984" lon="1.41292">
        <ele>132.8</ele>
        <time>2015-05-14T10:15:41Z</time>
      </trkpt>
      <trkpt lat="48.79849" lon="1.41287">
        <ele>132.8</ele>
        <time>2015-05-14T10:15:50Z</time>
      </trkpt>
      <trkpt lat="48.79854" lon="1.4128">
        <ele>132.8</ele>
        <time>2015-05-14T10:15:55Z</time>
      </trkpt>
      <trkpt lat="48.79865" lon="1.41269">
        <ele>132.8</ele>
        <time>2015-05-14T10:16:05Z</time>
      </trkpt>
      <trkpt lat="48.79873" lon="1.41259">
        <ele>132.8</ele>
        <time>2015-05-14T10:16:14Z</time>
      </trkpt>
      <trkpt lat="48.79877" lon="1.41257">
        <ele>132.8</ele>
        <time>2015-05-14T10:16:18Z</time>
      </trkpt>
      <trkpt lat="48.79888" lon="1.41251">
        <ele>133.76</ele>
        <time>2015-05-14T10:16:27Z</time>
      </trkpt>
      <trkpt lat="48.799" lon="1.4124">
        <ele>133.76</ele>
        <time>2015-05-14T10:16:36Z</time>
      </trkpt>
      <trkpt lat="48.79908" lon="1.41236">
        <ele>133.28</ele>
        <time>2015-05-14T10:16:42Z</time>
      </trkpt>
      <trkpt lat="48.79912" lon="1.41231">
        <ele>133.28</ele>
        <time>2015-05-14T10:16:46Z</time>
      </trkpt>
      <trkpt lat="48.79926" lon="1.41217">
        <ele>133.28</ele>
        <time>2015-05-14T10:16:57Z</time>
      </trkpt>
      <trkpt lat="48.79939" lon="1.41211">
        <ele>133.28</ele>
        <time>2015-05-14T10:17:07Z</time>
      </trkpt>
      <trkpt lat="48.79954" lon="1.4121">
        <ele>133.28</ele>
        <time>2015-05-14T10:17:16Z</time>
      </trkpt>
      <trkpt lat="48.79965" lon="1.41206">
        <ele>133.28</ele>
        <time>2015-05-14T10:17:24Z</time>
      </trkpt>
      <trkpt lat="48.79972" lon="1.41205">
        <ele>133.28</ele>
        <time>2015-05-14T10:17:32Z</time>
      </trkpt>
      <trkpt lat="48.79971" lon="1.41203">
        <ele>133.28</ele>
        <time>2015-05-14T10:17:38Z</time>
      </trkpt>
      <trkpt lat="48.7997" lon="1.412">
        <ele>133.28</ele>
        <time>2015-05-14T10:17:55Z</time>
      </trkpt>
      <trkpt lat="48.79973" lon="1.412">
        <ele>132.8</ele>
        <time>2015-05-14T10:18:09Z</time>
      </trkpt>
      <trkpt lat="48.79975" lon="1.41197">
        <ele>132.8</ele>
        <time>2015-05-14T10:18:28Z</time>
      </trkpt>
      <trkpt lat="48.79974" lon="1.41195">
        <ele>132.8</ele>
        <time>2015-05-14T10:18:41Z</time>
      </trkpt>
      <trkpt lat="48.79975" lon="1.41192">
        <ele>132.32</ele>
        <time>2015-05-14T10:19:04Z</time>
      </trkpt>
      <trkpt lat="48.79973" lon="1.41186">
        <ele>132.8</ele>
        <time>2015-05-14T10:19:28Z</time>
      </trkpt>
      <trkpt lat="48.79973" lon="1.41186">
        <ele>132.8</ele>
        <time>2015-05-14T10:19:52Z</time>
      </trkpt>
      <trkpt lat="48.79976" lon="1.41189">
        <ele>132.8</ele>
        <time>2015-05-14T10:20:01Z</time>
      </trkpt>
      <trkpt lat="48.79975" lon="1.41193">
        <ele>132.8</ele>
        <time>2015-05-14T10:20:15Z</time>
      </trkpt>
      <trkpt lat="48.79974" lon="1.41194">
        <ele>132.8</ele>
        <time>2015-05-14T10:20:30Z</time>
      </trkpt>
      <trkpt lat="48.79974" lon="1.41192">
        <ele>132.8</ele>
        <time>2015-05-14T10:20:53Z</time>
      </trkpt>
      <trkpt lat="48.79974" lon="1.41193">
        <ele>132.8</ele>
        <time>2015-05-14T10:21:10Z</time>
      </trkpt>
      <trkpt lat="48.79974" lon="1.41191">
        <ele>132.8</ele>
        <time>2015-05-14T10:21:27Z</time>
      </trkpt>
      <trkpt lat="48.79971" lon="1.41185">
        <ele>132.8</ele>
        <time>2015-05-14T10:21:46Z</time>
      </trkpt>
      <trkpt lat="48.79972" lon="1.41188">
        <ele>133.28</ele>
        <time>2015-05-14T10:22:05Z</time>
      </trkpt>
      <trkpt lat="48.79972" lon="1.41189">
        <ele>133.28</ele>
        <time>2015-05-14T10:22:21Z</time>
      </trkpt>
      <trkpt lat="48.79973" lon="1.41188">
        <ele>133.28</ele>
        <time>2015-05-14T10:22:36Z</time>
      </trkpt>
      <trkpt lat="48.79976" lon="1.41191">
        <ele>133.76</ele>
        <time>2015-05-14T10:22:57Z</time>
      </trkpt>
      <trkpt lat="48.79976" lon="1.4119">
        <ele>133.76</ele>
        <time>2015-05-14T10:23:16Z</time>
      </trkpt>
      <trkpt lat="48.79975" lon="1.41188">
        <ele>133.76</ele>
        <time>2015-05-14T10:23:30Z</time>
      </trkpt>
      <trkpt lat="48.79975" lon="1.41186">
        <ele>133.76</ele>
        <time>2015-05-14T10:23:52Z</time>
      </trkpt>
      <trkpt lat="48.79974" lon="1.41186">
        <ele>134.24</ele>
        <time>2015-05-14T10:24:08Z</time>
      </trkpt>
      <trkpt lat="48.79977" lon="1.41185">
        <ele>134.24</ele>
        <time>2015-05-14T10:24:32Z</time>
      </trkpt>
      <trkpt lat="48.79977" lon="1.41185">
        <ele>134.24</ele>
        <time>2015-05-14T10:24:50Z</time>
      </trkpt>
      <trkpt lat="48.79974" lon="1.41187">
        <ele>134.24</ele>
        <time>2015-05-14T10:25:09Z</time>
      </trkpt>
      <trkpt lat="48.79973" lon="1.41189">
        <ele>134.24</ele>
        <time>2015-05-14T10:25:24Z</time>
      </trkpt>
      <trkpt lat="48.79974" lon="1.41187">
        <ele>134.24</ele>
        <time>2015-05-14T10:25:38Z</time>
      </trkpt>
      <trkpt lat="48.79974" lon="1.41185">
        <ele>134.24</ele>
        <time>2015-05-14T10:25:55Z</time>
      </trkpt>
      <trkpt lat="48.79978" lon="1.41184">
        <ele>134.24</ele>
        <time>2015-05-14T10:26:19Z</time>
      </trkpt>
      <trkpt lat="48.79978" lon="1.41184">
        <ele>134.24</ele>
        <time>2015-05-14T10:26:38Z</time>
      </trkpt>
      <trkpt lat="48.79977" lon="1.41182">
        <ele>134.72</ele>
        <time>2015-05-14T10:26:59Z</time>
      </trkpt>
      <trkpt lat="48.79973" lon="1.41172">
        <ele>134.72</ele>
        <time>2015-05-14T10:27:20Z</time>
      </trkpt>
      <trkpt lat="48.7997" lon="1.41171">
        <ele>134.72</ele>
        <time>2015-05-14T10:27:36Z</time>
      </trkpt>
      <trkpt lat="48.79971" lon="1.41175">
        <ele>134.72</ele>
        <time>2015-05-14T10:27:55Z</time>
      </trkpt>
      <trkpt lat="48.79972" lon="1.41175">
        <ele>134.72</ele>
        <time>2015-05-14T10:28:11Z</time>
      </trkpt>
      <trkpt lat="48.79973" lon="1.41182">
        <ele>134.24</ele>
        <time>2015-05-14T10:28:36Z</time>
      </trkpt>
      <trkpt lat="48.79972" lon="1.41188">
        <ele>134.24</ele>
        <time>2015-05-14T10:28:56Z</time>
      </trkpt>
      <trkpt lat="48.79973" lon="1.41188">
        <ele>134.24</ele>
        <time>2015-05-14T10:29:16Z</time>
      </trkpt>
      <trkpt lat="48.79972" lon="1.41185">
        <ele>134.24</ele>
        <time>2015-05-14T10:29:37Z</time>
      </trkpt>
      <trkpt lat="48.79974" lon="1.41183">
        <ele>134.24</ele>
        <time>2015-05-14T10:29:59Z</time>
      </trkpt>
      <trkpt lat="48.79974" lon="1.41184">
        <ele>134.24</ele>
        <time>2015-05-14T10:30:18Z</time>
      </trkpt>
      <trkpt lat="48.79974" lon="1.41182">
        <ele>134.24</ele>
        <time>2015-05-14T10:30:33Z</time>
      </trkpt>
      <trkpt lat="48.79978" lon="1.4118">
        <ele>134.24</ele>
        <time>2015-05-14T10:30:50Z</time>
      </trkpt>
      <trkpt lat="48.79978" lon="1.41187">
        <ele>134.72</ele>
        <time>2015-05-14T10:31:08Z</time>
      </trkpt>
      <trkpt lat="48.79972" lon="1.41183">
        <ele>134.72</ele>
        <time>2015-05-14T10:31:29Z</time>
      </trkpt>
      <trkpt lat="48.79973" lon="1.41184">
        <ele>134.72</ele>
        <time>2015-05-14T10:31:46Z</time>
      </trkpt>
      <trkpt lat="48.79975" lon="1.41189">
        <ele>134.72</ele>
        <time>2015-05-14T10:32:07Z</time>
      </trkpt>
      <trkpt lat="48.79973" lon="1.41191">
        <ele>134.72</ele>
        <time>2015-05-14T10:32:22Z</time>
      </trkpt>
      <trkpt lat="48.79971" lon="1.41191">
        <ele>134.72</ele>
        <time>2015-05-14T10:32:37Z</time>
      </trkpt>
      <trkpt lat="48.79972" lon="1.41196">
        <ele>134.72</ele>
        <time>2015-05-14T10:32:54Z</time>
      </trkpt>
      <trkpt lat="48.79972" lon="1.41198">
        <ele>134.72</ele>
        <time>2015-05-14T10:33:05Z</time>
      </trkpt>
      <trkpt lat="48.79976" lon="1.41193">
        <ele>134.72</ele>
        <time>2015-05-14T10:33:18Z</time>
      </trkpt>
      <trkpt lat="48.79975" lon="1.41189">
        <ele>134.72</ele>
        <time>2015-05-14T10:33:33Z</time>
      </trkpt>
      <trkpt lat="48.79972" lon="1.4119">
        <ele>134.24</ele>
        <time>2015-05-14T10:33:54Z</time>
      </trkpt>
      <trkpt lat="48.79972" lon="1.4119">
        <ele>134.24</ele>
        <time>2015-05-14T10:34:09Z</time>
      </trkpt>
      <trkpt lat="48.79973" lon="1.4119">
        <ele>134.24</ele>
        <time>2015-05-14T10:34:27Z</time>
      </trkpt>
      <trkpt lat="48.79973" lon="1.41186">
        <ele>134.24</ele>
        <time>2015-05-14T10:34:44Z</time>
      </trkpt>
      <trkpt lat="48.79971" lon="1.41186">
        <ele>134.24</ele>
        <time>2015-05-14T10:35:00Z</time>
      </trkpt>
      <trkpt lat="48.7997" lon="1.41187">
        <ele>134.72</ele>
        <time>2015-05-14T10:35:16Z</time>
      </trkpt>
      <trkpt lat="48.79973" lon="1.41185">
        <ele>134.72</ele>
        <time>2015-05-14T10:35:34Z</time>
      </trkpt>
      <trkpt lat="48.79975" lon="1.41187">
        <ele>134.72</ele>
        <time>2015-05-14T10:35:46Z</time>
      </trkpt>
      <trkpt lat="48.79974" lon="1.41189">
        <ele>134.72</ele>
        <time>2015-05-14T10:35:58Z</time>
      </trkpt>
      <trkpt lat="48.79974" lon="1.41186">
        <ele>134.72</ele>
        <time>2015-05-14T10:36:13Z</time>
      </trkpt>
      <trkpt lat="48.79973" lon="1.41184">
        <ele>134.72</ele>
        <time>2015-05-14T10:36:31Z</time>
      </trkpt>
      <trkpt lat="48.79974" lon="1.41184">
        <ele>134.72</ele>
        <time>2015-05-14T10:36:45Z</time>
      </trkpt>
      <trkpt lat="48.79974" lon="1.4119">
        <ele>134.72</ele>
        <time>2015-05-14T10:36:59Z</time>
      </trkpt>
      <trkpt lat="48.79977" lon="1.41193">
        <ele>134.72</ele>
        <time>2015-05-14T10:37:15Z</time>
      </trkpt>
      <trkpt lat="48.79975" lon="1.41193">
        <ele>134.72</ele>
        <time>2015-05-14T10:37:31Z</time>
      </trkpt>
      <trkpt lat="48.79974" lon="1.41192">
        <ele>134.72</ele>
        <time>2015-05-14T10:37:50Z</time>
      </trkpt>
      <trkpt lat="48.79974" lon="1.41189">
        <ele>135.2</ele>
        <time>2015-05-14T10:38:05Z</time>
      </trkpt>
      <trkpt lat="48.79971" lon="1.41187">
        <ele>135.2</ele>
        <time>2015-05-14T10:38:21Z</time>
      </trkpt>
      <trkpt lat="48.79973" lon="1.41185">
        <ele>135.2</ele>
        <time>2015-05-14T10:38:41Z</time>
      </trkpt>
      <trkpt lat="48.79973" lon="1.41192">
        <ele>135.2</ele>
        <time>2015-05-14T10:39:00Z</time>
      </trkpt>
      <trkpt lat="48.79975" lon="1.41193">
        <ele>135.2</ele>
        <time>2015-05-14T10:39:16Z</time>
      </trkpt>
      <trkpt lat="48.79973" lon="1.41192">
        <ele>135.2</ele>
        <time>2015-05-14T10:39:31Z</time>
      </trkpt>
      <trkpt lat="48.79973" lon="1.4119">
        <ele>135.68</ele>
        <time>2015-05-14T10:39:50Z</time>
      </trkpt>
      <trkpt lat="48.79974" lon="1.41187">
        <ele>135.68</ele>
        <time>2015-05-14T10:40:06Z</time>
      </trkpt>
      <trkpt lat="48.79969" lon="1.41186">
        <ele>136.16</ele>
        <time>2015-05-14T10:40:24Z</time>
      </trkpt>
      <trkpt lat="48.79965" lon="1.4118">
        <ele>136.16</ele>
        <time>2015-05-14T10:40:47Z</time>
      </trkpt>
      <trkpt lat="48.79968" lon="1.41182">
        <ele>136.16</ele>
        <time>2015-05-14T10:41:07Z</time>
      </trkpt>
      <trkpt lat="48.79971" lon="1.4118">
        <ele>136.16</ele>
        <time>2015-05-14T10:41:24Z</time>
      </trkpt>
      <trkpt lat="48.79973" lon="1.4118">
        <ele>136.64</ele>
        <time>2015-05-14T10:41:40Z</time>
      </trkpt>
      <trkpt lat="48.79972" lon="1.41181">
        <ele>137.13</ele>
        <time>2015-05-14T10:41:58Z</time>
      </trkpt>
      <trkpt lat="48.79973" lon="1.41183">
        <ele>137.13</ele>
        <time>2015-05-14T10:42:17Z</time>
      </trkpt>
      <trkpt lat="48.79973" lon="1.41184">
        <ele>137.13</ele>
        <time>2015-05-14T10:42:33Z</time>
      </trkpt>
      <trkpt lat="48.79971" lon="1.41185">
        <ele>137.61</ele>
        <time>2015-05-14T10:42:50Z</time>
      </trkpt>
      <trkpt lat="48.79971" lon="1.41187">
        <ele>137.61</ele>
        <time>2015-05-14T10:43:08Z</time>
      </trkpt>
      <trkpt lat="48.79973" lon="1.41186">
        <ele>137.61</ele>
        <time>2015-05-14T10:43:23Z</time>
      </trkpt>
      <trkpt lat="48.79974" lon="1.41185">
        <ele>137.61</ele>
        <time>2015-05-14T10:43:39Z</time>
      </trkpt>
      <trkpt lat="48.79975" lon="1.4118">
        <ele>137.61</ele>
        <time>2015-05-14T10:43:58Z</time>
      </trkpt>
      <trkpt lat="48.79974" lon="1.4118">
        <ele>137.61</ele>
        <time>2015-05-14T10:44:13Z</time>
      </trkpt>
      <trkpt lat="48.79976" lon="1.4118">
        <ele>137.61</ele>
        <time>2015-05-14T10:44:32Z</time>
      </trkpt>
      <trkpt lat="48.79975" lon="1.41181">
        <ele>138.09</ele>
        <time>2015-05-14T10:44:46Z</time>
      </trkpt>
      <trkpt lat="48.79972" lon="1.41179">
        <ele>138.09</ele>
        <time>2015-05-14T10:45:08Z</time>
      </trkpt>
      <trkpt lat="48.79974" lon="1.41178">
        <ele>138.57</ele>
        <time>2015-05-14T10:45:31Z</time>
      </trkpt>
      <trkpt lat="48.79974" lon="1.41179">
        <ele>138.57</ele>
        <time>2015-05-14T10:45:44Z</time>
      </trkpt>
      <trkpt lat="48.79973" lon="1.41181">
        <ele>138.57</ele>
        <time>2015-05-14T10:46:00Z</time>
      </trkpt>
      <trkpt lat="48.79974" lon="1.41181">
        <ele>138.57</ele>
        <time>2015-05-14T10:46:22Z</time>
      </trkpt>
      <trkpt lat="48.79972" lon="1.41181">
        <ele>138.57</ele>
        <time>2015-05-14T10:46:35Z</time>
      </trkpt>
      <trkpt lat="48.79976" lon="1.4119">
        <ele>138.57</ele>
        <time>2015-05-14T10:46:51Z</time>
      </trkpt>
      <trkpt lat="48.79976" lon="1.41192">
        <ele>139.53</ele>
        <time>2015-05-14T10:47:05Z</time>
      </trkpt>
      <trkpt lat="48.79973" lon="1.41193">
        <ele>139.53</ele>
        <time>2015-05-14T10:47:18Z</time>
      </trkpt>
      <trkpt lat="48.79973" lon="1.41193">
        <ele>140.01</ele>
        <time>2015-05-14T10:47:32Z</time>
      </trkpt>
      <trkpt lat="48.7997" lon="1.41192">
        <ele>140.01</ele>
        <time>2015-05-14T10:47:41Z</time>
      </trkpt>
      <trkpt lat="48.79964" lon="1.41187">
        <ele>140.01</ele>
        <time>2015-05-14T10:47:48Z</time>
      </trkpt>
      <trkpt lat="48.79958" lon="1.41184">
        <ele>140.01</ele>
        <time>2015-05-14T10:47:56Z</time>
      </trkpt>
      <trkpt lat="48.79959" lon="1.41183">
        <ele>139.53</ele>
        <time>2015-05-14T10:48:09Z</time>
      </trkpt>
      <trkpt lat="48.79957" lon="1.41182">
        <ele>139.53</ele>
        <time>2015-05-14T10:48:26Z</time>
      </trkpt>
      <trkpt lat="48.79949" lon="1.4118">
        <ele>140.49</ele>
        <time>2015-05-14T10:48:33Z</time>
      </trkpt>
      <trkpt lat="48.79944" lon="1.41179">
        <ele>140.49</ele>
        <time>2015-05-14T10:48:41Z</time>
      </trkpt>
      <trkpt lat="48.79943" lon="1.41174">
        <ele>140.49</ele>
        <time>2015-05-14T10:48:49Z</time>
      </trkpt>
      <trkpt lat="48.79945" lon="1.41176">
        <ele>140.49</ele>
        <time>2015-05-14T10:49:01Z</time>
      </trkpt>
      <trkpt lat="48.7995" lon="1.41178">
        <ele>140.49</ele>
        <time>2015-05-14T10:49:21Z</time>
      </trkpt>
      <trkpt lat="48.79946" lon="1.41173">
        <ele>140.49</ele>
        <time>2015-05-14T10:49:30Z</time>
      </trkpt>
      <trkpt lat="48.7994" lon="1.41167">
        <ele>141.93</ele>
        <time>2015-05-14T10:49:38Z</time>
      </trkpt>
      <trkpt lat="48.79937" lon="1.41165">
        <ele>140.49</ele>
        <time>2015-05-14T10:49:40Z</time>
      </trkpt>
      <trkpt lat="48.79924" lon="1.41159">
        <ele>140.49</ele>
        <time>2015-05-14T10:49:48Z</time>
      </trkpt>
      <trkpt lat="48.79918" lon="1.41153">
        <ele>140.49</ele>
        <time>2015-05-14T10:49:53Z</time>
      </trkpt>
      <trkpt lat="48.79908" lon="1.41137">
        <ele>140.49</ele>
        <time>2015-05-14T10:50:03Z</time>
      </trkpt>
      <trkpt lat="48.799" lon="1.41125">
        <ele>140.49</ele>
        <time>2015-05-14T10:50:12Z</time>
      </trkpt>
      <trkpt lat="48.79892" lon="1.41113">
        <ele>140.49</ele>
        <time>2015-05-14T10:50:22Z</time>
      </trkpt>
      <trkpt lat="48.7988" lon="1.41101">
        <ele>140.49</ele>
        <time>2015-05-14T10:50:33Z</time>
      </trkpt>
      <trkpt lat="48.7987" lon="1.4109">
        <ele>140.49</ele>
        <time>2015-05-14T10:50:41Z</time>
      </trkpt>
      <trkpt lat="48.7986" lon="1.41075">
        <ele>140.49</ele>
        <time>2015-05-14T10:50:50Z</time>
      </trkpt>
      <trkpt lat="48.79851" lon="1.41065">
        <ele>140.49</ele>
        <time>2015-05-14T10:50:58Z</time>
      </trkpt>
      <trkpt lat="48.79845" lon="1.41057">
        <ele>140.49</ele>
        <time>2015-05-14T10:51:06Z</time>
      </trkpt>
      <trkpt lat="48.79836" lon="1.41047">
        <ele>140.49</ele>
        <time>2015-05-14T10:51:14Z</time>
      </trkpt>
      <trkpt lat="48.79826" lon="1.41033">
        <ele>140.49</ele>
        <time>2015-05-14T10:51:23Z</time>
      </trkpt>
      <trkpt lat="48.79819" lon="1.41026">
        <ele>140.49</ele>
        <time>2015-05-14T10:51:29Z</time>
      </trkpt>
      <trkpt lat="48.79809" lon="1.41017">
        <ele>140.49</ele>
        <time>2015-05-14T10:51:38Z</time>
      </trkpt>
      <trkpt lat="48.79799" lon="1.41002">
        <ele>136.64</ele>
        <time>2015-05-14T10:51:47Z</time>
      </trkpt>
      <trkpt lat="48.79799" lon="1.41001">
        <ele>141.93</ele>
        <time>2015-05-14T10:51:48Z</time>
      </trkpt>
      <trkpt lat="48.79779" lon="1.40986">
        <ele>141.45</ele>
        <time>2015-05-14T10:51:59Z</time>
      </trkpt>
      <trkpt lat="48.79767" lon="1.40973">
        <ele>141.45</ele>
        <time>2015-05-14T10:52:11Z</time>
      </trkpt>
      <trkpt lat="48.79756" lon="1.40958">
        <ele>141.45</ele>
        <time>2015-05-14T10:52:21Z</time>
      </trkpt>
      <trkpt lat="48.79747" lon="1.40945">
        <ele>140.97</ele>
        <time>2015-05-14T10:52:31Z</time>
      </trkpt>
      <trkpt lat="48.79732" lon="1.40928">
        <ele>140.97</ele>
        <time>2015-05-14T10:52:43Z</time>
      </trkpt>
      <trkpt lat="48.79721" lon="1.40914">
        <ele>140.97</ele>
        <time>2015-05-14T10:52:53Z</time>
      </trkpt>
      <trkpt lat="48.79706" lon="1.40896">
        <ele>140.49</ele>
        <time>2015-05-14T10:53:06Z</time>
      </trkpt>
      <trkpt lat="48.79691" lon="1.40879">
        <ele>140.49</ele>
        <time>2015-05-14T10:53:18Z</time>
      </trkpt>
      <trkpt lat="48.79678" lon="1.40864">
        <ele>140.01</ele>
        <time>2015-05-14T10:53:29Z</time>
      </trkpt>
      <trkpt lat="48.79662" lon="1.40845">
        <ele>140.01</ele>
        <time>2015-05-14T10:53:42Z</time>
      </trkpt>
      <trkpt lat="48.79648" lon="1.40831">
        <ele>140.01</ele>
        <time>2015-05-14T10:53:54Z</time>
      </trkpt>
      <trkpt lat="48.7964" lon="1.40822">
        <ele>141.45</ele>
        <time>2015-05-14T10:54:01Z</time>
      </trkpt>
      <trkpt lat="48.7963" lon="1.40809">
        <ele>140.01</ele>
        <time>2015-05-14T10:54:11Z</time>
      </trkpt>
      <trkpt lat="48.79614" lon="1.40788">
        <ele>140.01</ele>
        <time>2015-05-14T10:54:25Z</time>
      </trkpt>
      <trkpt lat="48.79605" lon="1.40777">
        <ele>140.01</ele>
        <time>2015-05-14T10:54:34Z</time>
      </trkpt>
      <trkpt lat="48.79598" lon="1.40769">
        <ele>140.01</ele>
        <time>2015-05-14T10:54:42Z</time>
      </trkpt>
      <trkpt lat="48.79585" lon="1.40755">
        <ele>140.01</ele>
        <time>2015-05-14T10:54:54Z</time>
      </trkpt>
      <trkpt lat="48.79579" lon="1.40748">
        <ele>140.01</ele>
        <time>2015-05-14T10:55:00Z</time>
      </trkpt>
      <trkpt lat="48.79567" lon="1.40733">
        <ele>140.01</ele>
        <time>2015-05-14T10:55:11Z</time>
      </trkpt>
      <trkpt lat="48.79558" lon="1.40721">
        <ele>140.01</ele>
        <time>2015-05-14T10:55:20Z</time>
      </trkpt>
      <trkpt lat="48.79545" lon="1.40703">
        <ele>139.53</ele>
        <time>2015-05-14T10:55:31Z</time>
      </trkpt>
      <trkpt lat="48.79532" lon="1.40687">
        <ele>139.53</ele>
        <time>2015-05-14T10:55:41Z</time>
      </trkpt>
      <trkpt lat="48.7952" lon="1.40671">
        <ele>139.53</ele>
        <time>2015-05-14T10:55:52Z</time>
      </trkpt>
      <trkpt lat="48.79508" lon="1.40655">
        <ele>139.53</ele>
        <time>2015-05-14T10:56:03Z</time>
      </trkpt>
      <trkpt lat="48.79494" lon="1.4064">
        <ele>139.53</ele>
        <time>2015-05-14T10:56:15Z</time>
      </trkpt>
      <trkpt lat="48.79482" lon="1.40626">
        <ele>139.53</ele>
        <time>2015-05-14T10:56:26Z</time>
      </trkpt>
      <trkpt lat="48.7947" lon="1.40615">
        <ele>139.53</ele>
        <time>2015-05-14T10:56:37Z</time>
      </trkpt>
      <trkpt lat="48.79457" lon="1.40602">
        <ele>139.53</ele>
        <time>2015-05-14T10:56:48Z</time>
      </trkpt>
      <trkpt lat="48.79445" lon="1.40591">
        <ele>139.53</ele>
        <time>2015-05-14T10:56:58Z</time>
      </trkpt>
      <trkpt lat="48.79433" lon="1.40577">
        <ele>139.05</ele>
        <time>2015-05-14T10:57:09Z</time>
      </trkpt>
      <trkpt lat="48.7942" lon="1.40557">
        <ele>139.05</ele>
        <time>2015-05-14T10:57:21Z</time>
      </trkpt>
      <trkpt lat="48.79408" lon="1.40537">
        <ele>139.05</ele>
        <time>2015-05-14T10:57:33Z</time>
      </trkpt>
      <trkpt lat="48.79397" lon="1.40526">
        <ele>140.49</ele>
        <time>2015-05-14T10:57:42Z</time>
      </trkpt>
      <trkpt lat="48.79389" lon="1.40519">
        <ele>140.49</ele>
        <time>2015-05-14T10:57:49Z</time>
      </trkpt>
      <trkpt lat="48.79379" lon="1.40505">
        <ele>139.05</ele>
        <time>2015-05-14T10:57:57Z</time>
      </trkpt>
      <trkpt lat="48.79378" lon="1.40504">
        <ele>139.05</ele>
        <time>2015-05-14T10:57:58Z</time>
      </trkpt>
      <trkpt lat="48.79367" lon="1.40493">
        <ele>139.05</ele>
        <time>2015-05-14T10:58:07Z</time>
      </trkpt>
      <trkpt lat="48.79355" lon="1.40477">
        <ele>139.05</ele>
        <time>2015-05-14T10:58:18Z</time>
      </trkpt>
      <trkpt lat="48.79344" lon="1.40461">
        <ele>139.05</ele>
        <time>2015-05-14T10:58:29Z</time>
      </trkpt>
      <trkpt lat="48.79331" lon="1.40446">
        <ele>140.01</ele>
        <time>2015-05-14T10:58:39Z</time>
      </trkpt>
      <trkpt lat="48.7932" lon="1.40429">
        <ele>140.01</ele>
        <time>2015-05-14T10:58:50Z</time>
      </trkpt>
      <trkpt lat="48.79309" lon="1.40415">
        <ele>140.01</ele>
        <time>2015-05-14T10:59:00Z</time>
      </trkpt>
      <trkpt lat="48.79298" lon="1.40401">
        <ele>140.01</ele>
        <time>2015-05-14T10:59:11Z</time>
      </trkpt>
      <trkpt lat="48.79286" lon="1.40388">
        <ele>140.01</ele>
        <time>2015-05-14T10:59:21Z</time>
      </trkpt>
      <trkpt lat="48.79279" lon="1.40378">
        <ele>140.01</ele>
        <time>2015-05-14T10:59:29Z</time>
      </trkpt>
      <trkpt lat="48.7927" lon="1.40365">
        <ele>140.01</ele>
        <time>2015-05-14T10:59:39Z</time>
      </trkpt>
      <trkpt lat="48.7926" lon="1.40354">
        <ele>139.53</ele>
        <time>2015-05-14T10:59:49Z</time>
      </trkpt>
      <trkpt lat="48.79255" lon="1.40348">
        <ele>139.53</ele>
        <time>2015-05-14T10:59:55Z</time>
      </trkpt>
      <trkpt lat="48.79252" lon="1.40345">
        <ele>139.53</ele>
        <time>2015-05-14T11:00:04Z</time>
      </trkpt>
      <trkpt lat="48.79253" lon="1.40345">
        <ele>139.53</ele>
        <time>2015-05-14T11:00:17Z</time>
      </trkpt>
      <trkpt lat="48.79252" lon="1.40344">
        <ele>139.53</ele>
        <time>2015-05-14T11:00:38Z</time>
      </trkpt>
      <trkpt lat="48.7925" lon="1.40343">
        <ele>139.53</ele>
        <time>2015-05-14T11:00:55Z</time>
      </trkpt>
      <trkpt lat="48.79254" lon="1.40343">
        <ele>139.53</ele>
        <time>2015-05-14T11:01:12Z</time>
      </trkpt>
      <trkpt lat="48.79254" lon="1.40343">
        <ele>138.09</ele>
        <time>2015-05-14T11:01:28Z</time>
      </trkpt>
      <trkpt lat="48.79253" lon="1.40342">
        <ele>138.09</ele>
        <time>2015-05-14T11:01:29Z</time>
      </trkpt>
      <trkpt lat="48.7925" lon="1.40342">
        <ele>138.09</ele>
        <time>2015-05-14T11:01:36Z</time>
      </trkpt>
      <trkpt lat="48.79251" lon="1.40344">
        <ele>138.09</ele>
        <time>2015-05-14T11:01:52Z</time>
      </trkpt>
      <trkpt lat="48.79251" lon="1.40344">
        <ele>138.09</ele>
        <time>2015-05-14T11:02:09Z</time>
      </trkpt>
      <trkpt lat="48.79251" lon="1.40341">
        <ele>139.53</ele>
        <time>2015-05-14T11:02:19Z</time>
      </trkpt>
      <trkpt lat="48.79244" lon="1.40333">
        <ele>139.53</ele>
        <time>2015-05-14T11:02:28Z</time>
      </trkpt>
      <trkpt lat="48.79235" lon="1.40323">
        <ele>139.53</ele>
        <time>2015-05-14T11:02:35Z</time>
      </trkpt>
      <trkpt lat="48.79227" lon="1.40312">
        <ele>138.57</ele>
        <time>2015-05-14T11:02:43Z</time>
      </trkpt>
      <trkpt lat="48.79221" lon="1.40301">
        <ele>138.57</ele>
        <time>2015-05-14T11:02:51Z</time>
      </trkpt>
      <trkpt lat="48.79209" lon="1.4029">
        <ele>138.57</ele>
        <time>2015-05-14T11:03:00Z</time>
      </trkpt>
      <trkpt lat="48.79201" lon="1.40277">
        <ele>139.53</ele>
        <time>2015-05-14T11:03:08Z</time>
      </trkpt>
      <trkpt lat="48.79189" lon="1.40265">
        <ele>138.57</ele>
        <time>2015-05-14T11:03:18Z</time>
      </trkpt>
      <trkpt lat="48.79186" lon="1.40262">
        <ele>138.57</ele>
        <time>2015-05-14T11:03:20Z</time>
      </trkpt>
      <trkpt lat="48.79176" lon="1.4025">
        <ele>138.57</ele>
        <time>2015-05-14T11:03:28Z</time>
      </trkpt>
      <trkpt lat="48.79165" lon="1.40237">
        <ele>138.57</ele>
        <time>2015-05-14T11:03:37Z</time>
      </trkpt>
      <trkpt lat="48.79154" lon="1.40223">
        <ele>138.57</ele>
        <time>2015-05-14T11:03:47Z</time>
      </trkpt>
      <trkpt lat="48.79141" lon="1.40212">
        <ele>138.57</ele>
        <time>2015-05-14T11:03:56Z</time>
      </trkpt>
      <trkpt lat="48.79129" lon="1.40203">
        <ele>138.57</ele>
        <time>2015-05-14T11:04:05Z</time>
      </trkpt>
      <trkpt lat="48.79121" lon="1.40195">
        <ele>138.09</ele>
        <time>2015-05-14T11:04:13Z</time>
      </trkpt>
      <trkpt lat="48.79111" lon="1.4018">
        <ele>138.09</ele>
        <time>2015-05-14T11:04:23Z</time>
      </trkpt>
      <trkpt lat="48.79101" lon="1.40167">
        <ele>138.09</ele>
        <time>2015-05-14T11:04:33Z</time>
      </trkpt>
      <trkpt lat="48.79092" lon="1.40156">
        <ele>138.09</ele>
        <time>2015-05-14T11:04:41Z</time>
      </trkpt>
      <trkpt lat="48.79079" lon="1.40138">
        <ele>137.61</ele>
        <time>2015-05-14T11:04:52Z</time>
      </trkpt>
      <trkpt lat="48.79067" lon="1.40126">
        <ele>137.61</ele>
        <time>2015-05-14T11:05:01Z</time>
      </trkpt>
      <trkpt lat="48.79051" lon="1.40109">
        <ele>137.61</ele>
        <time>2015-05-14T11:05:13Z</time>
      </trkpt>
      <trkpt lat="48.79044" lon="1.40098">
        <ele>137.61</ele>
        <time>2015-05-14T11:05:21Z</time>
      </trkpt>
      <trkpt lat="48.79033" lon="1.40084">
        <ele>137.13</ele>
        <time>2015-05-14T11:05:32Z</time>
      </trkpt>
      <trkpt lat="48.79022" lon="1.40073">
        <ele>138.09</ele>
        <time>2015-05-14T11:05:41Z</time>
      </trkpt>
      <trkpt lat="48.79015" lon="1.40064">
        <ele>138.09</ele>
        <time>2015-05-14T11:05:51Z</time>
      </trkpt>
      <trkpt lat="48.79013" lon="1.40055">
        <ele>138.09</ele>
        <time>2015-05-14T11:06:05Z</time>
      </trkpt>
      <trkpt lat="48.78999" lon="1.40043">
        <ele>138.09</ele>
        <time>2015-05-14T11:06:15Z</time>
      </trkpt>
      <trkpt lat="48.78988" lon="1.40032">
        <ele>138.09</ele>
        <time>2015-05-14T11:06:24Z</time>
      </trkpt>
      <trkpt lat="48.78985" lon="1.4003">
        <ele>136.64</ele>
        <time>2015-05-14T11:06:26Z</time>
      </trkpt>
      <trkpt lat="48.78973" lon="1.40012">
        <ele>136.64</ele>
        <time>2015-05-14T11:06:38Z</time>
      </trkpt>
      <trkpt lat="48.78957" lon="1.39995">
        <ele>136.64</ele>
        <time>2015-05-14T11:06:51Z</time>
      </trkpt>
      <trkpt lat="48.78947" lon="1.3998">
        <ele>136.64</ele>
        <time>2015-05-14T11:07:01Z</time>
      </trkpt>
      <trkpt lat="48.78937" lon="1.39969">
        <ele>135.68</ele>
        <time>2015-05-14T11:07:11Z</time>
      </trkpt>
      <trkpt lat="48.78926" lon="1.39955">
        <ele>136.64</ele>
        <time>2015-05-14T11:07:21Z</time>
      </trkpt>
      <trkpt lat="48.78917" lon="1.39945">
        <ele>136.64</ele>
        <time>2015-05-14T11:07:30Z</time>
      </trkpt>
      <trkpt lat="48.78907" lon="1.39934">
        <ele>136.64</ele>
        <time>2015-05-14T11:07:39Z</time>
      </trkpt>
      <trkpt lat="48.78896" lon="1.39923">
        <ele>136.64</ele>
        <time>2015-05-14T11:07:47Z</time>
      </trkpt>
      <trkpt lat="48.7889" lon="1.39912">
        <ele>136.64</ele>
        <time>2015-05-14T11:07:55Z</time>
      </trkpt>
      <trkpt lat="48.78892" lon="1.39908">
        <ele>137.13</ele>
        <time>2015-05-14T11:08:02Z</time>
      </trkpt>
      <trkpt lat="48.78893" lon="1.39905">
        <ele>136.64</ele>
        <time>2015-05-14T11:08:04Z</time>
      </trkpt>
      <trkpt lat="48.78888" lon="1.39888">
        <ele>136.64</ele>
        <time>2015-05-14T11:08:14Z</time>
      </trkpt>
      <trkpt lat="48.78888" lon="1.39888">
        <ele>136.64</ele>
        <time>2015-05-14T11:08:25Z</time>
      </trkpt>
      <trkpt lat="48.78884" lon="1.39892">
        <ele>136.64</ele>
        <time>2015-05-14T11:08:42Z</time>
      </trkpt>
      <trkpt lat="48.78883" lon="1.39894">
        <ele>136.64</ele>
        <time>2015-05-14T11:08:53Z</time>
      </trkpt>
      <trkpt lat="48.78877" lon="1.39897">
        <ele>136.64</ele>
        <time>2015-05-14T11:09:15Z</time>
      </trkpt>
      <trkpt lat="48.78878" lon="1.39894">
        <ele>136.64</ele>
        <time>2015-05-14T11:09:24Z</time>
      </trkpt>
      <trkpt lat="48.7888" lon="1.39889">
        <ele>136.64</ele>
        <time>2015-05-14T11:09:28Z</time>
      </trkpt>
      <trkpt lat="48.78893" lon="1.39887">
        <ele>136.64</ele>
        <time>2015-05-14T11:09:38Z</time>
      </trkpt>
      <trkpt lat="48.78901" lon="1.39887">
        <ele>136.64</ele>
        <time>2015-05-14T11:09:45Z</time>
      </trkpt>
      <trkpt lat="48.7891" lon="1.39885">
        <ele>135.68</ele>
        <time>2015-05-14T11:09:53Z</time>
      </trkpt>
      <trkpt lat="48.78924" lon="1.39882">
        <ele>135.2</ele>
        <time>2015-05-14T11:10:05Z</time>
      </trkpt>
      <trkpt lat="48.78936" lon="1.3988">
        <ele>135.2</ele>
        <time>2015-05-14T11:10:14Z</time>
      </trkpt>
      <trkpt lat="48.7895" lon="1.39879">
        <ele>135.2</ele>
        <time>2015-05-14T11:10:24Z</time>
      </trkpt>
      <trkpt lat="48.78963" lon="1.39877">
        <ele>135.2</ele>
        <time>2015-05-14T11:10:33Z</time>
      </trkpt>
      <trkpt lat="48.78966" lon="1.39877">
        <ele>135.2</ele>
        <time>2015-05-14T11:10:35Z</time>
      </trkpt>
      <trkpt lat="48.78974" lon="1.39874">
        <ele>135.2</ele>
        <time>2015-05-14T11:10:41Z</time>
      </trkpt>
      <trkpt lat="48.78988" lon="1.3987">
        <ele>135.2</ele>
        <time>2015-05-14T11:10:51Z</time>
      </trkpt>
      <trkpt lat="48.78999" lon="1.39867">
        <ele>133.28</ele>
        <time>2015-05-14T11:11:00Z</time>
      </trkpt>
      <trkpt lat="48.79012" lon="1.39865">
        <ele>131.36</ele>
        <time>2015-05-14T11:11:11Z</time>
      </trkpt>
      <trkpt lat="48.79015" lon="1.39864">
        <ele>130.88</ele>
        <time>2015-05-14T11:11:13Z</time>
      </trkpt>
      <trkpt lat="48.79032" lon="1.39862">
        <ele>129.43</ele>
        <time>2015-05-14T11:11:26Z</time>
      </trkpt>
      <trkpt lat="48.7905" lon="1.39859">
        <ele>132.32</ele>
        <time>2015-05-14T11:11:38Z</time>
      </trkpt>
      <trkpt lat="48.79066" lon="1.39855">
        <ele>134.72</ele>
        <time>2015-05-14T11:11:49Z</time>
      </trkpt>
      <trkpt lat="48.79078" lon="1.39852">
        <ele>136.16</ele>
        <time>2015-05-14T11:11:59Z</time>
      </trkpt>
      <trkpt lat="48.79092" lon="1.3985">
        <ele>136.16</ele>
        <time>2015-05-14T11:12:10Z</time>
      </trkpt>
      <trkpt lat="48.79104" lon="1.39846">
        <ele>136.16</ele>
        <time>2015-05-14T11:12:20Z</time>
      </trkpt>
      <trkpt lat="48.79115" lon="1.39845">
        <ele>136.16</ele>
        <time>2015-05-14T11:12:30Z</time>
      </trkpt>
      <trkpt lat="48.79125" lon="1.39842">
        <ele>136.16</ele>
        <time>2015-05-14T11:12:38Z</time>
      </trkpt>
      <trkpt lat="48.79135" lon="1.39842">
        <ele>136.16</ele>
        <time>2015-05-14T11:12:46Z</time>
      </trkpt>
      <trkpt lat="48.79148" lon="1.39839">
        <ele>136.16</ele>
        <time>2015-05-14T11:12:56Z</time>
      </trkpt>
      <trkpt lat="48.79161" lon="1.39836">
        <ele>136.64</ele>
        <time>2015-05-14T11:13:07Z</time>
      </trkpt>
      <trkpt lat="48.79175" lon="1.3983">
        <ele>136.64</ele>
        <time>2015-05-14T11:13:16Z</time>
      </trkpt>
      <trkpt lat="48.79187" lon="1.39824">
        <ele>136.64</ele>
        <time>2015-05-14T11:13:24Z</time>
      </trkpt>
      <trkpt lat="48.79192" lon="1.39814">
        <ele>135.68</ele>
        <time>2015-05-14T11:13:39Z</time>
      </trkpt>
      <trkpt lat="48.79195" lon="1.39814">
        <ele>135.68</ele>
        <time>2015-05-14T11:13:51Z</time>
      </trkpt>
      <trkpt lat="48.792" lon="1.39813">
        <ele>135.68</ele>
        <time>2015-05-14T11:14:07Z</time>
      </trkpt>
      <trkpt lat="48.79205" lon="1.39816">
        <ele>135.68</ele>
        <time>2015-05-14T11:14:14Z</time>
      </trkpt>
      <trkpt lat="48.79212" lon="1.39819">
        <ele>135.2</ele>
        <time>2015-05-14T11:14:22Z</time>
      </trkpt>
      <trkpt lat="48.79224" lon="1.39821">
        <ele>134.72</ele>
        <time>2015-05-14T11:14:32Z</time>
      </trkpt>
      <trkpt lat="48.79227" lon="1.39822">
        <ele>134.24</ele>
        <time>2015-05-14T11:14:35Z</time>
      </trkpt>
      <trkpt lat="48.79232" lon="1.39819">
        <ele>132.8</ele>
        <time>2015-05-14T11:14:39Z</time>
      </trkpt>
      <trkpt lat="48.79238" lon="1.39817">
        <ele>132.32</ele>
        <time>2015-05-14T11:14:47Z</time>
      </trkpt>
      <trkpt lat="48.7924" lon="1.39817">
        <ele>132.32</ele>
        <time>2015-05-14T11:15:03Z</time>
      </trkpt>
      <trkpt lat="48.79245" lon="1.39817">
        <ele>131.84</ele>
        <time>2015-05-14T11:15:11Z</time>
      </trkpt>
      <trkpt lat="48.79253" lon="1.39818">
        <ele>131.36</ele>
        <time>2015-05-14T11:15:20Z</time>
      </trkpt>
      <trkpt lat="48.79263" lon="1.39815">
        <ele>130.88</ele>
        <time>2015-05-14T11:15:31Z</time>
      </trkpt>
      <trkpt lat="48.79266" lon="1.39815">
        <ele>130.88</ele>
        <time>2015-05-14T11:15:34Z</time>
      </trkpt>
      <trkpt lat="48.79282" lon="1.39807">
        <ele>130.88</ele>
        <time>2015-05-14T11:15:44Z</time>
      </trkpt>
      <trkpt lat="48.79295" lon="1.39805">
        <ele>130.88</ele>
        <time>2015-05-14T11:15:54Z</time>
      </trkpt>
      <trkpt lat="48.79306" lon="1.39805">
        <ele>132.32</ele>
        <time>2015-05-14T11:16:02Z</time>
      </trkpt>
      <trkpt lat="48.79324" lon="1.39802">
        <ele>132.8</ele>
        <time>2015-05-14T11:16:15Z</time>
      </trkpt>
      <trkpt lat="48.79339" lon="1.39799">
        <ele>132.8</ele>
        <time>2015-05-14T11:16:26Z</time>
      </trkpt>
      <trkpt lat="48.79352" lon="1.39796">
        <ele>133.28</ele>
        <time>2015-05-14T11:16:36Z</time>
      </trkpt>
      <trkpt lat="48.79366" lon="1.39791">
        <ele>133.76</ele>
        <time>2015-05-14T11:16:45Z</time>
      </trkpt>
      <trkpt lat="48.79378" lon="1.39788">
        <ele>134.72</ele>
        <time>2015-05-14T11:16:54Z</time>
      </trkpt>
      <trkpt lat="48.79389" lon="1.39786">
        <ele>135.68</ele>
        <time>2015-05-14T11:17:04Z</time>
      </trkpt>
      <trkpt lat="48.79388" lon="1.39783">
        <ele>135.68</ele>
        <time>2015-05-14T11:17:19Z</time>
      </trkpt>
      <trkpt lat="48.79396" lon="1.39784">
        <ele>135.68</ele>
        <time>2015-05-14T11:17:28Z</time>
      </trkpt>
      <trkpt lat="48.79408" lon="1.39782">
        <ele>135.68</ele>
        <time>2015-05-14T11:17:38Z</time>
      </trkpt>
      <trkpt lat="48.79422" lon="1.39778">
        <ele>135.68</ele>
        <time>2015-05-14T11:17:48Z</time>
      </trkpt>
      <trkpt lat="48.79436" lon="1.39775">
        <ele>135.68</ele>
        <time>2015-05-14T11:17:59Z</time>
      </trkpt>
      <trkpt lat="48.79439" lon="1.39775">
        <ele>135.68</ele>
        <time>2015-05-14T11:18:01Z</time>
      </trkpt>
      <trkpt lat="48.79456" lon="1.39773">
        <ele>135.68</ele>
        <time>2015-05-14T11:18:13Z</time>
      </trkpt>
      <trkpt lat="48.79472" lon="1.39772">
        <ele>135.68</ele>
        <time>2015-05-14T11:18:25Z</time>
      </trkpt>
      <trkpt lat="48.79484" lon="1.39771">
        <ele>137.13</ele>
        <time>2015-05-14T11:18:35Z</time>
      </trkpt>
      <trkpt lat="48.79499" lon="1.39765">
        <ele>137.13</ele>
        <time>2015-05-14T11:18:45Z</time>
      </trkpt>
      <trkpt lat="48.79514" lon="1.39759">
        <ele>138.09</ele>
        <time>2015-05-14T11:18:55Z</time>
      </trkpt>
      <trkpt lat="48.79529" lon="1.39754">
        <ele>138.57</ele>
        <time>2015-05-14T11:19:07Z</time>
      </trkpt>
      <trkpt lat="48.79543" lon="1.39752">
        <ele>138.57</ele>
        <time>2015-05-14T11:19:17Z</time>
      </trkpt>
      <trkpt lat="48.79559" lon="1.39749">
        <ele>139.05</ele>
        <time>2015-05-14T11:19:28Z</time>
      </trkpt>
      <trkpt lat="48.79574" lon="1.39745">
        <ele>139.05</ele>
        <time>2015-05-14T11:19:39Z</time>
      </trkpt>
      <trkpt lat="48.79589" lon="1.3974">
        <ele>139.53</ele>
        <time>2015-05-14T11:19:50Z</time>
      </trkpt>
      <trkpt lat="48.79602" lon="1.39737">
        <ele>140.01</ele>
        <time>2015-05-14T11:20:01Z</time>
      </trkpt>
      <trkpt lat="48.79616" lon="1.39733">
        <ele>140.01</ele>
        <time>2015-05-14T11:20:11Z</time>
      </trkpt>
      <trkpt lat="48.79626" lon="1.39732">
        <ele>140.01</ele>
        <time>2015-05-14T11:20:20Z</time>
      </trkpt>
      <trkpt lat="48.79639" lon="1.39731">
        <ele>140.49</ele>
        <time>2015-05-14T11:20:31Z</time>
      </trkpt>
      <trkpt lat="48.79655" lon="1.39729">
        <ele>140.49</ele>
        <time>2015-05-14T11:20:43Z</time>
      </trkpt>
      <trkpt lat="48.79672" lon="1.39724">
        <ele>140.49</ele>
        <time>2015-05-14T11:20:54Z</time>
      </trkpt>
      <trkpt lat="48.79683" lon="1.39721">
        <ele>140.49</ele>
        <time>2015-05-14T11:21:05Z</time>
      </trkpt>
      <trkpt lat="48.79696" lon="1.39719">
        <ele>140.49</ele>
        <time>2015-05-14T11:21:14Z</time>
      </trkpt>
      <trkpt lat="48.79713" lon="1.39717">
        <ele>140.97</ele>
        <time>2015-05-14T11:21:26Z</time>
      </trkpt>
      <trkpt lat="48.79727" lon="1.39713">
        <ele>140.97</ele>
        <time>2015-05-14T11:21:36Z</time>
      </trkpt>
      <trkpt lat="48.79731" lon="1.39713">
        <ele>140.97</ele>
        <time>2015-05-14T11:21:39Z</time>
      </trkpt>
      <trkpt lat="48.79745" lon="1.39712">
        <ele>140.97</ele>
        <time>2015-05-14T11:21:49Z</time>
      </trkpt>
      <trkpt lat="48.7976" lon="1.39706">
        <ele>141.45</ele>
        <time>2015-05-14T11:22:00Z</time>
      </trkpt>
      <trkpt lat="48.79774" lon="1.39704">
        <ele>141.45</ele>
        <time>2015-05-14T11:22:11Z</time>
      </trkpt>
      <trkpt lat="48.79786" lon="1.39701">
        <ele>141.45</ele>
        <time>2015-05-14T11:22:21Z</time>
      </trkpt>
      <trkpt lat="48.79803" lon="1.39696">
        <ele>141.45</ele>
        <time>2015-05-14T11:22:33Z</time>
      </trkpt>
      <trkpt lat="48.79815" lon="1.39694">
        <ele>141.45</ele>
        <time>2015-05-14T11:22:42Z</time>
      </trkpt>
      <trkpt lat="48.79829" lon="1.39691">
        <ele>141.45</ele>
        <time>2015-05-14T11:22:52Z</time>
      </trkpt>
      <trkpt lat="48.79837" lon="1.39688">
        <ele>141.45</ele>
        <time>2015-05-14T11:22:58Z</time>
      </trkpt>
      <trkpt lat="48.79847" lon="1.39703">
        <ele>141.93</ele>
        <time>2015-05-14T11:23:10Z</time>
      </trkpt>
      <trkpt lat="48.79856" lon="1.39706">
        <ele>141.93</ele>
        <time>2015-05-14T11:23:18Z</time>
      </trkpt>
      <trkpt lat="48.79857" lon="1.39707">
        <ele>141.93</ele>
        <time>2015-05-14T11:23:33Z</time>
      </trkpt>
      <trkpt lat="48.79858" lon="1.39703">
        <ele>140.49</ele>
        <time>2015-05-14T11:23:46Z</time>
      </trkpt>
      <trkpt lat="48.79863" lon="1.39711">
        <ele>140.49</ele>
        <time>2015-05-14T11:23:52Z</time>
      </trkpt>
      <trkpt lat="48.79866" lon="1.39714">
        <ele>141.93</ele>
        <time>2015-05-14T11:23:54Z</time>
      </trkpt>
      <trkpt lat="48.79872" lon="1.39722">
        <ele>142.41</ele>
        <time>2015-05-14T11:24:00Z</time>
      </trkpt>
      <trkpt lat="48.79881" lon="1.39734">
        <ele>140.97</ele>
        <time>2015-05-14T11:24:10Z</time>
      </trkpt>
      <trkpt lat="48.79893" lon="1.39753">
        <ele>140.97</ele>
        <time>2015-05-14T11:24:21Z</time>
      </trkpt>
      <trkpt lat="48.79902" lon="1.39767">
        <ele>140.97</ele>
        <time>2015-05-14T11:24:31Z</time>
      </trkpt>
      <trkpt lat="48.79913" lon="1.39779">
        <ele>140.49</ele>
        <time>2015-05-14T11:24:41Z</time>
      </trkpt>
      <trkpt lat="48.79925" lon="1.39798">
        <ele>140.49</ele>
        <time>2015-05-14T11:24:53Z</time>
      </trkpt>
      <trkpt lat="48.79935" lon="1.39815">
        <ele>140.49</ele>
        <time>2015-05-14T11:25:04Z</time>
      </trkpt>
      <trkpt lat="48.79948" lon="1.39831">
        <ele>140.49</ele>
        <time>2015-05-14T11:25:15Z</time>
      </trkpt>
      <trkpt lat="48.79961" lon="1.39846">
        <ele>140.49</ele>
        <time>2015-05-14T11:25:26Z</time>
      </trkpt>
      <trkpt lat="48.79971" lon="1.39859">
        <ele>140.01</ele>
        <time>2015-05-14T11:25:36Z</time>
      </trkpt>
      <trkpt lat="48.79978" lon="1.3987">
        <ele>141.45</ele>
        <time>2015-05-14T11:25:44Z</time>
      </trkpt>
      <trkpt lat="48.79986" lon="1.39879">
        <ele>140.49</ele>
        <time>2015-05-14T11:25:51Z</time>
      </trkpt>
      <trkpt lat="48.79995" lon="1.39887">
        <ele>140.01</ele>
        <time>2015-05-14T11:25:58Z</time>
      </trkpt>
      <trkpt lat="48.80007" lon="1.39902">
        <ele>140.01</ele>
        <time>2015-05-14T11:26:09Z</time>
      </trkpt>
      <trkpt lat="48.8002" lon="1.39921">
        <ele>140.01</ele>
        <time>2015-05-14T11:26:22Z</time>
      </trkpt>
      <trkpt lat="48.80029" lon="1.39937">
        <ele>140.01</ele>
        <time>2015-05-14T11:26:32Z</time>
      </trkpt>
      <trkpt lat="48.80042" lon="1.39958">
        <ele>140.01</ele>
        <time>2015-05-14T11:26:45Z</time>
      </trkpt>
      <trkpt lat="48.80056" lon="1.39978">
        <ele>140.01</ele>
        <time>2015-05-14T11:26:58Z</time>
      </trkpt>
      <trkpt lat="48.80069" lon="1.39994">
        <ele>140.01</ele>
        <time>2015-05-14T11:27:10Z</time>
      </trkpt>
      <trkpt lat="48.8008" lon="1.40009">
        <ele>140.01</ele>
        <time>2015-05-14T11:27:21Z</time>
      </trkpt>
      <trkpt lat="48.80093" lon="1.40025">
        <ele>140.01</ele>
        <time>2015-05-14T11:27:32Z</time>
      </trkpt>
      <trkpt lat="48.80103" lon="1.40038">
        <ele>140.01</ele>
        <time>2015-05-14T11:27:42Z</time>
      </trkpt>
      <trkpt lat="48.80112" lon="1.4005">
        <ele>140.97</ele>
        <time>2015-05-14T11:27:51Z</time>
      </trkpt>
      <trkpt lat="48.80122" lon="1.40062">
        <ele>140.97</ele>
        <time>2015-05-14T11:28:00Z</time>
      </trkpt>
      <trkpt lat="48.80134" lon="1.40076">
        <ele>140.97</ele>
        <time>2015-05-14T11:28:11Z</time>
      </trkpt>
      <trkpt lat="48.80144" lon="1.40088">
        <ele>141.45</ele>
        <time>2015-05-14T11:28:21Z</time>
      </trkpt>
      <trkpt lat="48.80153" lon="1.40101">
        <ele>141.45</ele>
        <time>2015-05-14T11:28:30Z</time>
      </trkpt>
      <trkpt lat="48.80162" lon="1.40115">
        <ele>140.97</ele>
        <time>2015-05-14T11:28:40Z</time>
      </trkpt>
      <trkpt lat="48.80173" lon="1.40127">
        <ele>140.97</ele>
        <time>2015-05-14T11:28:50Z</time>
      </trkpt>
      <trkpt lat="48.80181" lon="1.40138">
        <ele>140.97</ele>
        <time>2015-05-14T11:28:59Z</time>
      </trkpt>
      <trkpt lat="48.80192" lon="1.40152">
        <ele>140.97</ele>
        <time>2015-05-14T11:29:11Z</time>
      </trkpt>
      <trkpt lat="48.802" lon="1.40166">
        <ele>140.97</ele>
        <time>2015-05-14T11:29:21Z</time>
      </trkpt>
      <trkpt lat="48.8021" lon="1.4018">
        <ele>140.97</ele>
        <time>2015-05-14T11:29:32Z</time>
      </trkpt>
      <trkpt lat="48.80223" lon="1.40196">
        <ele>141.45</ele>
        <time>2015-05-14T11:29:43Z</time>
      </trkpt>
      <trkpt lat="48.80227" lon="1.40202">
        <ele>140.01</ele>
        <time>2015-05-14T11:29:47Z</time>
      </trkpt>
      <trkpt lat="48.80238" lon="1.40216">
        <ele>140.01</ele>
        <time>2015-05-14T11:29:57Z</time>
      </trkpt>
      <trkpt lat="48.80246" lon="1.40227">
        <ele>141.45</ele>
        <time>2015-05-14T11:30:06Z</time>
      </trkpt>
      <trkpt lat="48.80253" lon="1.40238">
        <ele>140.97</ele>
        <time>2015-05-14T11:30:15Z</time>
      </trkpt>
      <trkpt lat="48.80263" lon="1.4025">
        <ele>140.97</ele>
        <time>2015-05-14T11:30:25Z</time>
      </trkpt>
      <trkpt lat="48.80271" lon="1.4026">
        <ele>140.97</ele>
        <time>2015-05-14T11:30:34Z</time>
      </trkpt>
      <trkpt lat="48.80282" lon="1.40275">
        <ele>140.97</ele>
        <time>2015-05-14T11:30:45Z</time>
      </trkpt>
      <trkpt lat="48.8029" lon="1.40288">
        <ele>140.97</ele>
        <time>2015-05-14T11:30:54Z</time>
      </trkpt>
      <trkpt lat="48.803" lon="1.403">
        <ele>140.97</ele>
        <time>2015-05-14T11:31:04Z</time>
      </trkpt>
      <trkpt lat="48.80309" lon="1.40313">
        <ele>140.97</ele>
        <time>2015-05-14T11:31:13Z</time>
      </trkpt>
      <trkpt lat="48.80318" lon="1.40327">
        <ele>140.97</ele>
        <time>2015-05-14T11:31:22Z</time>
      </trkpt>
      <trkpt lat="48.80326" lon="1.40338">
        <ele>140.97</ele>
        <time>2015-05-14T11:31:31Z</time>
      </trkpt>
      <trkpt lat="48.8033" lon="1.40344">
        <ele>140.97</ele>
        <time>2015-05-14T11:31:36Z</time>
      </trkpt>
      <trkpt lat="48.80337" lon="1.40356">
        <ele>140.97</ele>
        <time>2015-05-14T11:31:45Z</time>
      </trkpt>
      <trkpt lat="48.80346" lon="1.40367">
        <ele>140.97</ele>
        <time>2015-05-14T11:31:54Z</time>
      </trkpt>
      <trkpt lat="48.80358" lon="1.40384">
        <ele>140.97</ele>
        <time>2015-05-14T11:32:05Z</time>
      </trkpt>
      <trkpt lat="48.8037" lon="1.40402">
        <ele>140.49</ele>
        <time>2015-05-14T11:32:17Z</time>
      </trkpt>
      <trkpt lat="48.80378" lon="1.40414">
        <ele>140.49</ele>
        <time>2015-05-14T11:32:25Z</time>
      </trkpt>
      <trkpt lat="48.80393" lon="1.40429">
        <ele>140.49</ele>
        <time>2015-05-14T11:32:37Z</time>
      </trkpt>
      <trkpt lat="48.80402" lon="1.40444">
        <ele>140.49</ele>
        <time>2015-05-14T11:32:47Z</time>
      </trkpt>
      <trkpt lat="48.8041" lon="1.40452">
        <ele>140.49</ele>
        <time>2015-05-14T11:32:55Z</time>
      </trkpt>
      <trkpt lat="48.80416" lon="1.4046">
        <ele>140.49</ele>
        <time>2015-05-14T11:33:04Z</time>
      </trkpt>
      <trkpt lat="48.80424" lon="1.4047">
        <ele>140.49</ele>
        <time>2015-05-14T11:33:13Z</time>
      </trkpt>
      <trkpt lat="48.80435" lon="1.40484">
        <ele>140.49</ele>
        <time>2015-05-14T11:33:23Z</time>
      </trkpt>
      <trkpt lat="48.80446" lon="1.40496">
        <ele>140.49</ele>
        <time>2015-05-14T11:33:33Z</time>
      </trkpt>
      <trkpt lat="48.80456" lon="1.40511">
        <ele>140.01</ele>
        <time>2015-05-14T11:33:44Z</time>
      </trkpt>
      <trkpt lat="48.80459" lon="1.40516">
        <ele>140.01</ele>
        <time>2015-05-14T11:33:47Z</time>
      </trkpt>
      <trkpt lat="48.80463" lon="1.40528">
        <ele>140.01</ele>
        <time>2015-05-14T11:33:53Z</time>
      </trkpt>
      <trkpt lat="48.80476" lon="1.40545">
        <ele>140.01</ele>
        <time>2015-05-14T11:34:05Z</time>
      </trkpt>
      <trkpt lat="48.80484" lon="1.40556">
        <ele>140.01</ele>
        <time>2015-05-14T11:34:13Z</time>
      </trkpt>
      <trkpt lat="48.8049" lon="1.40563">
        <ele>140.01</ele>
        <time>2015-05-14T11:34:21Z</time>
      </trkpt>
      <trkpt lat="48.80486" lon="1.40556">
        <ele>140.01</ele>
        <time>2015-05-14T11:34:27Z</time>
      </trkpt>
      <trkpt lat="48.80476" lon="1.4054">
        <ele>140.01</ele>
        <time>2015-05-14T11:34:38Z</time>
      </trkpt>
      <trkpt lat="48.80466" lon="1.40525">
        <ele>140.01</ele>
        <time>2015-05-14T11:34:48Z</time>
      </trkpt>
      <trkpt lat="48.80456" lon="1.40511">
        <ele>140.01</ele>
        <time>2015-05-14T11:34:58Z</time>
      </trkpt>
      <trkpt lat="48.80445" lon="1.40495">
        <ele>139.53</ele>
        <time>2015-05-14T11:35:08Z</time>
      </trkpt>
      <trkpt lat="48.80437" lon="1.40485">
        <ele>138.57</ele>
        <time>2015-05-14T11:35:17Z</time>
      </trkpt>
      <trkpt lat="48.80437" lon="1.40485">
        <ele>138.57</ele>
        <time>2015-05-14T11:35:18Z</time>
      </trkpt>
      <trkpt lat="48.80436" lon="1.40484">
        <ele>138.09</ele>
        <time>2015-05-14T11:35:36Z</time>
      </trkpt>
      <trkpt lat="48.80437" lon="1.40483">
        <ele>140.49</ele>
        <time>2015-05-14T11:35:46Z</time>
      </trkpt>
      <trkpt lat="48.80437" lon="1.4048">
        <ele>140.01</ele>
        <time>2015-05-14T11:35:58Z</time>
      </trkpt>
      <trkpt lat="48.80426" lon="1.40467">
        <ele>140.01</ele>
        <time>2015-05-14T11:36:09Z</time>
      </trkpt>
      <trkpt lat="48.8042" lon="1.40458">
        <ele>139.05</ele>
        <time>2015-05-14T11:36:17Z</time>
      </trkpt>
      <trkpt lat="48.80419" lon="1.40457">
        <ele>139.05</ele>
        <time>2015-05-14T11:36:18Z</time>
      </trkpt>
      <trkpt lat="48.80409" lon="1.40444">
        <ele>139.05</ele>
        <time>2015-05-14T11:36:26Z</time>
      </trkpt>
      <trkpt lat="48.80398" lon="1.4043">
        <ele>138.57</ele>
        <time>2015-05-14T11:36:36Z</time>
      </trkpt>
      <trkpt lat="48.80388" lon="1.40417">
        <ele>138.57</ele>
        <time>2015-05-14T11:36:45Z</time>
      </trkpt>
      <trkpt lat="48.80377" lon="1.40406">
        <ele>140.01</ele>
        <time>2015-05-14T11:36:55Z</time>
      </trkpt>
      <trkpt lat="48.80376" lon="1.40404">
        <ele>140.01</ele>
        <time>2015-05-14T11:36:56Z</time>
      </trkpt>
      <trkpt lat="48.80368" lon="1.40395">
        <ele>140.01</ele>
        <time>2015-05-14T11:37:03Z</time>
      </trkpt>
      <trkpt lat="48.80363" lon="1.40387">
        <ele>140.01</ele>
        <time>2015-05-14T11:37:09Z</time>
      </trkpt>
      <trkpt lat="48.80358" lon="1.4038">
        <ele>140.01</ele>
        <time>2015-05-14T11:37:15Z</time>
      </trkpt>
      <trkpt lat="48.80348" lon="1.40366">
        <ele>139.53</ele>
        <time>2015-05-14T11:37:26Z</time>
      </trkpt>
      <trkpt lat="48.80339" lon="1.40354">
        <ele>139.53</ele>
        <time>2015-05-14T11:37:34Z</time>
      </trkpt>
      <trkpt lat="48.80334" lon="1.40344">
        <ele>139.53</ele>
        <time>2015-05-14T11:37:41Z</time>
      </trkpt>
      <trkpt lat="48.80333" lon="1.40342">
        <ele>139.53</ele>
        <time>2015-05-14T11:37:42Z</time>
      </trkpt>
      <trkpt lat="48.80326" lon="1.40334">
        <ele>139.53</ele>
        <time>2015-05-14T11:37:47Z</time>
      </trkpt>
      <trkpt lat="48.80313" lon="1.40318">
        <ele>139.53</ele>
        <time>2015-05-14T11:37:58Z</time>
      </trkpt>
      <trkpt lat="48.80304" lon="1.40306">
        <ele>139.53</ele>
        <time>2015-05-14T11:38:07Z</time>
      </trkpt>
      <trkpt lat="48.80299" lon="1.40297">
        <ele>139.05</ele>
        <time>2015-05-14T11:38:12Z</time>
      </trkpt>
      <trkpt lat="48.80292" lon="1.40286">
        <ele>139.05</ele>
        <time>2015-05-14T11:38:18Z</time>
      </trkpt>
      <trkpt lat="48.8028" lon="1.40269">
        <ele>139.05</ele>
        <time>2015-05-14T11:38:28Z</time>
      </trkpt>
      <trkpt lat="48.80267" lon="1.40254">
        <ele>139.05</ele>
        <time>2015-05-14T11:38:39Z</time>
      </trkpt>
      <trkpt lat="48.80257" lon="1.40242">
        <ele>139.05</ele>
        <time>2015-05-14T11:38:49Z</time>
      </trkpt>
      <trkpt lat="48.80249" lon="1.40228">
        <ele>139.05</ele>
        <time>2015-05-14T11:38:59Z</time>
      </trkpt>
      <trkpt lat="48.80238" lon="1.40215">
        <ele>139.05</ele>
        <time>2015-05-14T11:39:08Z</time>
      </trkpt>
      <trkpt lat="48.80231" lon="1.40203">
        <ele>139.05</ele>
        <time>2015-05-14T11:39:16Z</time>
      </trkpt>
      <trkpt lat="48.80228" lon="1.40199">
        <ele>139.05</ele>
        <time>2015-05-14T11:39:19Z</time>
      </trkpt>
      <trkpt lat="48.80219" lon="1.40187">
        <ele>138.57</ele>
        <time>2015-05-14T11:39:28Z</time>
      </trkpt>
      <trkpt lat="48.80215" lon="1.40182">
        <ele>137.61</ele>
        <time>2015-05-14T11:39:31Z</time>
      </trkpt>
      <trkpt lat="48.80204" lon="1.40167">
        <ele>138.57</ele>
        <time>2015-05-14T11:39:41Z</time>
      </trkpt>
      <trkpt lat="48.80195" lon="1.40156">
        <ele>139.05</ele>
        <time>2015-05-14T11:39:50Z</time>
      </trkpt>
      <trkpt lat="48.80184" lon="1.40141">
        <ele>137.61</ele>
        <time>2015-05-14T11:39:59Z</time>
      </trkpt>
      <trkpt lat="48.80176" lon="1.40131">
        <ele>137.13</ele>
        <time>2015-05-14T11:40:07Z</time>
      </trkpt>
      <trkpt lat="48.80167" lon="1.40117">
        <ele>137.13</ele>
        <time>2015-05-14T11:40:16Z</time>
      </trkpt>
      <trkpt lat="48.80159" lon="1.40105">
        <ele>136.64</ele>
        <time>2015-05-14T11:40:24Z</time>
      </trkpt>
      <trkpt lat="48.80156" lon="1.40101">
        <ele>136.64</ele>
        <time>2015-05-14T11:40:27Z</time>
      </trkpt>
      <trkpt lat="48.80148" lon="1.4009">
        <ele>137.61</ele>
        <time>2015-05-14T11:40:35Z</time>
      </trkpt>
      <trkpt lat="48.8014" lon="1.40083">
        <ele>137.61</ele>
        <time>2015-05-14T11:40:42Z</time>
      </trkpt>
      <trkpt lat="48.8013" lon="1.40068">
        <ele>137.61</ele>
        <time>2015-05-14T11:40:52Z</time>
      </trkpt>
      <trkpt lat="48.80121" lon="1.40054">
        <ele>137.61</ele>
        <time>2015-05-14T11:41:00Z</time>
      </trkpt>
      <trkpt lat="48.80113" lon="1.40044">
        <ele>137.61</ele>
        <time>2015-05-14T11:41:07Z</time>
      </trkpt>
      <trkpt lat="48.80102" lon="1.40031">
        <ele>137.61</ele>
        <time>2015-05-14T11:41:16Z</time>
      </trkpt>
      <trkpt lat="48.80093" lon="1.4002">
        <ele>137.61</ele>
        <time>2015-05-14T11:41:24Z</time>
      </trkpt>
      <trkpt lat="48.80082" lon="1.40007">
        <ele>137.61</ele>
        <time>2015-05-14T11:41:35Z</time>
      </trkpt>
      <trkpt lat="48.80072" lon="1.39993">
        <ele>137.61</ele>
        <time>2015-05-14T11:41:45Z</time>
      </trkpt>
      <trkpt lat="48.80065" lon="1.3998">
        <ele>137.61</ele>
        <time>2015-05-14T11:41:54Z</time>
      </trkpt>
      <trkpt lat="48.80054" lon="1.39966">
        <ele>137.13</ele>
        <time>2015-05-14T11:42:03Z</time>
      </trkpt>
      <trkpt lat="48.80045" lon="1.39955">
        <ele>137.13</ele>
        <time>2015-05-14T11:42:12Z</time>
      </trkpt>
      <trkpt lat="48.80037" lon="1.39945">
        <ele>137.13</ele>
        <time>2015-05-14T11:42:19Z</time>
      </trkpt>
      <trkpt lat="48.8003" lon="1.39936">
        <ele>137.13</ele>
        <time>2015-05-14T11:42:26Z</time>
      </trkpt>
      <trkpt lat="48.80019" lon="1.39924">
        <ele>137.13</ele>
        <time>2015-05-14T11:42:36Z</time>
      </trkpt>
      <trkpt lat="48.80007" lon="1.39906">
        <ele>137.13</ele>
        <time>2015-05-14T11:42:48Z</time>
      </trkpt>
      <trkpt lat="48.79997" lon="1.39892">
        <ele>137.13</ele>
        <time>2015-05-14T11:42:56Z</time>
      </trkpt>
      <trkpt lat="48.79987" lon="1.39876">
        <ele>137.13</ele>
        <time>2015-05-14T11:43:06Z</time>
      </trkpt>
      <trkpt lat="48.79978" lon="1.39864">
        <ele>137.13</ele>
        <time>2015-05-14T11:43:15Z</time>
      </trkpt>
      <trkpt lat="48.79971" lon="1.39854">
        <ele>137.13</ele>
        <time>2015-05-14T11:43:23Z</time>
      </trkpt>
      <trkpt lat="48.79962" lon="1.39843">
        <ele>137.13</ele>
        <time>2015-05-14T11:43:32Z</time>
      </trkpt>
      <trkpt lat="48.79952" lon="1.39832">
        <ele>137.13</ele>
        <time>2015-05-14T11:43:41Z</time>
      </trkpt>
      <trkpt lat="48.79943" lon="1.3982">
        <ele>137.13</ele>
        <time>2015-05-14T11:43:50Z</time>
      </trkpt>
      <trkpt lat="48.79933" lon="1.39806">
        <ele>137.13</ele>
        <time>2015-05-14T11:43:59Z</time>
      </trkpt>
      <trkpt lat="48.79923" lon="1.39791">
        <ele>137.13</ele>
        <time>2015-05-14T11:44:09Z</time>
      </trkpt>
      <trkpt lat="48.79914" lon="1.39778">
        <ele>137.13</ele>
        <time>2015-05-14T11:44:18Z</time>
      </trkpt>
      <trkpt lat="48.79905" lon="1.39764">
        <ele>137.13</ele>
        <time>2015-05-14T11:44:27Z</time>
      </trkpt>
      <trkpt lat="48.79896" lon="1.39751">
        <ele>137.61</ele>
        <time>2015-05-14T11:44:37Z</time>
      </trkpt>
      <trkpt lat="48.79886" lon="1.39741">
        <ele>137.13</ele>
        <time>2015-05-14T11:44:46Z</time>
      </trkpt>
      <trkpt lat="48.79877" lon="1.3973">
        <ele>137.61</ele>
        <time>2015-05-14T11:44:55Z</time>
      </trkpt>
      <trkpt lat="48.79868" lon="1.39714">
        <ele>137.61</ele>
        <time>2015-05-14T11:45:05Z</time>
      </trkpt>
      <trkpt lat="48.79863" lon="1.39706">
        <ele>137.61</ele>
        <time>2015-05-14T11:45:13Z</time>
      </trkpt>
      <trkpt lat="48.79861" lon="1.39702">
        <ele>137.61</ele>
        <time>2015-05-14T11:45:21Z</time>
      </trkpt>
      <trkpt lat="48.7986" lon="1.397">
        <ele>137.61</ele>
        <time>2015-05-14T11:45:41Z</time>
      </trkpt>
      <trkpt lat="48.79857" lon="1.39704">
        <ele>137.61</ele>
        <time>2015-05-14T11:45:58Z</time>
      </trkpt>
      <trkpt lat="48.79846" lon="1.3969">
        <ele>137.61</ele>
        <time>2015-05-14T11:46:10Z</time>
      </trkpt>
      <trkpt lat="48.79844" lon="1.39687">
        <ele>137.61</ele>
        <time>2015-05-14T11:46:12Z</time>
      </trkpt>
      <trkpt lat="48.79842" lon="1.39676">
        <ele>137.61</ele>
        <time>2015-05-14T11:46:18Z</time>
      </trkpt>
      <trkpt lat="48.79852" lon="1.39662">
        <ele>138.09</ele>
        <time>2015-05-14T11:46:29Z</time>
      </trkpt>
      <trkpt lat="48.7986" lon="1.3965">
        <ele>138.09</ele>
        <time>2015-05-14T11:46:37Z</time>
      </trkpt>
      <trkpt lat="48.79869" lon="1.39636">
        <ele>138.09</ele>
        <time>2015-05-14T11:46:46Z</time>
      </trkpt>
      <trkpt lat="48.79878" lon="1.39623">
        <ele>138.57</ele>
        <time>2015-05-14T11:46:56Z</time>
      </trkpt>
      <trkpt lat="48.79879" lon="1.39622">
        <ele>138.57</ele>
        <time>2015-05-14T11:46:57Z</time>
      </trkpt>
      <trkpt lat="48.79882" lon="1.39619">
        <ele>138.57</ele>
        <time>2015-05-14T11:47:00Z</time>
      </trkpt>
      <trkpt lat="48.79889" lon="1.3961">
        <ele>138.57</ele>
        <time>2015-05-14T11:47:07Z</time>
      </trkpt>
      <trkpt lat="48.79895" lon="1.39604">
        <ele>138.57</ele>
        <time>2015-05-14T11:47:13Z</time>
      </trkpt>
      <trkpt lat="48.79907" lon="1.39588">
        <ele>138.57</ele>
        <time>2015-05-14T11:47:25Z</time>
      </trkpt>
      <trkpt lat="48.79917" lon="1.39572">
        <ele>139.05</ele>
        <time>2015-05-14T11:47:35Z</time>
      </trkpt>
      <trkpt lat="48.79927" lon="1.39556">
        <ele>139.05</ele>
        <time>2015-05-14T11:47:45Z</time>
      </trkpt>
      <trkpt lat="48.7994" lon="1.39541">
        <ele>139.05</ele>
        <time>2015-05-14T11:47:55Z</time>
      </trkpt>
      <trkpt lat="48.79951" lon="1.39524">
        <ele>139.53</ele>
        <time>2015-05-14T11:48:07Z</time>
      </trkpt>
      <trkpt lat="48.79962" lon="1.39504">
        <ele>140.01</ele>
        <time>2015-05-14T11:48:18Z</time>
      </trkpt>
      <trkpt lat="48.79966" lon="1.39491">
        <ele>140.01</ele>
        <time>2015-05-14T11:48:25Z</time>
      </trkpt>
      <trkpt lat="48.79971" lon="1.39484">
        <ele>140.01</ele>
        <time>2015-05-14T11:48:32Z</time>
      </trkpt>
      <trkpt lat="48.79978" lon="1.39472">
        <ele>140.01</ele>
        <time>2015-05-14T11:48:40Z</time>
      </trkpt>
      <trkpt lat="48.79989" lon="1.3946">
        <ele>140.01</ele>
        <time>2015-05-14T11:48:51Z</time>
      </trkpt>
      <trkpt lat="48.8" lon="1.39442">
        <ele>140.01</ele>
        <time>2015-05-14T11:49:00Z</time>
      </trkpt>
      <trkpt lat="48.80012" lon="1.39428">
        <ele>140.49</ele>
        <time>2015-05-14T11:49:10Z</time>
      </trkpt>
      <trkpt lat="48.80023" lon="1.39412">
        <ele>140.49</ele>
        <time>2015-05-14T11:49:21Z</time>
      </trkpt>
      <trkpt lat="48.80033" lon="1.394">
        <ele>139.53</ele>
        <time>2015-05-14T11:49:31Z</time>
      </trkpt>
      <trkpt lat="48.80042" lon="1.39386">
        <ele>139.53</ele>
        <time>2015-05-14T11:49:41Z</time>
      </trkpt>
      <trkpt lat="48.80051" lon="1.39374">
        <ele>139.53</ele>
        <time>2015-05-14T11:49:50Z</time>
      </trkpt>
      <trkpt lat="48.80054" lon="1.3937">
        <ele>139.53</ele>
        <time>2015-05-14T11:49:54Z</time>
      </trkpt>
      <trkpt lat="48.80063" lon="1.39351">
        <ele>139.53</ele>
        <time>2015-05-14T11:50:04Z</time>
      </trkpt>
      <trkpt lat="48.80075" lon="1.39331">
        <ele>140.97</ele>
        <time>2015-05-14T11:50:16Z</time>
      </trkpt>
      <trkpt lat="48.80086" lon="1.39317">
        <ele>140.97</ele>
        <time>2015-05-14T11:50:26Z</time>
      </trkpt>
      <trkpt lat="48.80096" lon="1.39306">
        <ele>141.45</ele>
        <time>2015-05-14T11:50:36Z</time>
      </trkpt>
      <trkpt lat="48.80106" lon="1.39292">
        <ele>141.45</ele>
        <time>2015-05-14T11:50:46Z</time>
      </trkpt>
      <trkpt lat="48.80117" lon="1.39275">
        <ele>141.45</ele>
        <time>2015-05-14T11:50:57Z</time>
      </trkpt>
      <trkpt lat="48.80125" lon="1.39261">
        <ele>141.45</ele>
        <time>2015-05-14T11:51:06Z</time>
      </trkpt>
      <trkpt lat="48.80135" lon="1.39243">
        <ele>141.93</ele>
        <time>2015-05-14T11:51:14Z</time>
      </trkpt>
      <trkpt lat="48.80144" lon="1.3923">
        <ele>141.93</ele>
        <time>2015-05-14T11:51:22Z</time>
      </trkpt>
      <trkpt lat="48.80149" lon="1.39222">
        <ele>140.49</ele>
        <time>2015-05-14T11:51:27Z</time>
      </trkpt>
      <trkpt lat="48.80158" lon="1.39208">
        <ele>140.49</ele>
        <time>2015-05-14T11:51:36Z</time>
      </trkpt>
      <trkpt lat="48.80169" lon="1.39192">
        <ele>140.49</ele>
        <time>2015-05-14T11:51:46Z</time>
      </trkpt>
      <trkpt lat="48.80179" lon="1.39178">
        <ele>140.97</ele>
        <time>2015-05-14T11:51:57Z</time>
      </trkpt>
      <trkpt lat="48.80189" lon="1.39163">
        <ele>140.97</ele>
        <time>2015-05-14T11:52:07Z</time>
      </trkpt>
      <trkpt lat="48.80196" lon="1.3915">
        <ele>140.97</ele>
        <time>2015-05-14T11:52:14Z</time>
      </trkpt>
      <trkpt lat="48.80209" lon="1.39136">
        <ele>140.97</ele>
        <time>2015-05-14T11:52:19Z</time>
      </trkpt>
      <trkpt lat="48.80224" lon="1.39116">
        <ele>140.97</ele>
        <time>2015-05-14T11:52:31Z</time>
      </trkpt>
      <trkpt lat="48.80237" lon="1.39099">
        <ele>140.97</ele>
        <time>2015-05-14T11:52:43Z</time>
      </trkpt>
      <trkpt lat="48.80245" lon="1.39084">
        <ele>140.97</ele>
        <time>2015-05-14T11:52:53Z</time>
      </trkpt>
      <trkpt lat="48.80254" lon="1.39068">
        <ele>140.97</ele>
        <time>2015-05-14T11:53:04Z</time>
      </trkpt>
      <trkpt lat="48.80263" lon="1.39056">
        <ele>140.49</ele>
        <time>2015-05-14T11:53:14Z</time>
      </trkpt>
      <trkpt lat="48.80272" lon="1.39039">
        <ele>140.49</ele>
        <time>2015-05-14T11:53:25Z</time>
      </trkpt>
      <trkpt lat="48.80284" lon="1.39021">
        <ele>140.01</ele>
        <time>2015-05-14T11:53:37Z</time>
      </trkpt>
      <trkpt lat="48.80294" lon="1.39004">
        <ele>140.01</ele>
        <time>2015-05-14T11:53:48Z</time>
      </trkpt>
      <trkpt lat="48.80302" lon="1.38989">
        <ele>140.01</ele>
        <time>2015-05-14T11:53:58Z</time>
      </trkpt>
      <trkpt lat="48.80313" lon="1.38973">
        <ele>140.97</ele>
        <time>2015-05-14T11:54:10Z</time>
      </trkpt>
      <trkpt lat="48.80323" lon="1.3896">
        <ele>140.97</ele>
        <time>2015-05-14T11:54:21Z</time>
      </trkpt>
      <trkpt lat="48.80332" lon="1.38948">
        <ele>140.97</ele>
        <time>2015-05-14T11:54:31Z</time>
      </trkpt>
      <trkpt lat="48.80338" lon="1.3894">
        <ele>140.97</ele>
        <time>2015-05-14T11:54:41Z</time>
      </trkpt>
      <trkpt lat="48.8034" lon="1.38932">
        <ele>140.97</ele>
        <time>2015-05-14T11:54:58Z</time>
      </trkpt>
      <trkpt lat="48.80348" lon="1.38921">
        <ele>141.45</ele>
        <time>2015-05-14T11:55:21Z</time>
      </trkpt>
      <trkpt lat="48.80351" lon="1.38918">
        <ele>141.93</ele>
        <time>2015-05-14T11:55:39Z</time>
      </trkpt>
      <trkpt lat="48.80355" lon="1.38915">
        <ele>141.93</ele>
        <time>2015-05-14T11:55:48Z</time>
      </trkpt>
      <trkpt lat="48.80363" lon="1.38904">
        <ele>141.93</ele>
        <time>2015-05-14T11:55:58Z</time>
      </trkpt>
      <trkpt lat="48.80375" lon="1.38886">
        <ele>142.41</ele>
        <time>2015-05-14T11:56:10Z</time>
      </trkpt>
      <trkpt lat="48.80378" lon="1.38869">
        <ele>141.93</ele>
        <time>2015-05-14T11:56:17Z</time>
      </trkpt>
      <trkpt lat="48.80381" lon="1.38866">
        <ele>140.97</ele>
        <time>2015-05-14T11:56:19Z</time>
      </trkpt>
      <trkpt lat="48.80392" lon="1.3885">
        <ele>140.97</ele>
        <time>2015-05-14T11:56:30Z</time>
      </trkpt>
      <trkpt lat="48.80403" lon="1.38835">
        <ele>142.41</ele>
        <time>2015-05-14T11:56:39Z</time>
      </trkpt>
      <trkpt lat="48.80412" lon="1.38824">
        <ele>142.41</ele>
        <time>2015-05-14T11:56:48Z</time>
      </trkpt>
      <trkpt lat="48.80423" lon="1.38807">
        <ele>142.41</ele>
        <time>2015-05-14T11:56:56Z</time>
      </trkpt>
      <trkpt lat="48.80425" lon="1.38803">
        <ele>142.41</ele>
        <time>2015-05-14T11:56:59Z</time>
      </trkpt>
      <trkpt lat="48.80431" lon="1.38793">
        <ele>142.41</ele>
        <time>2015-05-14T11:57:07Z</time>
      </trkpt>
      <trkpt lat="48.80443" lon="1.38777">
        <ele>142.41</ele>
        <time>2015-05-14T11:57:20Z</time>
      </trkpt>
      <trkpt lat="48.80453" lon="1.38764">
        <ele>142.41</ele>
        <time>2015-05-14T11:57:32Z</time>
      </trkpt>
      <trkpt lat="48.80464" lon="1.38751">
        <ele>142.41</ele>
        <time>2015-05-14T11:57:42Z</time>
      </trkpt>
      <trkpt lat="48.80472" lon="1.38738">
        <ele>142.41</ele>
        <time>2015-05-14T11:57:52Z</time>
      </trkpt>
      <trkpt lat="48.80482" lon="1.38722">
        <ele>142.41</ele>
        <time>2015-05-14T11:58:04Z</time>
      </trkpt>
      <trkpt lat="48.80491" lon="1.38708">
        <ele>142.41</ele>
        <time>2015-05-14T11:58:13Z</time>
      </trkpt>
      <trkpt lat="48.805" lon="1.38694">
        <ele>142.41</ele>
        <time>2015-05-14T11:58:23Z</time>
      </trkpt>
      <trkpt lat="48.80509" lon="1.38679">
        <ele>142.41</ele>
        <time>2015-05-14T11:58:32Z</time>
      </trkpt>
      <trkpt lat="48.80522" lon="1.38659">
        <ele>142.41</ele>
        <time>2015-05-14T11:58:42Z</time>
      </trkpt>
      <trkpt lat="48.8053" lon="1.38646">
        <ele>142.41</ele>
        <time>2015-05-14T11:58:53Z</time>
      </trkpt>
      <trkpt lat="48.80538" lon="1.38636">
        <ele>142.89</ele>
        <time>2015-05-14T11:59:12Z</time>
      </trkpt>
      <trkpt lat="48.80541" lon="1.38628">
        <ele>142.89</ele>
        <time>2015-05-14T11:59:21Z</time>
      </trkpt>
      <trkpt lat="48.80551" lon="1.38614">
        <ele>142.89</ele>
        <time>2015-05-14T11:59:32Z</time>
      </trkpt>
      <trkpt lat="48.80561" lon="1.38598">
        <ele>142.89</ele>
        <time>2015-05-14T11:59:42Z</time>
      </trkpt>
      <trkpt lat="48.80563" lon="1.38595">
        <ele>142.89</ele>
        <time>2015-05-14T11:59:45Z</time>
      </trkpt>
      <trkpt lat="48.80575" lon="1.38577">
        <ele>142.89</ele>
        <time>2015-05-14T11:59:58Z</time>
      </trkpt>
      <trkpt lat="48.80583" lon="1.38566">
        <ele>142.41</ele>
        <time>2015-05-14T12:00:07Z</time>
      </trkpt>
      <trkpt lat="48.80591" lon="1.38551">
        <ele>141.93</ele>
        <time>2015-05-14T12:00:16Z</time>
      </trkpt>
      <trkpt lat="48.80601" lon="1.38538">
        <ele>142.41</ele>
        <time>2015-05-14T12:00:27Z</time>
      </trkpt>
      <trkpt lat="48.80613" lon="1.38521">
        <ele>142.41</ele>
        <time>2015-05-14T12:00:38Z</time>
      </trkpt>
      <trkpt lat="48.80621" lon="1.38511">
        <ele>141.93</ele>
        <time>2015-05-14T12:00:44Z</time>
      </trkpt>
      <trkpt lat="48.80631" lon="1.38493">
        <ele>141.45</ele>
        <time>2015-05-14T12:00:54Z</time>
      </trkpt>
      <trkpt lat="48.80639" lon="1.38476">
        <ele>141.45</ele>
        <time>2015-05-14T12:01:05Z</time>
      </trkpt>
      <trkpt lat="48.80648" lon="1.38463">
        <ele>141.93</ele>
        <time>2015-05-14T12:01:15Z</time>
      </trkpt>
      <trkpt lat="48.80657" lon="1.38447">
        <ele>141.93</ele>
        <time>2015-05-14T12:01:25Z</time>
      </trkpt>
      <trkpt lat="48.80663" lon="1.38432">
        <ele>141.93</ele>
        <time>2015-05-14T12:01:34Z</time>
      </trkpt>
      <trkpt lat="48.80678" lon="1.38415">
        <ele>140.49</ele>
        <time>2015-05-14T12:01:44Z</time>
      </trkpt>
      <trkpt lat="48.8069" lon="1.38399">
        <ele>141.45</ele>
        <time>2015-05-14T12:01:54Z</time>
      </trkpt>
      <trkpt lat="48.80702" lon="1.38382">
        <ele>141.45</ele>
        <time>2015-05-14T12:02:04Z</time>
      </trkpt>
      <trkpt lat="48.8071" lon="1.38371">
        <ele>139.53</ele>
        <time>2015-05-14T12:02:10Z</time>
      </trkpt>
      <trkpt lat="48.8072" lon="1.38355">
        <ele>139.53</ele>
        <time>2015-05-14T12:02:20Z</time>
      </trkpt>
      <trkpt lat="48.80733" lon="1.38335">
        <ele>138.57</ele>
        <time>2015-05-14T12:02:31Z</time>
      </trkpt>
      <trkpt lat="48.80749" lon="1.38317">
        <ele>138.09</ele>
        <time>2015-05-14T12:02:41Z</time>
      </trkpt>
      <trkpt lat="48.80764" lon="1.38299">
        <ele>137.13</ele>
        <time>2015-05-14T12:02:52Z</time>
      </trkpt>
      <trkpt lat="48.80775" lon="1.38281">
        <ele>136.16</ele>
        <time>2015-05-14T12:03:04Z</time>
      </trkpt>
      <trkpt lat="48.80784" lon="1.38263">
        <ele>135.2</ele>
        <time>2015-05-14T12:03:15Z</time>
      </trkpt>
      <trkpt lat="48.80794" lon="1.38247">
        <ele>134.72</ele>
        <time>2015-05-14T12:03:25Z</time>
      </trkpt>
      <trkpt lat="48.80802" lon="1.38227">
        <ele>134.72</ele>
        <time>2015-05-14T12:03:35Z</time>
      </trkpt>
      <trkpt lat="48.8081" lon="1.38209">
        <ele>134.24</ele>
        <time>2015-05-14T12:03:45Z</time>
      </trkpt>
      <trkpt lat="48.8082" lon="1.38191">
        <ele>133.76</ele>
        <time>2015-05-14T12:03:56Z</time>
      </trkpt>
      <trkpt lat="48.80832" lon="1.38174">
        <ele>133.76</ele>
        <time>2015-05-14T12:04:07Z</time>
      </trkpt>
      <trkpt lat="48.80833" lon="1.38172">
        <ele>133.28</ele>
        <time>2015-05-14T12:04:08Z</time>
      </trkpt>
      <trkpt lat="48.80839" lon="1.38166">
        <ele>133.28</ele>
        <time>2015-05-14T12:04:13Z</time>
      </trkpt>
      <trkpt lat="48.80855" lon="1.38138">
        <ele>132.8</ele>
        <time>2015-05-14T12:04:30Z</time>
      </trkpt>
      <trkpt lat="48.80867" lon="1.38121">
        <ele>131.84</ele>
        <time>2015-05-14T12:04:42Z</time>
      </trkpt>
      <trkpt lat="48.80878" lon="1.38104">
        <ele>131.84</ele>
        <time>2015-05-14T12:04:53Z</time>
      </trkpt>
      <trkpt lat="48.80893" lon="1.38083">
        <ele>130.88</ele>
        <time>2015-05-14T12:05:07Z</time>
      </trkpt>
      <trkpt lat="48.80906" lon="1.38064">
        <ele>129.92</ele>
        <time>2015-05-14T12:05:19Z</time>
      </trkpt>
      <trkpt lat="48.80914" lon="1.3805">
        <ele>129.92</ele>
        <time>2015-05-14T12:05:28Z</time>
      </trkpt>
      <trkpt lat="48.80925" lon="1.38036">
        <ele>128.95</ele>
        <time>2015-05-14T12:05:39Z</time>
      </trkpt>
      <trkpt lat="48.80934" lon="1.38024">
        <ele>128.47</ele>
        <time>2015-05-14T12:05:50Z</time>
      </trkpt>
      <trkpt lat="48.80947" lon="1.38006">
        <ele>127.03</ele>
        <time>2015-05-14T12:06:02Z</time>
      </trkpt>
      <trkpt lat="48.80957" lon="1.37992">
        <ele>125.59</ele>
        <time>2015-05-14T12:06:11Z</time>
      </trkpt>
      <trkpt lat="48.80964" lon="1.37976">
        <ele>124.15</ele>
        <time>2015-05-14T12:06:20Z</time>
      </trkpt>
      <trkpt lat="48.80972" lon="1.37964">
        <ele>124.15</ele>
        <time>2015-05-14T12:06:30Z</time>
      </trkpt>
      <trkpt lat="48.80984" lon="1.3795">
        <ele>123.67</ele>
        <time>2015-05-14T12:06:40Z</time>
      </trkpt>
      <trkpt lat="48.80993" lon="1.37938">
        <ele>123.67</ele>
        <time>2015-05-14T12:06:48Z</time>
      </trkpt>
      <trkpt lat="48.81008" lon="1.37919">
        <ele>125.11</ele>
        <time>2015-05-14T12:06:58Z</time>
      </trkpt>
      <trkpt lat="48.81022" lon="1.37903">
        <ele>125.11</ele>
        <time>2015-05-14T12:07:09Z</time>
      </trkpt>
      <trkpt lat="48.81026" lon="1.37896">
        <ele>123.67</ele>
        <time>2015-05-14T12:07:15Z</time>
      </trkpt>
      <trkpt lat="48.81036" lon="1.3788">
        <ele>123.67</ele>
        <time>2015-05-14T12:07:25Z</time>
      </trkpt>
      <trkpt lat="48.81043" lon="1.37867">
        <ele>122.71</ele>
        <time>2015-05-14T12:07:33Z</time>
      </trkpt>
      <trkpt lat="48.8105" lon="1.37854">
        <ele>122.71</ele>
        <time>2015-05-14T12:07:42Z</time>
      </trkpt>
      <trkpt lat="48.81056" lon="1.37839">
        <ele>122.71</ele>
        <time>2015-05-14T12:07:52Z</time>
      </trkpt>
      <trkpt lat="48.81057" lon="1.37835">
        <ele>122.71</ele>
        <time>2015-05-14T12:07:54Z</time>
      </trkpt>
      <trkpt lat="48.81063" lon="1.37821">
        <ele>124.15</ele>
        <time>2015-05-14T12:08:01Z</time>
      </trkpt>
      <trkpt lat="48.81069" lon="1.37812">
        <ele>123.19</ele>
        <time>2015-05-14T12:08:06Z</time>
      </trkpt>
      <trkpt lat="48.81073" lon="1.37806">
        <ele>124.63</ele>
        <time>2015-05-14T12:08:10Z</time>
      </trkpt>
      <trkpt lat="48.81087" lon="1.37786">
        <ele>121.74</ele>
        <time>2015-05-14T12:08:22Z</time>
      </trkpt>
      <trkpt lat="48.81095" lon="1.37773">
        <ele>122.22</ele>
        <time>2015-05-14T12:08:29Z</time>
      </trkpt>
      <trkpt lat="48.81109" lon="1.37752">
        <ele>124.15</ele>
        <time>2015-05-14T12:08:41Z</time>
      </trkpt>
      <trkpt lat="48.81111" lon="1.37749">
        <ele>122.71</ele>
        <time>2015-05-14T12:08:43Z</time>
      </trkpt>
      <trkpt lat="48.81124" lon="1.37728">
        <ele>124.63</ele>
        <time>2015-05-14T12:08:56Z</time>
      </trkpt>
      <trkpt lat="48.81129" lon="1.37722">
        <ele>122.71</ele>
        <time>2015-05-14T12:09:00Z</time>
      </trkpt>
      <trkpt lat="48.81136" lon="1.37712">
        <ele>123.19</ele>
        <time>2015-05-14T12:09:06Z</time>
      </trkpt>
      <trkpt lat="48.81142" lon="1.37701">
        <ele>121.26</ele>
        <time>2015-05-14T12:09:14Z</time>
      </trkpt>
      <trkpt lat="48.81147" lon="1.37696">
        <ele>122.71</ele>
        <time>2015-05-14T12:09:19Z</time>
      </trkpt>
      <trkpt lat="48.81155" lon="1.37688">
        <ele>122.71</ele>
        <time>2015-05-14T12:09:26Z</time>
      </trkpt>
      <trkpt lat="48.81156" lon="1.37691">
        <ele>121.74</ele>
        <time>2015-05-14T12:09:34Z</time>
      </trkpt>
      <trkpt lat="48.81156" lon="1.37692">
        <ele>123.19</ele>
        <time>2015-05-14T12:09:36Z</time>
      </trkpt>
      <trkpt lat="48.81157" lon="1.37692">
        <ele>122.22</ele>
        <time>2015-05-14T12:09:42Z</time>
      </trkpt>
      <trkpt lat="48.81154" lon="1.37693">
        <ele>122.71</ele>
        <time>2015-05-14T12:09:51Z</time>
      </trkpt>
      <trkpt lat="48.81154" lon="1.37696">
        <ele>122.22</ele>
        <time>2015-05-14T12:10:05Z</time>
      </trkpt>
      <trkpt lat="48.81154" lon="1.37696">
        <ele>122.22</ele>
        <time>2015-05-14T12:10:06Z</time>
      </trkpt>
      <trkpt lat="48.81153" lon="1.37697">
        <ele>123.19</ele>
        <time>2015-05-14T12:10:15Z</time>
      </trkpt>
      <trkpt lat="48.81155" lon="1.37697">
        <ele>121.26</ele>
        <time>2015-05-14T12:10:25Z</time>
      </trkpt>
      <trkpt lat="48.81156" lon="1.37697">
        <ele>123.19</ele>
        <time>2015-05-14T12:10:34Z</time>
      </trkpt>
      <trkpt lat="48.81156" lon="1.37697">
        <ele>123.19</ele>
        <time>2015-05-14T12:10:47Z</time>
      </trkpt>
      <trkpt lat="48.81156" lon="1.37693">
        <ele>122.22</ele>
        <time>2015-05-14T12:10:55Z</time>
      </trkpt>
      <trkpt lat="48.81163" lon="1.3769">
        <ele>121.74</ele>
        <time>2015-05-14T12:11:03Z</time>
      </trkpt>
      <trkpt lat="48.8117" lon="1.37679">
        <ele>123.19</ele>
        <time>2015-05-14T12:11:10Z</time>
      </trkpt>
      <trkpt lat="48.81177" lon="1.37677">
        <ele>123.19</ele>
        <time>2015-05-14T12:11:16Z</time>
      </trkpt>
      <trkpt lat="48.81183" lon="1.37682">
        <ele>124.15</ele>
        <time>2015-05-14T12:11:22Z</time>
      </trkpt>
      <trkpt lat="48.81185" lon="1.37686">
        <ele>122.71</ele>
        <time>2015-05-14T12:11:25Z</time>
      </trkpt>
      <trkpt lat="48.81187" lon="1.37689">
        <ele>122.71</ele>
        <time>2015-05-14T12:11:28Z</time>
      </trkpt>
      <trkpt lat="48.8119" lon="1.37691">
        <ele>122.71</ele>
        <time>2015-05-14T12:11:31Z</time>
      </trkpt>
      <trkpt lat="48.81197" lon="1.377">
        <ele>122.71</ele>
        <time>2015-05-14T12:11:37Z</time>
      </trkpt>
      <trkpt lat="48.81202" lon="1.37708">
        <ele>122.71</ele>
        <time>2015-05-14T12:11:42Z</time>
      </trkpt>
      <trkpt lat="48.81208" lon="1.37718">
        <ele>122.71</ele>
        <time>2015-05-14T12:11:48Z</time>
      </trkpt>
      <trkpt lat="48.81215" lon="1.37732">
        <ele>124.15</ele>
        <time>2015-05-14T12:11:57Z</time>
      </trkpt>
      <trkpt lat="48.8122" lon="1.37745">
        <ele>124.63</ele>
        <time>2015-05-14T12:12:05Z</time>
      </trkpt>
      <trkpt lat="48.81229" lon="1.37763">
        <ele>124.63</ele>
        <time>2015-05-14T12:12:13Z</time>
      </trkpt>
      <trkpt lat="48.8124" lon="1.3778">
        <ele>124.63</ele>
        <time>2015-05-14T12:12:23Z</time>
      </trkpt>
      <trkpt lat="48.81248" lon="1.37792">
        <ele>123.19</ele>
        <time>2015-05-14T12:12:31Z</time>
      </trkpt>
      <trkpt lat="48.81253" lon="1.37801">
        <ele>124.15</ele>
        <time>2015-05-14T12:12:36Z</time>
      </trkpt>
      <trkpt lat="48.8126" lon="1.3781">
        <ele>125.11</ele>
        <time>2015-05-14T12:12:43Z</time>
      </trkpt>
      <trkpt lat="48.81269" lon="1.37825">
        <ele>125.59</ele>
        <time>2015-05-14T12:12:53Z</time>
      </trkpt>
      <trkpt lat="48.8127" lon="1.37826">
        <ele>125.59</ele>
        <time>2015-05-14T12:12:54Z</time>
      </trkpt>
      <trkpt lat="48.81277" lon="1.37842">
        <ele>125.59</ele>
        <time>2015-05-14T12:13:04Z</time>
      </trkpt>
      <trkpt lat="48.81285" lon="1.37858">
        <ele>125.59</ele>
        <time>2015-05-14T12:13:13Z</time>
      </trkpt>
      <trkpt lat="48.8129" lon="1.3787">
        <ele>125.11</ele>
        <time>2015-05-14T12:13:20Z</time>
      </trkpt>
      <trkpt lat="48.81298" lon="1.37888">
        <ele>124.15</ele>
        <time>2015-05-14T12:13:31Z</time>
      </trkpt>
      <trkpt lat="48.81299" lon="1.37888">
        <ele>124.15</ele>
        <time>2015-05-14T12:13:32Z</time>
      </trkpt>
      <trkpt lat="48.813" lon="1.37892">
        <ele>124.15</ele>
        <time>2015-05-14T12:13:34Z</time>
      </trkpt>
      <trkpt lat="48.81309" lon="1.37908">
        <ele>124.15</ele>
        <time>2015-05-14T12:13:44Z</time>
      </trkpt>
      <trkpt lat="48.81319" lon="1.37923">
        <ele>124.15</ele>
        <time>2015-05-14T12:13:53Z</time>
      </trkpt>
      <trkpt lat="48.81327" lon="1.37942">
        <ele>124.15</ele>
        <time>2015-05-14T12:14:03Z</time>
      </trkpt>
      <trkpt lat="48.81335" lon="1.37953">
        <ele>123.67</ele>
        <time>2015-05-14T12:14:12Z</time>
      </trkpt>
      <trkpt lat="48.81343" lon="1.37965">
        <ele>125.11</ele>
        <time>2015-05-14T12:14:19Z</time>
      </trkpt>
      <trkpt lat="48.81356" lon="1.37982">
        <ele>125.11</ele>
        <time>2015-05-14T12:14:29Z</time>
      </trkpt>
      <trkpt lat="48.81364" lon="1.37995">
        <ele>125.11</ele>
        <time>2015-05-14T12:14:37Z</time>
      </trkpt>
      <trkpt lat="48.81366" lon="1.38003">
        <ele>125.11</ele>
        <time>2015-05-14T12:14:42Z</time>
      </trkpt>
      <trkpt lat="48.81371" lon="1.38013">
        <ele>125.59</ele>
        <time>2015-05-14T12:14:48Z</time>
      </trkpt>
      <trkpt lat="48.81378" lon="1.38025">
        <ele>125.59</ele>
        <time>2015-05-14T12:14:56Z</time>
      </trkpt>
      <trkpt lat="48.81386" lon="1.38042">
        <ele>125.59</ele>
        <time>2015-05-14T12:15:05Z</time>
      </trkpt>
      <trkpt lat="48.81388" lon="1.38045">
        <ele>124.15</ele>
        <time>2015-05-14T12:15:07Z</time>
      </trkpt>
      <trkpt lat="48.81394" lon="1.38061">
        <ele>124.15</ele>
        <time>2015-05-14T12:15:15Z</time>
      </trkpt>
      <trkpt lat="48.81404" lon="1.38079">
        <ele>124.15</ele>
        <time>2015-05-14T12:15:26Z</time>
      </trkpt>
      <trkpt lat="48.81406" lon="1.38081">
        <ele>124.15</ele>
        <time>2015-05-14T12:15:28Z</time>
      </trkpt>
      <trkpt lat="48.81414" lon="1.38093">
        <ele>124.15</ele>
        <time>2015-05-14T12:15:36Z</time>
      </trkpt>
      <trkpt lat="48.81423" lon="1.38107">
        <ele>124.15</ele>
        <time>2015-05-14T12:15:46Z</time>
      </trkpt>
      <trkpt lat="48.8143" lon="1.38116">
        <ele>125.59</ele>
        <time>2015-05-14T12:15:55Z</time>
      </trkpt>
      <trkpt lat="48.81431" lon="1.38118">
        <ele>125.59</ele>
        <time>2015-05-14T12:15:56Z</time>
      </trkpt>
      <trkpt lat="48.81432" lon="1.38122">
        <ele>125.59</ele>
        <time>2015-05-14T12:15:58Z</time>
      </trkpt>
      <trkpt lat="48.81436" lon="1.3813">
        <ele>125.59</ele>
        <time>2015-05-14T12:16:03Z</time>
      </trkpt>
      <trkpt lat="48.81442" lon="1.38141">
        <ele>124.15</ele>
        <time>2015-05-14T12:16:09Z</time>
      </trkpt>
      <trkpt lat="48.81449" lon="1.38158">
        <ele>124.15</ele>
        <time>2015-05-14T12:16:18Z</time>
      </trkpt>
      <trkpt lat="48.8145" lon="1.3816">
        <ele>124.15</ele>
        <time>2015-05-14T12:16:19Z</time>
      </trkpt>
      <trkpt lat="48.81449" lon="1.38183">
        <ele>124.15</ele>
        <time>2015-05-14T12:16:28Z</time>
      </trkpt>
      <trkpt lat="48.81445" lon="1.382">
        <ele>124.15</ele>
        <time>2015-05-14T12:16:36Z</time>
      </trkpt>
      <trkpt lat="48.81441" lon="1.38224">
        <ele>124.15</ele>
        <time>2015-05-14T12:16:47Z</time>
      </trkpt>
      <trkpt lat="48.81448" lon="1.38233">
        <ele>125.11</ele>
        <time>2015-05-14T12:16:53Z</time>
      </trkpt>
      <trkpt lat="48.8146" lon="1.38244">
        <ele>125.11</ele>
        <time>2015-05-14T12:17:02Z</time>
      </trkpt>
      <trkpt lat="48.81473" lon="1.38257">
        <ele>125.11</ele>
        <time>2015-05-14T12:17:12Z</time>
      </trkpt>
      <trkpt lat="48.81485" lon="1.38267">
        <ele>125.59</ele>
        <time>2015-05-14T12:17:21Z</time>
      </trkpt>
      <trkpt lat="48.81504" lon="1.38277">
        <ele>125.59</ele>
        <time>2015-05-14T12:17:33Z</time>
      </trkpt>
      <trkpt lat="48.81511" lon="1.38279">
        <ele>126.07</ele>
        <time>2015-05-14T12:17:39Z</time>
      </trkpt>
      <trkpt lat="48.8153" lon="1.38284">
        <ele>126.07</ele>
        <time>2015-05-14T12:17:50Z</time>
      </trkpt>
      <trkpt lat="48.81546" lon="1.38286">
        <ele>126.07</ele>
        <time>2015-05-14T12:18:01Z</time>
      </trkpt>
      <trkpt lat="48.81562" lon="1.38284">
        <ele>126.07</ele>
        <time>2015-05-14T12:18:11Z</time>
      </trkpt>
      <trkpt lat="48.81576" lon="1.38279">
        <ele>126.07</ele>
        <time>2015-05-14T12:18:21Z</time>
      </trkpt>
      <trkpt lat="48.81589" lon="1.38276">
        <ele>126.07</ele>
        <time>2015-05-14T12:18:31Z</time>
      </trkpt>
      <trkpt lat="48.81603" lon="1.3827">
        <ele>127.03</ele>
        <time>2015-05-14T12:18:40Z</time>
      </trkpt>
      <trkpt lat="48.81615" lon="1.38264">
        <ele>127.03</ele>
        <time>2015-05-14T12:18:48Z</time>
      </trkpt>
      <trkpt lat="48.81627" lon="1.38261">
        <ele>125.59</ele>
        <time>2015-05-14T12:18:58Z</time>
      </trkpt>
      <trkpt lat="48.81646" lon="1.38254">
        <ele>126.07</ele>
        <time>2015-05-14T12:19:11Z</time>
      </trkpt>
      <trkpt lat="48.81658" lon="1.38247">
        <ele>126.07</ele>
        <time>2015-05-14T12:19:21Z</time>
      </trkpt>
      <trkpt lat="48.81674" lon="1.38234">
        <ele>126.07</ele>
        <time>2015-05-14T12:19:33Z</time>
      </trkpt>
      <trkpt lat="48.8169" lon="1.38223">
        <ele>126.07</ele>
        <time>2015-05-14T12:19:44Z</time>
      </trkpt>
      <trkpt lat="48.81707" lon="1.3821">
        <ele>126.07</ele>
        <time>2015-05-14T12:19:57Z</time>
      </trkpt>
      <trkpt lat="48.81722" lon="1.38202">
        <ele>126.07</ele>
        <time>2015-05-14T12:20:08Z</time>
      </trkpt>
      <trkpt lat="48.81738" lon="1.38199">
        <ele>126.07</ele>
        <time>2015-05-14T12:20:20Z</time>
      </trkpt>
      <trkpt lat="48.81755" lon="1.38206">
        <ele>126.07</ele>
        <time>2015-05-14T12:20:31Z</time>
      </trkpt>
      <trkpt lat="48.81764" lon="1.38211">
        <ele>126.07</ele>
        <time>2015-05-14T12:20:38Z</time>
      </trkpt>
      <trkpt lat="48.81782" lon="1.38205">
        <ele>126.55</ele>
        <time>2015-05-14T12:20:50Z</time>
      </trkpt>
      <trkpt lat="48.81803" lon="1.38199">
        <ele>126.55</ele>
        <time>2015-05-14T12:21:04Z</time>
      </trkpt>
      <trkpt lat="48.81822" lon="1.38201">
        <ele>126.55</ele>
        <time>2015-05-14T12:21:17Z</time>
      </trkpt>
      <trkpt lat="48.8184" lon="1.38205">
        <ele>126.55</ele>
        <time>2015-05-14T12:21:29Z</time>
      </trkpt>
      <trkpt lat="48.81852" lon="1.38209">
        <ele>126.55</ele>
        <time>2015-05-14T12:21:37Z</time>
      </trkpt>
      <trkpt lat="48.81868" lon="1.38213">
        <ele>126.55</ele>
        <time>2015-05-14T12:21:48Z</time>
      </trkpt>
      <trkpt lat="48.81883" lon="1.38216">
        <ele>126.55</ele>
        <time>2015-05-14T12:21:58Z</time>
      </trkpt>
      <trkpt lat="48.81899" lon="1.3822">
        <ele>126.55</ele>
        <time>2015-05-14T12:22:08Z</time>
      </trkpt>
      <trkpt lat="48.81917" lon="1.38223">
        <ele>126.55</ele>
        <time>2015-05-14T12:22:20Z</time>
      </trkpt>
      <trkpt lat="48.81927" lon="1.38224">
        <ele>127.99</ele>
        <time>2015-05-14T12:22:27Z</time>
      </trkpt>
      <trkpt lat="48.81943" lon="1.38219">
        <ele>127.99</ele>
        <time>2015-05-14T12:22:38Z</time>
      </trkpt>
      <trkpt lat="48.81957" lon="1.38212">
        <ele>127.99</ele>
        <time>2015-05-14T12:22:48Z</time>
      </trkpt>
      <trkpt lat="48.81974" lon="1.38203">
        <ele>127.99</ele>
        <time>2015-05-14T12:23:00Z</time>
      </trkpt>
      <trkpt lat="48.81988" lon="1.38194">
        <ele>127.99</ele>
        <time>2015-05-14T12:23:10Z</time>
      </trkpt>
      <trkpt lat="48.81999" lon="1.3819">
        <ele>127.99</ele>
        <time>2015-05-14T12:23:18Z</time>
      </trkpt>
      <trkpt lat="48.82014" lon="1.38189">
        <ele>128.47</ele>
        <time>2015-05-14T12:23:29Z</time>
      </trkpt>
      <trkpt lat="48.82026" lon="1.38187">
        <ele>128.95</ele>
        <time>2015-05-14T12:23:39Z</time>
      </trkpt>
      <trkpt lat="48.82044" lon="1.38178">
        <ele>128.95</ele>
        <time>2015-05-14T12:23:51Z</time>
      </trkpt>
      <trkpt lat="48.82063" lon="1.3817">
        <ele>128.95</ele>
        <time>2015-05-14T12:24:04Z</time>
      </trkpt>
      <trkpt lat="48.82077" lon="1.38163">
        <ele>128.95</ele>
        <time>2015-05-14T12:24:14Z</time>
      </trkpt>
      <trkpt lat="48.82091" lon="1.38165">
        <ele>128.95</ele>
        <time>2015-05-14T12:24:24Z</time>
      </trkpt>
      <trkpt lat="48.82105" lon="1.38164">
        <ele>128.95</ele>
        <time>2015-05-14T12:24:33Z</time>
      </trkpt>
      <trkpt lat="48.82118" lon="1.3816">
        <ele>128.95</ele>
        <time>2015-05-14T12:24:43Z</time>
      </trkpt>
      <trkpt lat="48.82135" lon="1.38152">
        <ele>128.95</ele>
        <time>2015-05-14T12:24:55Z</time>
      </trkpt>
      <trkpt lat="48.82151" lon="1.38143">
        <ele>129.43</ele>
        <time>2015-05-14T12:25:06Z</time>
      </trkpt>
      <trkpt lat="48.82162" lon="1.3814">
        <ele>129.92</ele>
        <time>2015-05-14T12:25:14Z</time>
      </trkpt>
      <trkpt lat="48.82177" lon="1.3814">
        <ele>130.4</ele>
        <time>2015-05-14T12:25:24Z</time>
      </trkpt>
      <trkpt lat="48.82189" lon="1.38137">
        <ele>130.4</ele>
        <time>2015-05-14T12:25:33Z</time>
      </trkpt>
      <trkpt lat="48.82203" lon="1.38129">
        <ele>130.4</ele>
        <time>2015-05-14T12:25:42Z</time>
      </trkpt>
      <trkpt lat="48.82222" lon="1.3812">
        <ele>129.43</ele>
        <time>2015-05-14T12:25:55Z</time>
      </trkpt>
      <trkpt lat="48.82238" lon="1.38114">
        <ele>128.95</ele>
        <time>2015-05-14T12:26:06Z</time>
      </trkpt>
      <trkpt lat="48.8225" lon="1.38114">
        <ele>128.95</ele>
        <time>2015-05-14T12:26:15Z</time>
      </trkpt>
      <trkpt lat="48.82261" lon="1.38113">
        <ele>129.43</ele>
        <time>2015-05-14T12:26:24Z</time>
      </trkpt>
      <trkpt lat="48.82278" lon="1.38104">
        <ele>129.43</ele>
        <time>2015-05-14T12:26:36Z</time>
      </trkpt>
      <trkpt lat="48.82295" lon="1.381">
        <ele>129.43</ele>
        <time>2015-05-14T12:26:47Z</time>
      </trkpt>
      <trkpt lat="48.82312" lon="1.38095">
        <ele>129.43</ele>
        <time>2015-05-14T12:26:59Z</time>
      </trkpt>
      <trkpt lat="48.8232" lon="1.38094">
        <ele>130.88</ele>
        <time>2015-05-14T12:27:05Z</time>
      </trkpt>
      <trkpt lat="48.82337" lon="1.38087">
        <ele>131.36</ele>
        <time>2015-05-14T12:27:17Z</time>
      </trkpt>
      <trkpt lat="48.82354" lon="1.38078">
        <ele>131.36</ele>
        <time>2015-05-14T12:27:28Z</time>
      </trkpt>
      <trkpt lat="48.82374" lon="1.38066">
        <ele>131.84</ele>
        <time>2015-05-14T12:27:42Z</time>
      </trkpt>
      <trkpt lat="48.82389" lon="1.38063">
        <ele>131.84</ele>
        <time>2015-05-14T12:27:52Z</time>
      </trkpt>
      <trkpt lat="48.82401" lon="1.38064">
        <ele>132.32</ele>
        <time>2015-05-14T12:28:01Z</time>
      </trkpt>
      <trkpt lat="48.82417" lon="1.3806">
        <ele>132.32</ele>
        <time>2015-05-14T12:28:12Z</time>
      </trkpt>
      <trkpt lat="48.82429" lon="1.38058">
        <ele>132.8</ele>
        <time>2015-05-14T12:28:21Z</time>
      </trkpt>
      <trkpt lat="48.82447" lon="1.38049">
        <ele>132.8</ele>
        <time>2015-05-14T12:28:33Z</time>
      </trkpt>
      <trkpt lat="48.82463" lon="1.3804">
        <ele>132.8</ele>
        <time>2015-05-14T12:28:44Z</time>
      </trkpt>
      <trkpt lat="48.82477" lon="1.3804">
        <ele>133.28</ele>
        <time>2015-05-14T12:28:53Z</time>
      </trkpt>
      <trkpt lat="48.82492" lon="1.38038">
        <ele>133.28</ele>
        <time>2015-05-14T12:29:03Z</time>
      </trkpt>
      <trkpt lat="48.82504" lon="1.38042">
        <ele>133.76</ele>
        <time>2015-05-14T12:29:12Z</time>
      </trkpt>
      <trkpt lat="48.82522" lon="1.38038">
        <ele>133.76</ele>
        <time>2015-05-14T12:29:24Z</time>
      </trkpt>
      <trkpt lat="48.82539" lon="1.38027">
        <ele>133.76</ele>
        <time>2015-05-14T12:29:36Z</time>
      </trkpt>
      <trkpt lat="48.82555" lon="1.38018">
        <ele>133.76</ele>
        <time>2015-05-14T12:29:47Z</time>
      </trkpt>
      <trkpt lat="48.82576" lon="1.38016">
        <ele>133.76</ele>
        <time>2015-05-14T12:30:00Z</time>
      </trkpt>
      <trkpt lat="48.82589" lon="1.3802">
        <ele>133.76</ele>
        <time>2015-05-14T12:30:09Z</time>
      </trkpt>
      <trkpt lat="48.82603" lon="1.38034">
        <ele>134.24</ele>
        <time>2015-05-14T12:30:20Z</time>
      </trkpt>
      <trkpt lat="48.82613" lon="1.38043">
        <ele>133.76</ele>
        <time>2015-05-14T12:30:28Z</time>
      </trkpt>
      <trkpt lat="48.82626" lon="1.38052">
        <ele>134.24</ele>
        <time>2015-05-14T12:30:38Z</time>
      </trkpt>
      <trkpt lat="48.82638" lon="1.38059">
        <ele>132.8</ele>
        <time>2015-05-14T12:30:47Z</time>
      </trkpt>
      <trkpt lat="48.82655" lon="1.38063">
        <ele>132.8</ele>
        <time>2015-05-14T12:30:58Z</time>
      </trkpt>
      <trkpt lat="48.82672" lon="1.38066">
        <ele>133.76</ele>
        <time>2015-05-14T12:31:09Z</time>
      </trkpt>
      <trkpt lat="48.82687" lon="1.38067">
        <ele>133.76</ele>
        <time>2015-05-14T12:31:19Z</time>
      </trkpt>
      <trkpt lat="48.82706" lon="1.38067">
        <ele>133.76</ele>
        <time>2015-05-14T12:31:31Z</time>
      </trkpt>
      <trkpt lat="48.82711" lon="1.3807">
        <ele>132.32</ele>
        <time>2015-05-14T12:31:35Z</time>
      </trkpt>
      <trkpt lat="48.82725" lon="1.38072">
        <ele>132.32</ele>
        <time>2015-05-14T12:31:45Z</time>
      </trkpt>
      <trkpt lat="48.82746" lon="1.38074">
        <ele>132.32</ele>
        <time>2015-05-14T12:31:59Z</time>
      </trkpt>
      <trkpt lat="48.82764" lon="1.38072">
        <ele>132.32</ele>
        <time>2015-05-14T12:32:12Z</time>
      </trkpt>
      <trkpt lat="48.82783" lon="1.38068">
        <ele>131.84</ele>
        <time>2015-05-14T12:32:24Z</time>
      </trkpt>
      <trkpt lat="48.82801" lon="1.38063">
        <ele>131.84</ele>
        <time>2015-05-14T12:32:36Z</time>
      </trkpt>
      <trkpt lat="48.82818" lon="1.38061">
        <ele>131.84</ele>
        <time>2015-05-14T12:32:47Z</time>
      </trkpt>
      <trkpt lat="48.82837" lon="1.38058">
        <ele>130.88</ele>
        <time>2015-05-14T12:33:00Z</time>
      </trkpt>
      <trkpt lat="48.82856" lon="1.38058">
        <ele>130.88</ele>
        <time>2015-05-14T12:33:13Z</time>
      </trkpt>
      <trkpt lat="48.82866" lon="1.3806">
        <ele>132.32</ele>
        <time>2015-05-14T12:33:20Z</time>
      </trkpt>
      <trkpt lat="48.82881" lon="1.3806">
        <ele>132.32</ele>
        <time>2015-05-14T12:33:31Z</time>
      </trkpt>
      <trkpt lat="48.82894" lon="1.38059">
        <ele>130.88</ele>
        <time>2015-05-14T12:33:41Z</time>
      </trkpt>
      <trkpt lat="48.82915" lon="1.38054">
        <ele>130.88</ele>
        <time>2015-05-14T12:33:55Z</time>
      </trkpt>
      <trkpt lat="48.82928" lon="1.38053">
        <ele>130.4</ele>
        <time>2015-05-14T12:34:04Z</time>
      </trkpt>
      <trkpt lat="48.8294" lon="1.38055">
        <ele>130.88</ele>
        <time>2015-05-14T12:34:12Z</time>
      </trkpt>
      <trkpt lat="48.82956" lon="1.38056">
        <ele>129.92</ele>
        <time>2015-05-14T12:34:23Z</time>
      </trkpt>
      <trkpt lat="48.82971" lon="1.38058">
        <ele>128.95</ele>
        <time>2015-05-14T12:34:33Z</time>
      </trkpt>
      <trkpt lat="48.82985" lon="1.38065">
        <ele>127.99</ele>
        <time>2015-05-14T12:34:43Z</time>
      </trkpt>
      <trkpt lat="48.82995" lon="1.38077">
        <ele>127.99</ele>
        <time>2015-05-14T12:34:52Z</time>
      </trkpt>
      <trkpt lat="48.83007" lon="1.38095">
        <ele>127.99</ele>
        <time>2015-05-14T12:35:03Z</time>
      </trkpt>
      <trkpt lat="48.83015" lon="1.38113">
        <ele>127.99</ele>
        <time>2015-05-14T12:35:13Z</time>
      </trkpt>
      <trkpt lat="48.83021" lon="1.38125">
        <ele>129.43</ele>
        <time>2015-05-14T12:35:19Z</time>
      </trkpt>
      <trkpt lat="48.83027" lon="1.3814">
        <ele>129.92</ele>
        <time>2015-05-14T12:35:28Z</time>
      </trkpt>
      <trkpt lat="48.83037" lon="1.38156">
        <ele>129.43</ele>
        <time>2015-05-14T12:35:38Z</time>
      </trkpt>
      <trkpt lat="48.83047" lon="1.38175">
        <ele>129.92</ele>
        <time>2015-05-14T12:35:48Z</time>
      </trkpt>
      <trkpt lat="48.83054" lon="1.38186">
        <ele>129.92</ele>
        <time>2015-05-14T12:35:55Z</time>
      </trkpt>
      <trkpt lat="48.83066" lon="1.38203">
        <ele>129.92</ele>
        <time>2015-05-14T12:36:06Z</time>
      </trkpt>
      <trkpt lat="48.83072" lon="1.38212">
        <ele>129.92</ele>
        <time>2015-05-14T12:36:13Z</time>
      </trkpt>
      <trkpt lat="48.83074" lon="1.38219">
        <ele>129.92</ele>
        <time>2015-05-14T12:36:18Z</time>
      </trkpt>
      <trkpt lat="48.83069" lon="1.38226">
        <ele>130.4</ele>
        <time>2015-05-14T12:36:22Z</time>
      </trkpt>
      <trkpt lat="48.83057" lon="1.3824">
        <ele>130.88</ele>
        <time>2015-05-14T12:36:32Z</time>
      </trkpt>
      <trkpt lat="48.83047" lon="1.38252">
        <ele>131.36</ele>
        <time>2015-05-14T12:36:41Z</time>
      </trkpt>
      <trkpt lat="48.83035" lon="1.38261">
        <ele>132.32</ele>
        <time>2015-05-14T12:36:50Z</time>
      </trkpt>
      <trkpt lat="48.83021" lon="1.38268">
        <ele>132.32</ele>
        <time>2015-05-14T12:37:00Z</time>
      </trkpt>
      <trkpt lat="48.83007" lon="1.38278">
        <ele>132.32</ele>
        <time>2015-05-14T12:37:11Z</time>
      </trkpt>
      <trkpt lat="48.82992" lon="1.38287">
        <ele>132.8</ele>
        <time>2015-05-14T12:37:22Z</time>
      </trkpt>
      <trkpt lat="48.82977" lon="1.38298">
        <ele>132.8</ele>
        <time>2015-05-14T12:37:34Z</time>
      </trkpt>
      <trkpt lat="48.82962" lon="1.38305">
        <ele>131.84</ele>
        <time>2015-05-14T12:37:45Z</time>
      </trkpt>
      <trkpt lat="48.82954" lon="1.38308">
        <ele>132.8</ele>
        <time>2015-05-14T12:37:50Z</time>
      </trkpt>
      <trkpt lat="48.8294" lon="1.38308">
        <ele>132.8</ele>
        <time>2015-05-14T12:38:00Z</time>
      </trkpt>
      <trkpt lat="48.82926" lon="1.383">
        <ele>132.8</ele>
        <time>2015-05-14T12:38:11Z</time>
      </trkpt>
      <trkpt lat="48.82915" lon="1.38288">
        <ele>132.8</ele>
        <time>2015-05-14T12:38:21Z</time>
      </trkpt>
      <trkpt lat="48.82901" lon="1.38276">
        <ele>132.8</ele>
        <time>2015-05-14T12:38:32Z</time>
      </trkpt>
      <trkpt lat="48.82883" lon="1.38275">
        <ele>132.8</ele>
        <time>2015-05-14T12:38:43Z</time>
      </trkpt>
      <trkpt lat="48.82869" lon="1.38282">
        <ele>132.8</ele>
        <time>2015-05-14T12:38:52Z</time>
      </trkpt>
      <trkpt lat="48.82853" lon="1.38289">
        <ele>132.8</ele>
        <time>2015-05-14T12:39:03Z</time>
      </trkpt>
      <trkpt lat="48.82836" lon="1.38295">
        <ele>132.8</ele>
        <time>2015-05-14T12:39:15Z</time>
      </trkpt>
      <trkpt lat="48.82819" lon="1.38299">
        <ele>132.8</ele>
        <time>2015-05-14T12:39:27Z</time>
      </trkpt>
      <trkpt lat="48.82799" lon="1.38304">
        <ele>133.76</ele>
        <time>2015-05-14T12:39:41Z</time>
      </trkpt>
      <trkpt lat="48.82779" lon="1.38312">
        <ele>133.28</ele>
        <time>2015-05-14T12:39:55Z</time>
      </trkpt>
      <trkpt lat="48.8276" lon="1.38319">
        <ele>133.28</ele>
        <time>2015-05-14T12:40:08Z</time>
      </trkpt>
      <trkpt lat="48.82747" lon="1.38323">
        <ele>132.32</ele>
        <time>2015-05-14T12:40:17Z</time>
      </trkpt>
      <trkpt lat="48.82746" lon="1.38323">
        <ele>132.32</ele>
        <time>2015-05-14T12:40:18Z</time>
      </trkpt>
      <trkpt lat="48.82728" lon="1.38331">
        <ele>132.32</ele>
        <time>2015-05-14T12:40:30Z</time>
      </trkpt>
      <trkpt lat="48.82723" lon="1.38334">
        <ele>133.76</ele>
        <time>2015-05-14T12:40:34Z</time>
      </trkpt>
      <trkpt lat="48.82705" lon="1.38343">
        <ele>134.24</ele>
        <time>2015-05-14T12:40:47Z</time>
      </trkpt>
      <trkpt lat="48.82693" lon="1.38348">
        <ele>134.24</ele>
        <time>2015-05-14T12:40:57Z</time>
      </trkpt>
    </trkseg>
  </trk>
</gpx>